GFSSE_sfc_thetae_000.txt.gz
Theta_e
353 357 359 360 363 368 368 368 369 369 369 369 368 366 369 368 368 368 369 371 369 370 367 365 365 366 366 366 365 364 363 362 362 361 363 361 358 356 356 356 355 352 356
356 358 363 363 367 369 369 369 368 369 368 369 368 368 368 368 366 366 367 369 369 367 365 365 365 365 366 366 365 364 364 363 363 362 361 360 359 357 358 356 355 356 356
354 358 360 367 369 368 368 368 368 367 368 369 369 368 368 368 367 367 368 367 367 365 364 364 364 364 363 363 364 364 364 362 361 361 360 357 357 358 359 357 355 356 356
356 358 360 364 367 368 369 369 369 366 368 369 369 368 369 368 368 367 365 365 366 365 364 363 363 364 362 362 362 361 361 362 362 360 358 354 353 357 357 356 353 354 352
358 360 364 366 369 369 368 369 368 368 368 368 368 368 368 367 367 365 364 365 364 364 363 363 363 362 361 361 360 359 358 359 360 358 356 356 357 355 358 357 353 356 353
361 364 363 366 369 369 370 368 366 366 369 369 369 368 367 365 365 365 364 364 364 363 363 362 362 360 359 359 360 358 358 358 356 357 358 355 357 358 357 357 353 355 354
359 363 364 368 369 368 371 367 368 366 366 368 367 365 365 364 364 363 362 362 362 362 361 361 361 360 359 359 359 359 358 357 358 359 359 356 359 360 357 358 354 351 353
359 362 364 365 368 369 368 367 370 369 367 368 367 364 364 364 363 363 361 362 361 360 359 359 359 359 359 360 360 360 360 358 356 357 359 360 360 359 357 355 357 351 350
358 359 364 364 366 367 368 367 368 369 367 367 366 364 364 364 364 362 362 360 359 358 358 359 360 359 359 360 361 360 357 360 359 358 355 358 361 360 357 357 357 353 353
356 358 361 363 363 365 364 366 365 365 366 364 364 364 364 364 363 363 362 362 360 360 361 362 363 360 360 359 358 359 359 359 356 359 356 359 362 359 358 358 355 355 352
354 358 360 361 363 364 363 363 365 364 364 363 362 363 362 358 361 361 363 361 360 361 362 362 363 363 361 361 358 357 358 356 358 359 361 357 360 358 359 358 356 356 354
353 355 357 359 361 363 360 365 363 361 358 359 360 363 360 361 363 362 363 361 362 363 363 363 361 361 358 355 357 356 355 355 355 357 357 360 359 358 359 358 358 354 357
353 354 356 360 362 361 360 360 360 360 359 360 365 364 363 361 361 360 358 359 359 361 356 358 357 356 353 354 354 354 353 354 353 358 358 358 359 358 358 359 359 357 353
352 354 358 361 363 363 361 359 359 358 359 358 359 366 366 359 359 358 356 357 358 356 356 356 356 357 357 355 355 354 353 353 353 356 359 359 360 358 357 359 359 357 356
351 354 357 361 362 363 364 359 358 358 357 357 358 360 361 358 357 357 359 357 355 356 357 358 356 356 356 353 353 353 351 352 353 354 356 361 361 360 358 359 359 357 355
351 352 357 360 363 364 367 366 365 360 361 358 357 358 363 361 358 356 358 355 355 356 360 358 362 356 355 354 352 353 352 352 354 355 354 357 361 362 360 359 359 358 356
354 356 357 360 362 362 363 365 363 360 358 357 357 361 362 364 361 363 357 355 358 358 358 357 359 357 355 354 354 353 353 354 353 356 356 355 356 361 362 361 362 362 360
358 360 362 361 360 362 364 367 364 360 359 357 355 356 360 362 363 363 354 355 357 358 354 353 358 353 355 352 352 352 352 352 353 354 355 354 354 352 359 362 363 363 360
357 360 362 363 361 361 364 363 362 363 359 359 358 361 362 363 363 363 361 354 359 354 353 351 353 353 355 355 351 350 352 351 351 350 351 353 355 354 353 359 361 362 360
360 363 363 362 364 366 364 365 369 368 372 371 368 360 363 362 361 362 357 358 358 353 351 351 355 354 352 351 349 347 348 350 350 349 350 351 352 353 353 355 359 358 361
357 360 361 362 364 363 361 360 359 357 360 361 360 362 363 363 363 363 363 359 363 359 356 357 356 352 349 352 347 346 347 349 349 349 349 349 351 351 352 353 354 354 356
356 359 361 363 365 365 362 366 362 360 356 357 362 361 359 358 358 357 357 354 355 351 355 355 356 351 348 353 344 343 335 340 344 348 349 347 349 350 350 352 354 357 356
355 358 360 363 364 366 364 360 355 351 352 346 349 347 353 354 354 354 354 353 354 353 349 352 353 350 346 348 351 344 334 331 336 343 347 347 349 348 350 350 352 354 357
354 359 365 367 365 360 355 351 349 340 339 343 344 345 349 350 351 351 352 352 353 351 350 350 350 350 350 345 349 350 348 343 336 331 342 345 348 347 350 349 349 352 356
357 359 360 359 355 353 351 348 340 342 340 342 341 344 347 348 349 348 350 349 350 348 350 348 348 349 350 347 346 346 346 344 347 341 334 337 344 346 347 349 350 349 352
354 352 349 351 351 350 345 344 344 342 341 338 340 339 338 340 343 347 346 346 347 346 346 347 348 348 350 350 349 349 347 343 341 341 339 337 337 340 345 346 348 349 350

GFSSE_sfc_thetae_003.txt.gz
Theta_e
351 354 361 364 366 367 367 367 368 369 369 369 368 368 369 368 368 369 369 368 367 367 366 364 365 365 365 365 364 363 362 361 361 362 360 358 357 355 355 355 354 350 356
355 356 362 365 366 366 368 369 369 368 369 368 369 368 368 366 366 370 370 367 367 366 365 365 365 363 365 365 364 363 362 362 361 360 360 360 357 358 357 356 359 355 356
353 357 359 367 366 366 368 368 367 368 367 368 369 367 367 364 364 365 366 365 366 364 364 364 363 364 363 364 363 364 361 360 360 360 358 357 357 358 358 356 356 357 355
354 356 359 367 367 365 367 368 369 368 367 367 369 367 367 364 365 366 365 365 365 364 363 363 364 363 361 361 360 360 359 358 359 357 356 356 354 358 357 355 358 355 354
357 362 364 366 368 366 367 367 369 369 367 366 368 367 365 364 362 365 365 364 364 364 363 363 362 361 359 358 358 357 357 358 359 356 356 357 353 357 358 354 354 353 348
359 361 366 367 368 369 368 367 366 369 367 366 366 365 364 362 364 363 364 363 363 363 363 362 361 360 359 358 359 356 358 358 356 358 356 356 357 360 358 355 354 355 352
359 360 363 369 369 369 367 367 367 369 367 367 364 364 364 365 364 363 362 362 362 362 361 360 359 359 358 359 358 358 358 358 358 360 359 353 360 360 356 355 352 356 354
357 360 362 367 369 370 367 367 367 367 366 365 364 364 364 364 363 362 361 361 360 359 358 359 358 358 358 359 359 360 359 360 356 356 359 358 360 360 359 356 353 351 351
357 361 362 363 364 367 367 368 369 368 366 365 364 364 364 364 363 362 361 360 358 358 358 358 358 357 358 359 360 358 358 360 356 359 356 357 362 360 359 355 355 352 350
358 359 364 364 363 364 364 365 367 367 366 364 364 363 364 363 363 363 363 362 359 358 360 361 361 360 359 359 359 359 359 360 356 356 357 358 362 360 358 357 356 353 354
356 358 359 358 360 368 364 365 366 366 365 364 363 362 361 357 361 362 365 359 359 360 360 361 361 361 361 361 359 359 359 355 354 358 357 357 362 360 358 359 356 356 353
352 355 356 358 360 364 359 364 364 361 359 359 359 365 359 365 367 360 362 362 362 362 362 362 362 361 359 354 358 360 356 356 355 356 359 358 358 359 360 359 358 356 356
352 352 353 360 360 359 365 359 359 358 358 359 363 367 364 360 364 359 357 362 360 361 356 359 361 358 356 351 351 352 351 351 350 355 356 361 360 359 359 359 360 357 357
352 353 356 360 363 361 361 356 358 357 355 356 359 365 362 355 364 360 356 359 360 354 355 356 354 355 353 354 352 351 352 351 350 352 359 361 361 359 358 360 360 360 356
350 353 355 360 363 364 365 357 358 357 353 355 356 360 357 362 361 358 359 355 357 354 356 358 359 355 356 353 352 351 350 349 350 350 352 364 362 361 358 361 362 360 358
350 352 355 358 364 366 365 366 362 355 360 358 359 360 364 357 366 357 360 355 359 356 357 356 360 356 355 353 352 352 352 351 351 352 350 359 364 363 361 359 361 362 359
350 352 356 361 364 364 366 367 368 358 354 356 358 363 358 361 362 364 358 355 355 357 360 358 357 359 353 352 351 351 351 354 352 352 352 352 359 363 363 362 363 364 363
353 356 359 356 361 363 364 365 363 359 357 360 354 354 357 361 368 366 354 352 356 357 356 355 354 352 351 352 350 350 351 351 352 353 353 353 352 354 362 364 363 364 363
357 359 359 360 359 363 366 365 363 367 358 357 362 360 363 363 362 364 356 354 359 354 352 352 352 351 351 350 349 351 351 349 349 349 352 352 354 353 353 361 361 362 362
356 359 361 360 363 363 369 367 365 369 360 360 360 360 366 368 363 366 364 360 362 359 358 355 356 354 351 350 348 347 350 349 349 348 348 349 350 352 353 357 360 358 363
357 360 361 362 367 366 366 363 367 357 363 360 369 363 363 363 363 363 362 359 362 356 358 358 355 355 351 354 349 346 347 350 349 348 348 348 349 349 352 353 357 356 360
355 358 361 363 367 366 363 367 365 360 354 353 356 360 361 357 361 356 357 354 358 348 358 354 354 348 348 349 343 347 338 341 345 346 350 348 348 348 348 355 356 360 358
354 358 361 365 366 368 367 366 360 357 355 347 347 348 351 352 351 354 354 353 354 353 343 351 351 350 344 350 351 343 337 332 337 343 350 348 352 347 348 351 355 357 362
351 357 362 365 367 363 359 354 354 343 338 343 342 343 347 348 349 350 351 350 352 350 351 350 348 349 348 343 349 350 349 345 339 334 343 343 353 350 352 349 350 355 360
351 354 360 364 359 356 352 350 341 344 337 337 339 344 350 352 348 347 349 350 350 347 351 349 348 350 350 346 346 347 347 348 347 343 335 340 345 346 348 351 350 351 356
351 355 357 355 356 354 349 347 344 342 341 337 339 338 338 338 340 346 345 347 348 347 346 345 347 347 349 350 348 348 345 342 343 344 340 338 339 344 346 346 350 351 352

GFSSE_sfc_thetae_006.txt.gz
Theta_e
348 356 364 366 366 366 367 367 367 367 366 367 367 368 368 369 369 368 369 369 369 368 368 366 367 366 365 364 363 362 362 362 362 361 359 357 356 356 356 354 356 351 356
352 356 366 368 366 366 366 367 366 367 367 368 368 368 368 370 370 369 369 368 368 368 367 366 366 365 364 363 362 362 361 361 361 360 359 357 357 358 356 357 358 354 355
352 355 360 368 368 366 366 366 367 366 368 368 368 367 367 367 369 368 368 368 368 366 365 364 364 364 363 362 362 362 357 358 358 358 357 356 355 358 357 357 358 357 354
352 355 357 367 368 368 366 367 367 367 368 368 368 367 368 368 368 368 367 366 366 365 364 364 363 361 360 360 358 359 358 357 355 354 354 353 353 358 356 359 356 355 356
358 360 363 368 368 367 368 369 369 369 368 368 368 367 367 366 364 365 364 364 364 364 363 363 361 360 359 357 357 358 358 359 358 355 355 354 354 356 355 354 353 351 353
358 359 366 368 368 368 368 368 369 368 368 369 368 368 366 365 365 364 364 364 363 363 362 362 360 359 358 357 357 357 358 357 354 351 354 357 355 359 357 354 356 352 354
356 359 363 370 371 370 369 369 369 369 368 367 367 365 366 366 364 364 364 363 361 361 360 359 358 357 357 358 358 358 358 358 351 351 354 352 355 361 359 355 356 354 355
355 358 360 368 369 368 369 368 370 368 367 367 367 366 366 364 363 362 361 361 360 358 357 357 357 356 356 358 358 361 361 359 353 354 354 354 357 361 359 354 354 355 355
357 359 362 361 365 368 370 368 368 368 367 366 366 365 364 363 363 362 361 360 357 357 357 358 359 358 360 360 362 363 362 360 356 357 355 354 361 362 357 357 352 350 352
357 359 362 363 362 364 363 369 367 368 367 365 364 363 363 364 364 362 361 363 359 358 358 360 361 362 363 364 363 364 363 360 355 355 355 352 361 361 358 357 354 353 349
354 356 357 359 364 367 363 362 368 366 367 364 363 363 364 359 358 346 342 354 363 361 360 362 363 365 364 364 365 365 361 354 355 357 354 356 362 361 359 357 355 354 355
352 354 357 358 360 363 357 364 365 363 361 362 361 364 361 362 362 355 345 354 363 362 364 363 363 365 360 355 358 363 357 353 356 354 354 354 360 362 359 360 359 356 354
353 352 354 363 365 363 360 362 363 361 360 360 367 368 369 368 352 362 353 356 364 365 358 363 360 359 356 354 352 351 353 352 349 353 355 358 359 361 360 359 359 358 357
350 353 357 358 362 364 358 360 361 360 361 353 362 368 369 362 367 365 361 363 364 357 363 362 357 361 358 359 353 352 350 349 348 353 356 360 361 362 359 360 360 358 356
349 352 358 362 364 370 361 368 357 357 355 360 362 363 363 365 364 363 364 362 362 362 357 360 361 358 357 356 356 355 351 351 351 351 355 362 361 363 361 362 360 360 359
350 351 356 361 368 369 369 371 371 359 356 366 363 358 364 360 363 362 359 360 363 357 363 360 361 358 357 356 354 354 353 354 354 355 354 357 361 361 362 362 362 362 361
349 352 357 359 364 366 368 371 371 365 357 362 359 365 365 365 367 365 361 359 358 363 364 362 359 357 355 354 354 350 354 354 352 354 353 355 354 361 362 361 363 365 364
351 355 355 353 361 365 367 367 366 363 361 365 366 360 363 366 367 363 360 357 359 361 357 359 357 353 354 352 353 354 353 353 352 353 354 352 354 354 360 362 362 363 365
358 359 356 359 361 365 367 368 366 368 364 368 362 365 362 368 366 364 359 360 361 356 355 353 352 354 349 348 349 351 352 352 348 347 350 351 351 352 355 358 359 360 362
356 356 359 359 368 364 367 370 369 368 363 364 366 363 365 367 365 363 360 359 358 356 354 353 351 351 351 350 349 347 348 350 350 346 345 349 350 350 351 355 356 355 361
355 362 359 360 373 371 365 361 363 359 365 363 366 366 366 367 364 363 361 359 358 354 355 355 354 350 347 351 345 343 346 348 349 350 349 346 347 349 350 352 356 354 356
356 361 365 367 369 370 371 369 366 366 364 363 361 365 364 360 359 362 363 356 354 351 352 352 353 347 346 347 341 338 333 338 344 346 348 346 346 348 347 349 352 354 354
353 358 363 367 367 370 371 371 367 365 365 358 360 351 354 353 355 359 358 357 355 354 346 348 349 345 341 347 345 338 331 328 335 343 346 347 346 345 347 348 350 351 355
353 359 364 368 370 370 370 366 362 354 345 355 355 353 351 354 354 354 355 355 355 351 349 349 347 346 346 340 344 346 342 339 332 329 340 344 347 345 348 348 347 350 351
353 354 362 368 368 365 363 360 355 353 346 348 348 351 354 352 354 351 355 354 351 349 348 347 347 346 344 342 341 341 341 338 340 335 329 334 340 348 346 346 344 346 350
350 354 360 363 362 362 358 356 353 351 350 346 348 346 345 347 348 352 349 351 351 348 347 345 347 346 344 343 342 341 338 334 334 332 330 333 335 339 346 344 344 345 346

GFSSE_sfc_thetae_009.txt.gz
Theta_e
349 356 363 363 365 367 367 366 368 368 367 368 368 368 368 369 370 369 369 369 370 369 369 366 366 365 364 363 363 362 362 362 361 360 357 357 357 358 355 354 357 352 354
353 360 366 366 365 365 366 368 367 367 368 368 368 369 369 369 370 369 369 369 369 369 367 366 365 364 364 363 363 362 361 361 359 358 357 357 358 357 355 355 356 352 355
354 359 360 366 367 367 368 366 365 366 368 368 368 369 369 369 369 369 369 369 368 367 364 364 364 364 363 362 362 361 359 360 357 357 355 354 355 358 357 357 357 354 356
354 358 361 365 366 367 367 366 368 367 368 368 368 368 369 369 368 368 365 365 367 365 363 363 362 362 361 360 361 363 362 360 357 356 352 354 352 357 357 357 355 356 355
353 359 362 368 368 368 367 367 369 368 369 368 368 369 368 368 366 364 364 364 364 365 363 362 361 361 360 359 362 362 361 358 357 354 352 350 348 354 356 354 352 354 355
355 360 367 369 369 370 370 370 370 369 369 369 368 367 367 367 365 364 364 363 363 363 362 361 361 360 359 359 362 362 361 357 352 347 350 352 350 356 354 355 353 353 355
355 360 363 369 369 369 370 370 369 369 368 369 367 367 367 368 365 364 363 362 361 361 360 359 358 358 358 358 359 360 359 358 349 352 352 351 352 359 356 357 354 356 355
355 360 363 369 370 370 368 367 370 368 367 367 367 369 368 367 366 365 362 361 358 357 357 357 361 361 360 360 362 362 360 356 354 353 353 351 356 361 357 355 356 355 356
355 357 361 362 365 369 369 369 367 368 367 368 368 368 367 365 363 363 362 361 359 359 359 359 363 363 363 363 363 361 362 360 353 352 354 352 359 361 355 354 356 355 356
354 356 356 358 360 362 363 368 366 367 366 368 367 365 366 364 361 358 356 360 362 362 361 362 364 363 366 365 364 362 360 361 353 352 351 350 357 361 357 354 351 352 355
353 354 354 354 356 357 360 364 368 367 368 367 365 366 364 356 345 345 354 354 358 364 363 364 363 362 365 362 363 362 361 354 351 353 351 350 358 362 358 357 354 352 352
348 352 354 355 356 357 358 359 359 360 359 357 357 356 355 352 350 352 352 352 357 364 366 366 362 364 363 353 351 361 355 355 350 351 350 357 361 362 360 358 355 354 355
348 349 350 352 354 355 355 355 356 355 355 356 355 355 355 356 350 354 348 353 353 359 355 358 357 356 355 352 349 347 351 354 350 351 352 358 362 363 360 359 357 356 354
347 349 353 356 355 354 357 355 355 355 354 352 355 356 353 352 351 351 350 350 351 351 353 349 347 352 350 350 347 349 343 342 345 350 354 359 361 364 361 360 359 358 357
346 351 353 353 357 354 352 356 352 354 355 353 354 355 356 352 350 349 350 348 350 351 348 350 350 349 350 351 349 348 345 343 342 351 349 360 360 361 362 361 360 360 358
343 351 354 353 358 355 355 355 356 355 348 354 353 354 356 355 354 351 349 349 352 349 353 350 349 349 348 349 349 348 347 347 345 346 351 354 360 361 363 361 361 361 361
342 352 353 355 357 354 354 356 357 355 354 347 351 353 349 349 352 351 348 349 349 351 351 351 351 351 349 349 347 348 348 347 346 345 348 352 355 361 361 361 363 363 364
342 348 353 357 357 355 355 357 356 355 353 353 355 353 354 356 351 351 348 348 350 350 348 347 347 345 345 345 344 345 346 346 347 346 349 350 350 351 358 360 360 362 364
349 349 348 351 354 356 357 357 356 357 354 354 352 356 356 358 356 351 350 351 351 348 346 346 346 343 342 343 343 342 343 345 347 350 347 348 349 351 350 357 359 358 362
351 349 351 350 354 358 355 355 356 353 352 353 355 350 352 353 354 349 348 348 348 347 345 345 342 343 343 342 347 344 343 344 345 344 345 347 348 348 352 351 353 353 358
349 350 351 352 356 353 351 349 350 345 350 351 352 354 353 353 353 350 348 348 345 345 344 345 343 341 338 341 336 334 337 341 342 343 344 344 344 345 348 348 351 351 351
348 351 351 353 355 353 354 354 353 352 352 352 353 354 352 352 353 353 348 342 341 341 338 336 338 335 337 339 332 330 324 329 336 340 341 343 342 344 343 347 349 351 350
350 352 353 355 354 355 353 356 353 352 349 344 343 344 342 341 344 343 342 340 341 340 337 338 337 336 332 336 336 330 323 320 328 331 335 340 343 340 342 346 347 349 350
351 354 357 355 354 356 356 351 347 342 327 337 338 338 337 342 339 339 339 341 339 338 337 337 340 335 334 331 334 336 330 330 324 323 331 334 337 340 344 346 344 344 343
351 352 356 355 357 354 341 341 335 327 329 333 334 332 329 333 338 342 342 339 338 336 336 336 335 334 334 332 330 330 330 331 328 325 323 326 332 336 340 342 343 340 337
349 354 356 355 347 346 337 334 330 327 328 329 330 329 331 331 333 340 339 335 336 336 335 334 335 334 332 331 331 330 328 325 325 324 322 324 326 329 334 339 340 339 339

GFSSE_sfc_thetae_012.txt.gz
Theta_e
348 353 363 362 362 363 364 365 366 367 367 366 366 368 369 369 369 369 369 369 367 367 365 365 365 363 362 362 362 361 361 360 359 357 357 358 359 356 354 355 355 349 353
353 356 363 364 365 365 366 367 368 367 368 367 367 369 369 369 369 369 370 368 367 365 366 365 364 363 363 362 361 360 360 359 359 357 357 358 357 355 354 355 353 351 354
356 358 361 366 367 366 367 365 366 368 368 369 369 369 369 367 367 368 367 366 366 364 363 364 363 362 361 360 360 359 357 358 358 357 356 353 354 357 356 355 353 355 354
356 358 360 366 367 366 366 367 368 367 366 368 369 369 368 368 368 365 364 364 364 363 363 362 361 360 359 359 359 359 358 358 357 356 352 353 352 356 356 353 353 354 351
356 358 359 367 368 366 367 368 368 368 367 368 368 368 368 366 364 365 364 363 363 363 362 361 360 360 358 358 357 358 359 356 355 352 350 348 347 353 355 352 353 354 352
356 358 365 367 366 366 368 368 368 367 367 367 367 365 365 364 363 364 363 363 363 362 361 360 360 359 357 357 358 357 359 352 349 348 350 352 349 353 353 352 352 354 354
356 360 362 366 367 367 368 369 369 367 366 366 366 365 366 365 363 364 363 362 361 360 360 359 357 356 356 356 357 357 356 357 349 349 350 350 352 357 356 355 352 354 353
356 359 361 366 366 367 368 367 368 366 365 366 366 366 366 364 364 363 361 361 360 359 358 357 357 356 357 357 357 358 358 355 355 351 353 350 355 358 356 356 354 355 353
359 360 360 361 363 367 369 366 366 365 364 365 366 365 365 363 361 361 360 360 359 358 357 358 360 361 360 360 360 360 359 357 352 352 351 351 360 359 356 354 355 355 354
356 358 359 359 360 361 363 367 364 365 364 364 364 364 363 362 361 360 356 361 361 361 360 360 361 361 362 362 361 362 360 357 350 352 353 351 358 360 355 354 355 355 356
354 355 356 356 358 359 360 362 367 365 365 365 363 363 365 356 352 344 350 356 358 361 360 363 362 360 362 361 363 362 361 354 350 351 345 346 358 360 356 355 352 353 356
348 350 353 355 357 357 362 359 359 359 358 357 356 355 355 352 349 349 352 357 356 357 362 363 361 362 360 354 350 356 352 355 351 352 350 348 355 361 359 357 354 352 353
349 351 350 352 354 354 355 355 355 356 355 354 353 353 352 352 349 352 349 348 349 356 353 355 354 353 352 351 350 347 348 353 351 351 352 355 356 362 360 359 355 354 353
347 349 351 352 353 353 355 355 355 354 353 352 352 352 351 350 347 345 348 347 348 349 349 347 347 349 349 350 347 346 343 342 345 350 350 358 358 360 361 360 358 356 355
345 347 351 353 353 352 353 353 353 354 353 352 352 352 353 352 348 347 348 347 346 348 345 347 348 347 346 346 349 348 346 344 343 348 349 358 359 360 362 361 360 358 357
346 349 353 353 352 351 350 352 351 351 355 352 353 352 353 353 352 346 347 345 348 348 349 349 347 346 346 347 348 348 348 347 345 347 349 352 360 359 361 362 363 361 359
348 351 351 352 353 351 353 352 353 353 351 347 351 352 354 353 350 351 345 345 345 347 348 348 347 346 345 346 345 346 347 348 347 347 348 349 353 360 360 359 362 362 364
347 348 351 354 353 350 351 353 354 354 351 349 349 350 352 351 350 349 344 345 347 347 347 343 343 343 342 342 341 342 342 344 346 345 344 351 351 351 356 358 359 363 363
345 349 351 351 351 352 353 354 354 353 352 351 349 351 353 355 355 349 346 347 347 343 342 343 342 341 339 340 341 342 342 342 344 347 346 344 348 349 349 355 356 358 361
343 347 350 350 352 353 353 353 353 352 351 350 351 350 352 349 351 350 349 345 345 343 342 341 339 339 340 339 342 341 339 340 340 341 343 346 346 349 350 348 351 354 357
345 343 346 347 351 351 349 346 345 344 345 348 349 351 350 350 351 347 344 345 344 341 339 337 338 337 336 337 332 331 333 336 336 337 340 342 343 344 344 349 348 350 351
344 343 346 348 351 350 349 347 348 347 346 348 349 351 351 350 350 350 345 341 339 337 334 334 333 331 333 335 330 326 322 326 331 334 335 338 340 342 344 345 345 348 348
343 346 346 350 349 349 350 350 349 348 346 340 339 341 342 344 345 340 339 337 337 335 333 334 334 331 328 331 332 328 322 317 324 328 331 334 335 338 340 343 346 344 342
346 349 349 350 350 351 349 349 345 339 335 333 334 332 334 338 337 336 337 338 336 335 333 333 335 332 330 326 329 333 329 328 320 319 326 329 331 332 335 339 345 345 342
348 350 351 349 349 351 349 346 341 329 328 331 332 329 326 329 335 339 339 336 333 332 331 332 330 330 330 328 327 327 326 326 325 321 317 322 326 329 332 335 338 341 342
348 351 352 348 348 348 338 335 327 326 326 327 326 323 328 325 335 336 335 332 333 332 331 330 331 329 328 328 327 326 325 322 321 320 318 318 320 324 327 330 333 337 338

GFSSE_sfc_thetae_015.txt.gz
Theta_e
348 354 360 361 360 360 360 359 360 362 363 365 366 367 367 367 368 367 367 365 365 365 364 363 361 361 361 360 360 359 359 358 356 357 358 358 355 354 355 355 352 348 351
350 354 361 361 361 360 362 362 363 365 365 366 366 368 367 367 366 367 366 365 365 364 364 362 360 361 359 360 359 358 357 358 357 357 358 358 355 354 354 354 353 351 352
351 354 359 363 363 363 365 365 364 365 365 367 368 366 367 366 365 365 365 364 364 363 363 362 361 360 359 359 359 356 356 356 356 356 357 353 352 357 356 353 354 353 354
356 356 359 363 365 364 365 366 366 366 365 368 367 367 366 365 365 364 364 364 363 362 362 360 360 358 357 357 357 357 355 354 355 354 351 353 351 356 355 351 353 352 354
354 357 360 365 366 364 364 366 366 366 364 365 365 365 365 363 363 363 362 361 361 361 360 359 358 357 357 355 356 357 357 354 354 351 349 349 347 353 353 353 354 351 350
354 357 364 365 364 365 365 366 364 364 364 366 366 364 363 363 363 362 362 362 361 361 359 358 357 357 356 356 356 356 356 350 350 348 349 350 347 354 352 350 354 352 352
353 358 360 367 366 366 364 365 364 364 364 365 364 363 363 362 362 362 362 361 360 359 358 357 356 356 356 356 356 356 356 356 346 347 348 350 349 355 352 353 353 355 354
356 357 358 364 366 366 364 363 364 363 363 363 364 364 363 363 363 362 361 360 359 357 357 356 358 357 357 357 357 357 358 358 355 350 349 348 353 356 356 354 352 353 353
357 357 356 357 361 366 367 363 363 363 363 363 364 364 364 363 362 361 361 359 358 358 358 359 360 361 360 360 360 358 358 359 351 350 351 350 356 356 355 355 353 354 353
356 357 356 357 357 358 360 365 363 363 361 363 364 364 363 361 360 361 360 359 359 360 360 360 360 360 361 362 359 359 357 358 351 350 350 348 356 358 356 354 355 355 353
355 355 356 356 357 357 358 360 364 363 364 363 363 363 363 356 354 354 355 356 358 359 358 358 360 362 361 360 361 358 357 352 349 349 347 349 356 359 357 355 354 353 356
350 352 355 355 356 356 360 356 357 355 356 356 356 355 355 353 351 349 349 355 357 357 359 361 361 361 358 352 350 355 348 353 349 349 349 346 353 359 358 355 353 353 355
349 351 353 355 355 355 356 355 356 354 354 353 352 351 352 351 348 351 350 347 347 354 352 353 352 353 351 348 347 347 345 346 351 350 352 354 352 359 360 358 354 352 352
346 348 349 352 354 354 353 354 353 354 352 351 351 351 349 348 347 345 347 346 346 348 347 346 345 347 348 349 347 346 346 343 341 347 349 357 356 358 361 359 358 355 352
346 348 348 351 352 352 352 352 352 352 353 351 351 350 351 348 348 346 346 346 345 347 344 346 345 346 345 346 347 347 347 346 345 344 347 356 359 359 361 361 359 358 355
347 347 349 350 352 350 350 350 350 351 353 352 350 351 350 351 350 345 344 345 345 346 347 346 345 345 346 346 346 346 346 346 349 346 347 348 360 357 359 362 360 359 357
345 347 350 352 351 349 348 350 350 352 350 348 349 351 350 351 349 347 347 343 343 345 345 346 344 343 343 344 342 344 344 345 344 346 346 348 348 356 357 357 358 358 361
344 346 351 354 351 349 348 350 351 352 350 348 349 348 350 350 348 347 343 342 345 343 345 342 342 341 341 340 339 340 341 342 343 345 346 344 347 349 352 357 356 357 359
346 347 348 351 350 349 350 351 351 351 350 348 349 348 349 350 350 350 344 344 345 343 342 342 341 339 337 337 339 340 340 339 340 343 342 344 344 349 348 353 355 355 356
346 347 348 349 348 348 349 350 349 349 349 349 348 349 350 349 350 346 346 347 344 341 339 337 336 337 336 336 339 337 335 336 336 337 339 343 343 345 347 347 348 349 356
345 345 347 346 347 349 347 345 344 345 346 345 346 349 349 349 349 346 343 342 342 337 334 334 334 333 332 334 329 329 330 331 332 334 336 338 339 343 343 345 346 348 348
340 343 344 347 348 349 346 345 344 343 343 345 346 348 350 348 348 345 343 340 338 335 332 332 331 329 330 332 327 322 319 324 327 330 331 335 333 338 340 343 343 346 347
339 340 343 345 348 349 347 346 346 346 344 340 338 342 345 349 350 348 340 336 335 332 332 331 330 328 325 329 329 325 316 314 320 326 329 330 329 330 333 337 344 344 343
340 343 343 346 346 348 347 345 343 341 335 333 334 331 333 338 336 337 336 336 333 332 331 331 332 329 327 323 327 331 327 326 317 316 323 325 327 328 328 332 333 338 342
342 344 345 347 346 347 346 347 344 336 332 331 329 327 328 328 332 335 337 334 332 330 330 329 328 327 328 326 325 324 323 323 322 318 315 318 322 325 327 327 329 333 335
343 344 347 346 346 347 346 344 342 334 327 327 325 324 324 323 331 336 335 331 330 329 329 328 328 327 327 326 325 324 322 319 318 318 316 315 316 320 322 325 325 326 330

GFSSE_sfc_thetae_018.txt.gz
Theta_e
347 351 359 360 360 359 359 357 357 359 360 363 363 363 365 365 366 367 366 365 365 363 363 361 361 361 360 360 358 358 358 357 357 358 358 356 355 355 355 352 352 349 354
350 354 360 359 361 360 360 360 359 359 362 364 364 365 365 364 364 365 366 364 364 363 362 361 361 361 359 358 357 357 357 356 356 358 358 356 354 353 355 353 354 349 353
350 353 357 361 360 361 360 360 359 362 363 365 366 366 366 364 364 364 364 364 363 362 361 361 360 359 359 358 356 355 355 355 355 357 357 354 353 355 355 352 354 353 355
353 353 355 362 362 363 363 364 365 364 363 367 367 367 366 365 364 364 363 362 361 361 360 360 359 358 357 356 357 355 354 353 353 354 354 354 352 355 353 351 354 355 354
353 355 358 363 364 363 364 365 366 366 364 365 365 364 364 363 363 363 361 360 360 360 360 359 358 357 357 356 356 355 356 354 353 352 352 352 352 353 351 352 352 352 353
354 357 361 364 363 363 364 365 364 364 364 365 364 363 362 362 362 362 360 360 359 359 359 358 357 357 357 357 357 357 355 351 350 350 351 352 351 353 350 351 352 349 351
353 358 359 364 364 365 365 365 365 363 362 364 364 362 362 362 362 361 360 359 358 358 358 357 357 357 356 356 356 356 357 354 347 349 351 354 352 354 352 351 353 353 353
354 356 359 363 365 365 363 363 364 364 364 364 363 363 363 362 361 361 359 358 357 357 357 357 359 359 359 358 358 358 358 356 354 352 349 353 352 355 353 352 352 354 352
357 355 356 358 361 363 366 363 363 363 362 363 364 364 363 362 361 360 360 359 358 358 359 360 360 361 359 359 358 359 358 356 354 354 352 352 354 354 356 354 352 352 353
355 355 355 355 357 358 359 362 362 362 362 363 364 363 362 361 360 360 361 359 359 359 359 361 361 360 361 359 359 359 357 355 354 353 353 352 354 356 354 355 353 354 355
354 354 355 355 355 357 358 358 363 362 361 362 362 362 363 357 357 359 358 357 358 358 360 360 362 361 359 357 358 360 356 356 353 352 353 352 354 357 355 354 354 354 354
348 353 354 354 355 356 360 357 357 356 358 358 358 356 357 357 355 356 351 357 357 359 358 361 362 361 357 355 354 355 351 352 354 352 352 351 355 356 358 355 355 353 355
347 351 354 354 355 356 356 355 356 355 355 356 355 355 354 355 352 352 353 352 350 353 354 355 355 356 354 353 350 349 350 347 352 354 353 355 350 357 357 357 355 354 354
348 350 353 354 354 354 355 355 354 354 354 353 353 353 351 350 350 349 347 350 350 351 351 351 349 351 352 351 350 351 352 351 348 347 351 356 357 356 358 360 358 354 352
345 348 350 352 353 353 352 354 354 354 354 352 352 352 351 350 350 350 347 350 350 351 348 351 351 351 349 350 351 351 350 351 351 350 349 354 359 358 358 359 359 358 355
345 347 348 350 352 351 351 351 353 352 353 353 353 353 352 351 351 349 348 349 347 352 351 351 350 350 350 349 349 348 349 349 350 350 349 351 355 359 358 357 358 359 358
346 348 347 349 351 350 351 351 351 352 353 352 351 352 352 351 350 352 348 348 348 349 349 349 348 347 347 347 346 346 347 348 347 349 351 351 352 353 356 357 359 359 357
346 345 349 351 350 350 350 350 350 351 352 349 350 350 351 352 352 350 349 347 348 348 348 348 347 347 345 344 343 344 344 345 346 346 349 348 349 350 353 356 357 357 357
346 346 347 351 350 350 350 350 351 353 351 351 351 351 351 352 353 351 350 346 349 348 347 347 346 345 342 342 343 343 342 341 342 343 343 346 347 350 351 352 355 358 357
345 346 348 350 351 349 349 350 351 351 351 352 351 351 352 353 354 350 349 349 350 345 343 342 341 341 341 341 339 337 337 339 340 340 341 344 345 347 349 350 352 353 354
344 345 347 347 348 347 347 346 347 347 349 349 349 352 351 352 352 349 349 346 345 341 340 339 338 338 337 338 335 334 334 335 336 336 339 340 338 343 345 348 350 351 351
343 345 346 347 347 348 348 347 347 347 347 348 349 350 352 351 351 347 345 345 342 338 338 338 337 334 335 337 332 327 325 328 332 334 336 336 334 338 339 342 346 348 350
341 343 345 347 347 349 348 346 347 348 346 344 343 347 350 350 350 349 346 342 340 337 336 337 336 334 331 334 334 331 323 321 326 331 334 335 333 335 336 337 338 343 346
339 343 345 346 347 349 348 346 345 343 342 342 339 340 341 345 344 345 341 340 337 336 336 336 336 335 333 330 333 335 333 331 324 322 328 330 331 331 333 334 335 337 338
340 340 342 343 345 348 348 348 345 341 340 335 334 333 335 336 337 339 339 337 336 336 335 336 334 334 334 332 331 331 330 329 329 324 318 324 326 330 332 332 332 333 332
340 341 342 342 344 346 347 347 345 342 334 332 330 328 328 330 335 338 339 338 335 334 335 334 334 333 333 332 332 331 329 326 325 325 322 322 322 325 328 329 329 329 327

GFSSE_sfc_thetae_021.txt.gz
Theta_e
349 354 358 359 358 358 357 358 358 359 359 360 362 363 364 364 365 364 365 364 364 363 361 361 361 361 361 360 359 359 357 356 358 358 358 357 356 353 353 352 351 349 354
352 356 360 359 358 358 357 357 359 359 361 363 363 363 363 363 364 365 364 364 363 362 360 361 361 360 360 359 358 357 355 356 357 357 357 356 353 355 354 353 348 352 355
352 357 358 361 361 361 360 360 359 360 361 364 364 365 362 362 363 364 364 363 363 362 361 360 359 359 359 359 358 356 355 356 355 355 355 352 353 354 352 351 353 354 354
352 356 357 360 362 361 360 360 361 361 362 365 366 365 363 363 364 364 363 362 362 361 360 360 359 359 358 358 358 356 356 355 354 355 354 353 351 355 351 354 354 355 352
356 359 360 361 363 362 362 361 362 365 363 365 365 364 364 364 363 362 361 361 361 361 360 359 359 358 358 358 358 357 356 353 354 353 356 356 355 352 350 354 353 354 352
357 359 361 362 362 362 362 362 364 365 365 365 365 363 362 362 362 361 360 360 360 359 359 358 358 358 357 357 357 357 356 352 349 355 357 355 353 352 351 355 350 350 354
356 360 361 362 363 365 364 364 365 363 362 363 363 362 362 362 361 360 360 359 359 358 358 357 358 358 358 357 357 356 357 355 355 356 357 356 355 353 350 353 351 351 354
355 359 361 362 363 366 363 363 364 363 362 363 362 362 362 362 361 360 358 358 357 357 358 358 360 359 359 359 358 358 357 356 355 357 355 358 354 353 353 351 353 353 353
357 358 360 362 364 364 366 364 364 364 363 363 363 363 362 361 360 359 358 358 358 358 360 361 360 358 356 357 357 356 357 355 358 359 354 357 355 354 355 353 352 353 352
356 358 361 363 362 361 362 363 363 363 363 363 363 362 362 360 359 359 361 358 359 360 359 360 360 358 358 357 358 354 354 354 358 359 360 356 355 355 354 355 352 353 353
355 357 359 360 361 362 361 360 362 362 362 363 363 362 362 360 360 360 359 358 356 358 359 361 360 360 358 356 359 359 357 358 359 360 359 353 354 357 356 355 353 356 354
351 355 357 358 358 360 357 362 362 360 358 360 362 364 362 361 362 360 359 356 360 360 360 360 359 357 356 358 358 355 356 355 360 360 358 353 355 357 357 356 354 354 355
351 353 357 360 362 361 360 362 361 360 359 361 364 364 363 361 360 360 359 359 360 357 359 358 358 358 356 357 356 355 356 357 356 358 357 355 354 357 357 358 355 355 353
350 352 355 359 362 362 360 358 359 358 358 358 358 363 360 357 358 358 359 358 360 360 361 359 358 359 359 358 357 356 356 357 356 357 358 356 358 355 357 358 357 356 354
349 352 356 359 360 362 362 358 357 358 356 359 358 359 358 355 357 356 360 361 361 360 359 362 360 358 357 356 357 356 353 355 356 356 356 352 357 360 358 357 357 358 356
351 352 356 358 361 363 361 363 360 360 359 359 359 358 360 358 358 357 359 359 365 359 359 361 360 360 357 356 354 355 354 353 353 354 355 358 353 357 360 358 359 358 357
351 352 353 356 359 361 360 360 360 360 360 358 359 362 362 359 360 360 363 361 359 359 360 358 360 356 356 354 353 351 350 349 348 350 350 353 356 354 355 358 358 360 357
351 351 354 352 355 359 360 360 359 360 360 359 365 362 363 363 364 363 359 365 358 359 356 358 356 353 352 350 350 348 348 347 347 348 349 350 350 351 354 355 358 359 359
354 354 354 355 355 358 360 360 361 363 361 360 361 367 362 363 363 362 366 365 357 357 362 356 355 352 348 346 344 343 345 345 346 346 348 351 351 351 352 357 355 356 357
354 355 356 356 359 361 360 361 360 361 361 361 361 361 364 365 363 364 363 360 358 356 353 352 350 349 346 345 341 340 343 347 345 347 348 344 349 350 353 356 356 356 352
354 354 355 356 361 360 356 355 356 355 358 360 361 363 363 363 362 362 357 356 356 352 352 352 348 345 343 347 340 337 342 345 342 344 345 340 341 342 347 351 354 356 357
352 354 355 358 361 361 358 358 358 358 358 360 361 362 363 362 363 361 359 355 355 349 350 350 348 340 343 347 337 337 330 336 342 342 341 336 337 339 339 341 346 350 353
350 353 355 360 362 361 362 359 358 358 358 356 357 357 359 361 362 360 357 355 354 351 344 348 346 343 336 343 343 337 329 326 331 341 341 337 336 334 337 338 340 339 338
349 353 357 359 361 360 362 358 358 353 351 354 355 356 359 361 360 359 356 355 354 347 347 346 346 345 343 336 342 343 342 339 329 327 334 335 334 331 335 331 332 332 332
348 350 354 359 360 362 361 362 356 355 355 356 353 352 354 356 358 357 356 352 350 345 348 346 344 344 343 341 340 339 340 339 337 330 322 326 332 331 332 333 331 330 331
347 348 352 357 360 361 359 359 359 358 356 351 349 347 347 347 346 350 349 349 350 347 345 344 344 344 343 344 341 338 334 331 330 330 327 328 326 330 329 334 334 332 330

GFSSE_sfc_thetae_024.txt.gz
Theta_e
348 355 357 358 359 359 358 359 358 357 358 360 361 363 365 364 364 365 365 364 363 362 363 363 362 361 361 359 359 358 357 358 360 359 357 357 354 355 352 351 352 348 355
353 356 358 359 358 359 360 360 360 359 359 361 363 364 363 363 365 365 364 363 363 362 362 362 362 361 360 359 358 357 356 357 357 357 356 356 357 354 353 349 352 353 355
354 358 359 360 359 359 360 360 361 361 361 361 362 362 362 363 364 364 364 363 363 362 361 361 360 360 359 359 357 356 355 355 354 355 352 352 352 354 351 354 353 355 355
354 357 359 360 360 361 361 360 361 361 360 363 363 363 363 363 364 363 362 363 363 362 361 360 359 359 359 358 358 356 355 354 354 352 355 348 350 353 354 355 355 354 356
356 357 361 360 362 361 361 361 362 362 362 362 364 363 363 364 363 362 361 361 362 361 360 359 359 359 358 358 358 357 355 354 353 354 356 352 351 350 354 354 355 352 353
357 358 361 362 362 363 362 363 363 364 363 363 362 363 363 362 362 361 362 361 360 360 359 358 358 357 357 356 356 356 356 353 351 357 357 352 352 352 355 352 352 354 354
355 358 362 364 363 363 362 363 363 363 363 363 363 362 362 362 361 361 361 359 358 358 358 358 358 358 358 358 357 356 356 355 358 358 359 356 354 352 352 352 350 351 354
354 358 360 361 363 363 362 363 363 363 363 363 362 362 362 361 360 360 359 357 357 357 358 359 359 357 356 356 357 356 355 355 357 358 357 359 355 353 352 354 353 353 354
358 356 359 361 363 363 364 362 362 362 362 362 362 362 361 360 360 359 358 357 358 359 360 359 359 356 354 355 356 354 354 354 359 359 355 358 355 354 355 353 356 354 354
356 356 361 364 362 360 361 363 364 364 363 362 363 362 361 360 359 359 359 358 357 358 359 359 359 356 356 356 357 356 357 357 358 357 359 358 357 355 356 355 353 354 353
354 355 359 360 360 361 361 362 363 363 363 363 363 362 360 358 360 357 359 356 355 359 359 359 359 357 356 356 356 356 358 356 358 356 358 355 356 357 355 357 353 355 353
352 354 356 356 358 360 357 363 361 360 359 360 360 363 359 361 362 359 360 359 360 358 359 357 356 358 358 356 358 359 356 355 355 359 357 355 355 357 357 357 355 356 355
353 353 354 356 359 359 358 358 358 358 357 359 364 363 360 360 362 361 362 360 363 360 357 359 358 357 357 357 357 355 356 355 355 357 356 357 357 358 359 359 357 355 355
352 354 356 359 360 360 359 357 357 356 357 356 356 363 359 358 359 359 359 360 360 360 360 360 358 360 358 360 357 357 356 355 355 357 356 356 358 357 358 359 359 357 355
351 354 356 360 363 363 363 357 356 356 355 356 356 358 357 357 359 360 362 358 359 357 358 360 358 357 358 357 357 357 356 356 356 355 355 357 357 360 358 359 359 358 357
350 352 356 359 361 363 362 363 359 357 356 356 355 356 361 359 359 365 357 357 358 357 360 360 358 357 357 356 355 355 356 356 355 356 354 358 356 358 360 359 359 359 358
351 353 355 358 360 363 363 363 361 358 357 356 357 362 363 363 362 367 356 355 355 361 363 363 358 357 355 353 352 352 353 353 349 350 349 349 355 357 358 360 362 359 361
353 354 356 355 358 362 363 362 360 359 359 359 360 360 364 363 367 366 369 354 356 360 358 357 357 349 345 344 344 345 346 345 343 345 345 347 344 347 356 359 358 357 357
354 356 356 357 356 359 363 363 364 366 368 361 371 362 363 363 362 360 357 357 362 358 356 355 349 349 342 340 337 337 341 342 343 344 348 350 349 348 346 357 356 355 356
356 357 358 357 360 363 361 364 368 371 371 362 361 368 364 361 362 361 357 358 359 359 357 353 352 346 341 341 338 337 342 345 348 350 347 349 350 351 351 356 354 353 355
356 357 359 359 363 363 360 358 357 356 368 361 363 366 364 364 363 363 356 357 358 356 355 357 348 341 337 343 338 338 341 343 346 348 349 346 344 349 350 352 354 352 355
355 358 360 361 363 364 361 361 359 359 358 359 361 364 365 364 364 360 361 358 360 353 357 354 347 336 340 345 336 334 331 335 340 345 347 342 340 345 346 346 351 354 356
354 357 360 363 364 366 366 363 363 363 362 359 359 359 361 365 364 364 361 359 359 355 346 348 346 343 334 341 343 336 329 327 332 339 342 338 339 336 338 341 341 340 342
353 358 361 364 366 365 369 367 365 356 352 352 354 354 356 362 362 362 363 361 361 351 348 345 346 343 343 335 341 344 342 340 330 329 334 336 337 335 336 334 333 335 336
352 354 359 364 368 370 371 370 362 360 356 356 356 359 361 362 363 359 363 360 357 345 349 350 348 346 341 338 340 340 342 339 341 329 325 330 334 335 335 337 335 336 335
350 352 356 363 370 369 368 367 366 366 361 355 358 355 350 350 356 361 360 358 353 347 350 347 348 345 344 344 340 341 335 332 332 330 328 330 330 333 334 334 334 336 336

GFSSE_sfc_thetae_027.txt.gz
Theta_e
350 354 357 359 359 359 358 358 358 359 363 364 366 366 365 365 366 365 364 363 362 363 362 362 362 361 360 360 359 358 358 359 359 357 357 355 355 353 350 350 352 350 357
353 357 359 359 359 359 359 358 358 359 361 364 365 364 363 364 365 364 363 363 362 362 361 361 361 360 360 359 358 356 357 357 357 355 356 356 356 354 352 353 354 354 356
354 356 358 359 360 360 360 360 359 360 359 361 362 362 364 364 364 364 363 363 362 361 361 361 360 360 359 359 358 356 356 355 354 355 355 354 352 351 354 353 356 356 355
351 353 355 361 360 361 361 362 362 361 360 361 362 362 364 364 364 362 362 362 362 361 360 360 359 359 359 358 358 357 355 353 353 354 356 349 347 354 356 355 355 354 356
354 355 358 361 361 361 361 362 362 361 361 361 361 362 363 364 363 361 361 361 361 360 359 359 358 358 357 356 356 356 355 353 352 354 353 349 348 352 356 356 353 353 353
355 355 358 361 362 362 362 363 363 363 363 362 361 363 363 362 361 361 361 360 359 359 358 358 358 358 357 355 355 355 354 354 351 357 355 350 349 355 354 355 356 355 355
355 358 359 362 363 363 364 364 364 364 363 361 362 362 362 361 360 361 359 358 358 358 359 359 359 357 357 357 356 354 355 356 356 358 356 354 349 354 357 349 352 354 355
353 358 360 364 364 363 364 363 363 362 362 362 361 361 361 361 360 358 357 357 357 359 360 360 358 356 355 356 355 355 356 357 355 359 358 357 355 353 357 353 351 355 353
354 356 359 361 364 363 363 362 362 362 362 362 361 361 361 360 359 356 356 357 358 359 359 358 358 355 354 355 355 353 355 358 357 358 355 358 358 355 353 356 357 354 355
355 355 358 360 361 364 361 361 361 361 361 361 361 361 360 361 360 358 358 358 355 356 357 358 358 355 354 356 356 358 358 359 357 355 357 356 359 356 357 354 356 355 355
354 355 356 355 357 359 358 359 363 363 362 362 363 362 360 357 359 362 360 356 353 360 359 359 359 359 359 359 360 361 363 356 354 356 355 357 359 356 356 356 353 355 354
352 353 355 356 356 357 355 363 362 360 359 359 359 363 357 359 360 358 358 358 360 361 360 360 360 361 362 357 358 364 355 354 353 355 357 359 358 358 357 358 354 355 354
353 353 355 357 358 356 362 357 357 357 357 358 362 362 360 360 360 358 358 362 360 363 359 359 358 357 357 356 358 356 354 355 352 354 357 360 358 358 359 359 357 356 357
351 351 353 356 360 360 357 355 355 353 354 354 357 363 361 358 357 361 360 359 363 362 359 364 357 362 360 360 358 356 358 354 354 354 358 361 359 359 359 360 359 356 356
350 351 353 357 361 361 362 356 355 354 354 354 355 359 357 356 362 363 363 357 357 357 359 356 359 361 356 357 356 357 354 360 355 354 357 360 360 360 359 360 360 360 358
352 352 354 357 361 362 364 365 359 357 356 355 354 355 362 360 365 361 357 355 359 357 359 360 359 358 356 359 356 353 356 356 356 354 353 358 361 362 361 360 360 359 359
351 353 354 357 359 362 363 362 360 357 355 354 354 360 360 364 364 363 359 357 358 364 364 361 362 363 357 355 355 354 352 353 349 347 347 344 355 362 362 360 363 362 359
351 353 355 355 357 361 365 363 359 357 356 357 358 360 365 364 366 363 357 356 359 363 361 359 357 357 347 344 343 341 342 343 342 342 342 344 343 343 360 361 361 361 359
353 354 355 357 356 360 366 363 362 367 359 360 362 357 364 363 365 363 357 363 365 359 356 359 354 352 344 338 336 336 340 340 341 342 344 348 347 345 343 359 359 360 356
353 355 358 357 362 367 363 366 361 364 364 362 358 359 365 364 362 367 360 360 360 355 358 353 353 347 341 341 338 336 339 341 343 344 344 344 348 347 349 353 354 355 359
352 355 357 361 370 363 357 356 357 354 362 359 360 361 365 364 364 367 359 358 358 356 355 354 348 347 337 344 338 338 337 341 342 342 345 341 344 346 348 350 353 353 355
352 356 361 364 371 367 361 363 360 360 355 358 359 362 366 363 368 361 364 361 359 352 355 351 348 339 335 344 335 333 330 335 339 340 341 339 339 341 343 347 351 352 354
351 356 363 369 371 370 371 367 363 362 359 355 352 352 356 360 359 364 363 360 361 353 348 350 345 343 334 338 343 335 329 328 332 340 342 338 339 337 338 342 340 341 344
351 356 365 370 372 371 373 366 369 356 351 349 352 352 354 356 356 362 360 358 359 353 352 346 344 343 342 335 338 341 341 339 330 329 337 336 337 335 336 335 335 337 337
351 353 360 371 373 373 373 371 362 362 353 352 351 365 361 365 358 354 357 361 357 349 352 347 346 346 341 337 337 336 341 336 338 329 325 331 334 334 334 334 334 334 336
350 352 356 368 374 376 374 373 373 371 362 354 355 355 351 349 353 357 356 359 362 352 348 347 348 345 344 344 341 338 333 331 331 330 328 331 330 332 334 334 334 335 333

GFSSE_sfc_thetae_030.txt.gz
Theta_e
348 352 356 359 359 361 361 360 363 366 366 366 367 367 368 368 368 367 366 366 366 365 365 363 362 360 360 359 359 359 360 359 358 357 356 356 355 351 350 351 350 352 358
351 354 358 359 360 360 359 360 362 364 365 366 367 367 367 367 367 366 366 365 365 364 362 361 360 360 359 359 358 357 357 357 358 357 356 356 354 353 354 358 359 355 358
352 354 357 361 361 360 359 360 362 363 365 366 366 367 366 366 366 366 365 364 363 362 361 360 360 360 359 358 357 357 355 353 354 354 355 354 348 354 355 358 358 357 357
351 353 354 362 361 361 362 362 363 362 362 365 366 366 366 365 364 363 363 362 361 360 360 359 359 359 359 358 357 356 354 354 355 354 354 352 348 356 355 357 356 357 357
350 353 358 361 361 362 364 364 365 363 364 365 365 364 364 363 361 362 362 361 360 359 359 359 358 358 357 356 356 356 354 353 354 356 355 349 346 355 356 356 354 355 356
351 353 359 362 362 362 365 364 364 364 363 364 364 363 363 362 361 361 360 359 358 359 359 359 359 357 356 355 354 354 354 355 353 357 353 351 349 356 356 356 357 355 356
352 353 357 363 364 365 366 365 365 364 362 364 363 362 362 361 361 360 359 358 358 359 360 360 358 356 356 355 354 355 356 355 357 356 356 346 353 358 355 356 355 357 357
352 354 356 363 365 365 366 366 365 363 362 362 362 361 361 360 360 357 357 356 357 359 359 359 357 355 354 354 354 357 358 355 356 355 355 347 355 359 350 351 355 356 354
354 356 359 359 363 365 366 364 363 362 362 362 361 361 361 360 359 358 356 356 356 357 357 358 356 355 355 356 357 357 361 360 357 356 356 351 357 357 357 354 354 355 355
352 356 360 362 361 361 360 363 362 362 362 360 360 360 362 361 360 359 362 359 356 356 357 358 359 359 360 362 363 363 363 363 348 347 356 352 358 357 355 357 354 356 356
350 352 354 358 361 359 358 358 362 361 361 360 362 363 363 357 358 359 364 360 358 360 360 361 362 365 364 365 365 365 359 356 353 350 355 357 359 359 358 355 356 355 354
347 351 352 353 354 358 353 361 362 359 358 359 361 363 359 355 359 360 364 365 362 359 363 362 365 362 359 357 355 362 357 353 344 343 353 359 361 359 359 357 356 356 354
353 352 354 356 357 355 358 360 359 359 359 360 364 366 367 363 359 356 359 358 362 361 355 359 354 355 359 356 356 354 352 352 347 340 354 359 362 360 359 359 356 356 355
351 352 353 357 359 360 357 357 359 357 359 358 361 369 369 365 362 365 363 356 362 360 356 351 356 360 359 361 357 356 355 351 348 353 354 361 362 361 360 360 359 356 358
349 351 355 360 365 370 368 361 359 362 355 358 359 363 361 363 356 359 358 362 362 359 359 354 352 361 356 358 358 357 355 355 354 354 354 352 362 362 361 361 361 360 357
350 350 356 357 364 369 370 376 373 368 352 360 353 360 367 368 355 356 366 363 355 357 357 363 362 361 362 359 358 359 355 357 355 352 356 357 362 362 363 363 362 362 360
351 352 355 357 361 364 367 369 370 365 357 360 358 363 367 369 368 370 364 364 357 357 366 357 358 356 357 357 351 358 354 355 352 348 346 345 356 362 363 362 361 362 361
352 355 358 352 359 363 366 368 362 358 364 357 361 364 357 368 371 370 366 362 365 366 355 355 359 353 350 346 343 347 346 344 345 344 345 347 347 348 359 361 363 361 361
353 357 356 359 357 362 365 365 365 365 366 370 356 366 367 361 368 364 362 359 362 357 360 355 357 350 346 342 340 342 345 343 344 341 345 347 347 346 350 359 360 361 359
352 358 359 359 366 364 363 367 365 361 362 364 368 364 365 367 363 361 363 362 359 360 358 355 348 352 345 345 339 338 341 343 346 347 341 344 346 346 349 352 353 353 356
352 356 359 362 366 366 363 357 358 360 361 362 361 370 365 365 365 365 366 359 356 359 357 353 353 346 344 350 342 341 344 343 343 343 340 343 344 344 348 352 351 352 354
352 355 360 362 369 366 362 361 358 358 357 360 361 364 363 365 364 366 366 359 357 352 355 356 350 345 341 349 339 337 330 338 336 338 343 339 338 341 346 347 348 349 352
351 356 359 362 367 364 367 362 364 369 370 355 357 356 363 364 365 365 362 363 358 358 355 355 351 347 340 346 344 338 332 327 334 341 343 338 338 338 341 341 339 340 345
351 358 361 363 365 366 365 365 364 356 356 358 362 357 363 365 363 364 366 363 358 359 355 353 350 347 345 338 344 344 342 338 332 327 337 338 336 335 334 337 335 336 336
351 355 360 363 365 366 365 367 365 360 353 360 358 364 364 366 362 363 362 363 364 358 354 350 350 348 347 343 342 341 342 339 340 331 327 329 336 336 336 334 335 337 336
350 354 358 363 364 366 367 365 366 361 358 359 361 359 358 358 359 365 360 364 362 357 354 348 349 348 346 346 344 343 338 336 332 335 330 330 329 334 336 336 334 336 336

GFSSE_sfc_thetae_033.txt.gz
Theta_e
346 352 357 358 359 361 362 365 367 368 368 368 368 368 367 367 366 366 367 366 366 365 362 361 360 359 359 359 359 360 360 358 357 356 356 354 352 353 353 354 358 354 356
347 353 358 360 361 362 364 365 366 368 367 368 368 368 366 365 365 366 366 365 363 363 361 360 360 359 358 358 358 357 359 358 358 356 355 353 352 356 359 359 359 354 354
349 353 356 361 361 361 363 364 365 366 365 367 368 368 367 365 365 366 364 362 362 361 360 360 359 358 358 357 356 356 355 357 355 355 357 348 349 356 357 359 359 356 354
351 352 354 361 362 360 361 364 365 363 363 366 367 368 366 363 365 363 362 361 360 360 359 358 358 358 358 357 356 354 354 354 353 354 354 348 348 357 358 358 359 356 355
351 352 356 362 364 362 361 363 364 365 363 364 366 366 364 362 362 362 361 360 359 359 358 358 357 356 355 356 355 356 356 356 355 356 351 345 347 355 356 357 357 358 356
350 355 361 363 363 364 363 363 362 362 362 365 366 364 362 361 362 361 360 359 358 359 359 359 357 356 356 356 355 355 357 358 356 353 345 352 347 356 354 357 357 357 357
349 355 358 365 364 366 364 363 363 362 362 365 365 363 362 361 361 360 358 358 358 359 360 359 357 355 356 356 357 357 357 356 354 351 344 348 350 359 358 357 356 357 357
349 353 356 364 365 365 364 364 364 362 362 365 365 363 364 363 362 362 358 358 357 358 358 358 359 360 360 360 362 360 356 358 350 350 347 348 358 355 355 355 357 357 357
350 352 355 358 361 366 367 365 364 362 362 363 363 363 364 361 360 360 361 359 357 357 357 357 362 363 361 362 362 359 360 357 341 346 345 347 361 353 351 355 356 354 357
351 353 354 356 357 357 358 364 363 363 363 362 361 361 362 361 360 360 363 363 357 356 357 359 364 365 362 363 363 359 358 352 348 339 346 350 360 359 357 355 356 356 356
351 352 354 354 354 353 354 358 363 363 363 362 361 363 361 356 354 356 360 361 359 357 359 361 363 364 361 356 361 362 359 349 348 345 349 354 359 357 357 358 356 356 357
346 350 353 353 353 352 355 353 354 355 355 354 355 355 356 353 351 353 358 362 360 361 355 365 365 361 356 352 350 354 350 348 341 341 345 350 358 359 356 356 357 355 356
345 348 352 354 354 350 349 352 354 353 353 353 353 355 353 356 353 353 352 352 352 353 354 356 354 352 355 351 354 353 343 340 339 344 349 354 357 360 360 356 355 356 354
345 345 347 347 350 349 351 351 353 353 352 352 354 356 353 353 350 350 352 349 353 356 350 348 351 350 353 353 350 353 347 345 338 347 348 358 361 359 361 359 356 356 355
345 347 349 349 350 353 353 350 351 353 354 352 355 353 351 350 349 352 351 353 350 354 351 345 349 350 350 351 349 349 346 347 347 350 348 359 360 360 361 362 361 357 358
345 346 351 350 354 352 354 354 358 354 347 354 353 355 353 352 350 352 352 353 350 350 352 352 350 349 352 350 351 350 347 348 349 351 350 353 359 359 360 360 362 361 359
343 346 350 352 354 353 353 355 352 353 349 350 348 356 354 353 351 351 350 350 352 352 354 350 350 349 349 348 340 349 348 345 347 350 351 351 354 361 361 363 362 362 362
343 348 350 353 351 351 353 356 352 350 349 348 352 353 357 358 355 352 351 350 354 352 347 348 347 342 341 334 329 331 336 333 335 334 335 337 347 351 359 360 358 360 361
343 347 347 349 351 351 354 357 353 352 353 353 352 354 352 357 358 354 353 351 355 352 352 348 346 341 331 329 332 331 332 332 334 339 337 338 341 347 349 356 355 358 357
345 349 349 349 352 353 356 354 355 352 353 355 351 351 359 354 359 353 354 353 351 350 346 344 341 342 334 332 335 332 332 333 332 337 337 341 341 344 346 351 347 349 357
347 348 347 348 354 353 353 352 351 349 350 351 353 356 356 355 355 353 353 353 353 349 345 346 337 330 330 335 328 328 333 332 331 338 334 332 335 342 347 346 346 349 351
344 348 347 350 356 353 354 353 349 350 350 351 352 356 355 356 355 354 352 350 348 346 346 339 333 331 330 334 325 324 323 329 333 335 330 330 330 339 340 339 339 345 346
343 348 349 352 356 355 356 354 351 353 354 351 353 354 356 356 357 355 356 350 349 347 343 338 336 331 326 331 329 327 322 319 328 335 331 328 329 330 333 331 331 334 345
344 350 351 353 356 354 355 351 347 346 345 347 352 353 352 356 356 355 353 348 348 346 341 335 336 332 329 323 332 334 329 326 322 320 329 327 326 326 330 328 327 329 337
346 348 353 353 357 353 354 354 349 346 348 346 344 349 353 352 354 354 354 351 347 346 340 336 332 333 333 331 331 331 329 328 326 321 318 323 331 328 326 328 329 328 331
346 350 352 352 353 355 352 353 353 350 344 342 348 347 349 345 348 353 352 350 347 340 336 336 338 333 334 332 329 329 327 325 324 324 319 318 321 325 330 327 327 328 328

GFSSE_sfc_thetae_036.txt.gz
Theta_e
344 351 358 360 359 362 365 367 366 368 369 368 368 367 365 364 364 365 365 364 362 361 361 360 359 359 358 358 359 360 358 357 356 356 353 353 354 355 357 357 358 351 356
347 352 359 361 362 364 366 366 367 366 367 367 367 365 363 362 363 365 364 361 361 361 360 360 359 359 358 358 358 359 357 356 356 355 353 350 356 355 356 358 356 352 357
348 351 355 361 363 364 365 366 365 365 365 367 366 365 364 363 363 363 362 361 360 360 359 359 359 358 358 357 358 357 356 356 355 355 352 347 349 356 358 357 356 354 356
349 351 354 361 363 362 364 366 366 364 364 366 366 365 364 363 362 362 361 360 359 359 358 358 358 358 357 357 357 356 355 354 354 354 350 348 350 356 358 356 353 352 354
350 351 354 363 363 362 362 364 365 364 363 364 363 362 362 362 362 361 360 359 359 358 358 358 357 356 356 355 356 357 355 355 357 354 351 345 346 354 356 357 355 356 355
350 354 360 362 361 361 361 361 362 362 362 363 363 362 361 362 361 360 359 359 359 359 359 358 357 357 355 355 356 356 358 362 354 344 346 352 347 355 355 357 356 355 354
350 355 357 365 365 363 361 361 361 362 362 363 363 362 361 361 360 359 358 358 358 359 359 358 356 356 356 356 357 357 362 358 351 347 348 347 349 358 358 357 356 356 353
352 355 358 364 366 365 362 363 362 361 362 363 362 362 361 361 359 358 357 357 357 358 357 358 356 356 356 357 359 359 358 353 350 348 349 349 357 359 358 357 356 357 352
353 353 356 357 360 364 365 364 362 361 362 362 362 362 361 360 359 357 356 357 357 357 357 357 358 360 361 361 361 360 354 347 343 342 349 348 358 358 355 357 357 357 356
350 352 353 355 357 358 360 364 362 362 362 362 362 361 362 361 360 358 363 360 358 356 356 357 359 362 363 356 361 359 351 351 345 339 345 350 358 353 354 356 355 356 356
349 350 353 353 354 355 355 359 363 362 362 362 360 361 362 355 354 356 358 361 360 357 359 359 360 363 357 350 358 359 354 344 345 344 348 353 359 356 353 356 355 356 356
345 349 352 353 352 351 357 353 354 355 355 353 354 353 355 354 352 356 358 362 360 360 353 361 364 359 358 347 351 358 344 345 344 342 345 355 358 357 359 355 357 356 356
347 350 351 352 351 350 350 350 351 351 351 350 351 352 351 354 350 354 349 351 348 358 352 355 353 350 352 350 350 347 348 344 338 342 347 357 359 358 356 357 357 356 357
346 348 350 351 350 349 346 350 350 351 350 348 350 351 350 350 347 348 347 348 347 352 349 346 350 348 349 351 348 344 340 341 337 343 347 356 357 360 359 356 356 357 354
345 347 349 351 349 349 347 348 349 351 351 350 349 351 352 347 349 349 349 350 350 350 347 344 346 347 349 349 349 347 343 344 340 348 345 357 359 362 360 360 357 356 355
344 343 348 346 350 348 348 346 348 350 352 351 351 352 352 348 348 350 350 349 347 351 348 349 348 348 349 348 347 348 344 345 344 347 348 349 361 361 362 362 361 358 358
344 345 346 345 349 349 349 348 351 354 349 350 352 351 353 348 347 347 347 347 348 350 350 348 347 345 341 337 331 344 345 345 348 347 348 347 352 360 359 361 361 362 360
345 345 347 349 349 349 350 352 349 349 346 347 348 351 351 352 351 349 346 346 351 348 346 345 344 339 336 330 326 328 333 339 339 345 347 346 347 350 356 358 357 359 360
344 344 347 347 349 350 348 351 348 347 346 348 350 350 352 355 353 350 348 348 351 349 346 345 344 336 328 327 332 329 329 330 332 336 334 338 338 347 347 356 356 357 356
343 346 348 348 348 348 349 351 349 347 349 351 349 349 352 356 356 351 350 351 350 351 345 342 338 335 330 330 330 330 330 331 330 335 337 343 345 345 346 348 348 347 356
344 346 347 347 346 346 348 347 346 345 346 348 349 349 353 353 354 352 348 350 348 344 345 341 333 327 326 331 324 322 328 330 329 334 332 336 341 343 343 343 345 346 351
341 345 345 347 348 348 349 350 347 348 349 346 348 353 352 352 352 352 348 348 347 347 342 335 329 327 328 330 322 322 322 325 331 330 329 330 337 340 340 342 342 344 343
341 344 345 347 349 350 351 350 347 348 346 347 348 351 352 354 354 351 350 348 345 342 340 334 331 326 323 326 326 324 320 318 326 330 329 328 332 331 331 331 338 343 340
342 345 345 347 351 351 351 350 347 345 344 344 346 350 352 353 353 353 351 347 346 344 338 335 335 331 324 322 328 331 326 323 321 320 326 326 325 329 326 326 329 342 339
342 345 346 347 352 352 352 350 348 343 345 347 345 351 347 350 352 353 350 345 344 342 337 335 329 331 329 327 328 328 325 326 321 320 317 322 325 324 325 325 325 335 336
341 345 346 346 349 351 352 350 348 345 343 343 342 343 345 348 349 350 352 345 343 340 337 333 330 330 332 329 326 327 324 323 323 323 316 317 318 322 325 323 325 325 330

GFSSE_sfc_thetae_039.txt.gz
Theta_e
346 351 358 359 358 362 364 364 365 366 366 365 364 362 362 362 362 363 363 361 361 360 359 358 358 358 358 359 358 357 356 356 355 352 354 356 356 357 357 358 354 351 357
348 351 359 360 362 365 363 363 364 366 364 364 363 362 362 362 363 362 361 361 361 359 359 359 358 357 358 358 359 357 357 356 355 352 350 354 355 354 356 356 354 353 356
347 352 355 362 363 363 363 364 364 364 363 363 362 362 362 362 361 361 360 360 359 359 359 358 358 357 357 357 356 355 355 355 355 352 352 348 348 357 358 356 355 356 356
348 349 353 360 363 363 364 364 365 363 364 363 363 363 362 362 361 361 359 359 358 358 357 357 357 357 357 357 356 355 355 354 354 354 348 347 351 357 357 355 353 354 353
348 350 353 361 363 362 363 363 365 364 363 362 361 362 362 361 361 360 359 358 357 358 357 356 356 355 356 356 355 355 356 356 357 353 346 343 348 355 357 352 353 355 356
349 352 356 361 361 361 362 362 362 362 362 362 361 361 362 361 360 359 358 358 358 358 358 357 356 356 356 355 355 354 361 356 353 350 345 351 348 354 357 356 356 356 356
348 352 354 362 362 361 361 362 361 361 362 362 361 361 361 360 359 359 358 357 357 358 358 356 355 355 356 355 355 360 359 356 347 347 347 346 347 356 357 357 355 353 355
350 353 355 361 363 361 361 361 361 361 362 362 362 361 361 360 358 358 356 356 357 357 357 356 355 355 355 356 356 358 356 356 349 349 348 346 355 358 357 355 355 353 353
353 354 355 356 357 361 362 361 361 361 361 362 362 361 360 360 358 356 356 356 356 356 356 356 357 356 356 356 356 357 354 352 343 345 349 349 359 358 357 356 356 353 354
351 352 353 354 355 355 356 362 361 361 362 361 361 361 360 359 358 358 361 358 358 356 355 357 357 356 359 359 358 357 351 350 341 340 347 349 357 356 355 357 356 357 355
348 350 352 353 353 355 356 358 362 361 362 362 360 361 361 353 353 356 357 360 359 357 358 358 359 357 354 356 360 358 352 342 340 344 344 352 357 353 354 356 354 356 355
343 348 351 351 352 353 358 353 353 353 355 354 353 352 354 352 351 355 357 361 358 359 356 355 362 358 355 348 352 357 345 342 343 341 345 352 357 355 353 355 355 355 355
345 348 351 351 351 351 353 349 351 351 350 350 349 349 349 352 350 350 351 348 347 356 348 353 351 349 350 349 348 348 346 344 342 339 343 353 357 358 357 355 357 356 355
344 347 350 352 350 348 347 349 349 348 348 347 347 348 348 347 347 348 347 346 346 350 347 343 348 347 347 350 349 345 345 343 338 339 342 356 359 358 357 358 356 356 356
344 347 349 350 349 348 344 346 346 347 348 348 347 347 350 348 347 347 346 347 347 348 347 345 344 345 347 348 347 346 339 341 338 343 344 354 358 358 359 357 356 356 354
345 346 349 348 349 348 345 344 345 347 348 348 349 348 351 348 346 346 347 347 346 349 348 346 345 344 345 346 343 345 343 342 341 343 345 345 357 357 357 357 358 356 355
345 346 347 348 348 346 345 345 345 348 351 350 351 349 351 348 346 348 347 347 347 349 347 347 346 341 335 331 328 339 344 344 347 344 345 344 349 357 359 358 359 359 357
344 344 347 349 348 347 345 346 347 348 348 350 352 349 350 349 348 347 345 344 348 346 345 343 342 338 332 330 327 328 329 342 341 344 345 345 345 347 353 359 357 358 358
343 343 344 346 345 347 346 348 347 347 345 345 346 348 349 350 350 347 346 346 349 346 344 343 341 335 326 326 331 327 328 329 329 333 344 342 341 346 346 353 355 355 353
343 344 344 345 345 347 348 348 346 344 344 349 347 347 350 351 353 349 348 347 347 348 346 342 336 333 327 328 328 327 329 329 329 333 335 343 344 343 345 346 348 347 355
343 343 344 344 345 346 344 345 343 342 343 347 346 348 350 353 354 351 347 348 346 345 344 339 332 326 324 329 320 320 326 329 330 330 333 338 341 343 343 343 344 345 349
340 341 344 345 344 346 346 347 345 344 344 345 349 347 349 351 352 353 346 346 346 343 341 337 328 325 326 328 319 320 320 323 328 328 328 337 338 340 340 341 341 341 342
340 341 343 345 345 345 346 346 345 346 344 344 344 347 350 351 353 351 348 346 344 343 340 333 328 325 323 324 324 323 319 316 323 328 325 334 334 333 331 336 340 341 339
340 343 344 345 345 345 346 346 344 342 340 342 345 346 349 352 351 350 348 347 344 341 338 333 332 328 322 323 326 329 323 323 320 319 324 325 325 329 326 327 334 340 336
341 341 344 344 346 346 347 347 346 343 344 342 343 345 347 349 350 351 350 348 343 341 338 334 330 329 322 323 326 326 323 324 319 320 317 321 323 323 326 323 326 338 336
341 341 343 342 345 347 347 348 346 344 341 341 341 342 345 345 348 349 350 345 343 341 337 333 329 329 330 328 326 324 322 321 321 320 315 316 318 320 323 323 323 327 333

GFSSE_sfc_thetae_042.txt.gz
Theta_e
346 351 357 359 360 362 366 365 365 366 365 365 365 363 363 362 363 361 361 360 360 360 359 358 357 357 359 358 356 355 355 355 353 354 356 356 357 358 358 355 357 352 356
348 352 357 358 363 363 363 364 364 364 363 363 364 363 362 362 363 361 360 361 359 359 359 358 357 357 358 358 358 356 355 355 352 350 355 355 356 357 357 354 357 355 354
347 351 353 361 363 362 363 364 363 362 361 361 362 362 363 361 361 361 360 359 359 359 359 358 358 357 357 357 356 356 356 355 353 351 355 350 352 357 356 356 357 356 356
349 351 352 361 364 362 363 364 364 361 361 361 362 362 362 361 361 360 359 358 358 357 357 357 357 357 357 356 355 355 355 354 354 352 351 352 352 358 356 354 356 355 355
348 350 352 363 365 362 362 362 364 364 362 363 363 362 361 361 360 359 358 358 358 358 357 356 355 355 355 354 355 354 354 355 355 351 348 352 354 355 355 352 353 355 356
349 351 357 362 362 362 362 363 363 362 361 361 361 361 361 360 359 359 358 358 358 359 358 357 357 356 355 354 354 354 356 358 359 349 348 354 352 357 354 357 356 357 356
348 351 355 363 363 362 362 363 362 362 361 361 360 361 360 359 358 358 357 358 358 359 357 356 356 356 356 355 355 358 357 357 351 349 350 352 351 358 356 356 356 356 356
349 352 354 361 362 361 361 361 361 361 361 361 360 360 360 358 357 356 356 357 358 358 357 356 355 355 355 356 355 357 358 355 352 350 350 350 355 357 356 355 353 353 357
352 352 352 353 357 360 361 361 361 361 361 361 361 360 360 358 356 356 356 356 357 356 356 356 356 355 356 357 356 358 356 354 349 351 350 351 357 359 357 354 355 350 356
350 351 352 353 353 353 354 360 360 361 361 361 360 359 359 358 357 356 361 358 358 356 356 356 356 356 357 358 357 356 352 352 343 348 352 352 358 357 357 356 355 352 355
349 349 351 352 351 353 354 356 361 360 361 360 359 360 360 356 355 357 358 360 360 357 358 355 357 357 354 358 357 357 353 343 341 345 349 353 356 355 355 356 355 356 354
344 348 350 351 351 353 357 356 355 353 355 356 356 355 356 356 354 356 358 361 362 360 359 357 356 357 352 352 355 355 351 345 345 345 349 353 354 353 353 355 353 355 355
344 348 351 351 352 353 355 353 352 352 352 353 353 352 352 355 353 351 353 352 351 353 352 354 353 353 353 353 352 354 352 346 347 345 346 352 356 355 353 353 356 355 355
342 347 350 351 352 350 350 350 350 350 350 350 350 350 349 349 350 350 350 351 350 352 352 349 352 350 352 352 352 351 348 349 345 341 344 355 356 356 358 356 356 356 355
341 345 349 351 351 350 347 348 348 348 349 349 349 349 350 350 348 350 351 351 350 352 354 351 349 350 351 351 351 350 345 346 344 344 345 355 357 357 356 356 356 356 354
343 344 347 349 350 349 347 345 346 347 348 349 348 348 349 351 349 349 350 351 350 351 353 351 352 351 349 348 347 350 347 344 345 345 348 347 356 357 357 354 355 355 355
344 345 346 348 350 347 345 344 344 346 349 348 349 350 351 352 351 351 350 349 350 350 352 352 350 348 340 335 336 345 348 348 348 346 348 348 349 357 356 359 356 357 356
344 344 346 349 348 346 344 344 345 346 347 350 352 352 352 353 351 350 350 349 351 351 351 349 348 344 336 334 336 333 335 346 348 348 348 349 349 350 354 356 355 358 355
344 344 345 347 346 346 345 345 346 347 348 349 349 351 351 352 352 350 349 349 352 350 349 348 346 341 333 335 336 334 335 336 336 337 345 350 349 350 350 351 357 355 352
344 345 344 346 346 347 346 346 347 346 347 347 347 348 351 352 353 350 350 350 352 351 348 346 343 337 334 334 329 330 335 334 338 338 341 344 346 345 350 351 353 353 354
343 343 342 344 344 345 345 344 345 344 345 347 350 351 351 352 355 353 352 351 351 350 349 347 338 336 332 332 330 329 334 334 335 336 342 346 347 348 349 349 350 351 351
340 342 342 343 344 344 346 347 347 347 345 348 351 350 351 353 355 353 351 350 351 347 346 344 338 333 332 332 327 327 327 332 334 334 337 343 344 345 345 346 347 348 349
340 341 343 343 344 345 346 347 346 346 346 345 347 349 349 352 354 356 353 349 350 348 345 342 336 334 332 331 330 331 324 324 329 333 332 339 341 340 339 343 346 346 345
341 342 343 344 345 346 346 345 344 344 343 344 345 348 351 352 353 354 352 350 349 347 344 340 336 334 331 331 333 332 329 330 327 326 331 333 333 336 335 335 343 345 342
341 341 342 343 345 345 346 346 344 344 344 344 346 347 347 351 353 353 352 351 348 346 345 340 337 334 329 330 332 331 330 328 327 327 323 328 331 331 334 332 334 344 342
341 342 342 342 343 345 345 345 345 344 342 342 342 344 346 348 350 352 352 351 350 347 344 340 338 336 332 333 333 332 330 329 327 326 324 324 327 330 331 332 331 335 343

GFSSE_sfc_thetae_045.txt.gz
Theta_e
347 353 358 357 359 363 366 365 366 368 367 366 365 363 362 362 362 361 361 361 360 360 358 358 359 359 358 356 356 355 355 354 355 355 356 358 358 358 354 355 355 353 357
350 354 358 359 362 365 366 366 366 366 365 365 365 363 363 362 362 361 360 360 359 360 358 358 358 358 359 358 356 355 355 353 351 355 355 356 357 358 355 357 356 354 357
349 355 356 362 364 363 365 366 364 363 362 364 363 363 363 361 361 361 360 360 360 359 359 359 358 358 357 356 356 356 355 354 351 354 355 353 354 356 355 357 358 356 355
351 353 357 363 364 363 364 365 365 361 362 362 363 362 361 361 360 360 359 358 358 357 357 358 358 357 356 356 356 355 354 355 351 354 354 353 353 356 355 358 357 356 355
351 353 361 364 365 362 363 363 364 362 362 362 363 362 361 360 360 359 358 359 358 359 358 357 356 355 355 355 355 354 354 355 354 351 355 356 354 356 354 354 355 357 355
350 353 362 363 362 362 363 363 363 362 363 363 362 361 361 360 359 359 358 359 358 360 358 357 356 355 355 354 354 354 356 357 357 352 354 356 355 353 354 355 356 358 358
349 355 359 364 364 363 362 363 361 361 361 361 361 361 360 359 359 358 359 359 360 359 357 356 356 356 354 354 355 355 356 356 358 354 352 352 354 357 357 357 357 357 357
350 355 357 362 363 363 362 362 361 361 361 360 361 361 359 359 358 357 357 359 359 359 357 355 355 355 355 355 356 357 357 356 355 353 352 353 353 356 357 356 354 357 357
353 355 357 357 360 361 361 361 361 361 361 360 360 360 359 358 356 356 356 357 357 356 356 356 356 354 355 356 356 357 357 355 355 354 348 351 354 356 355 354 352 355 357
353 355 357 357 357 359 359 361 360 360 360 360 360 359 358 358 357 357 359 357 358 356 356 356 355 355 356 357 357 354 356 352 352 353 352 354 353 357 355 356 352 355 355
351 353 354 355 357 359 359 358 360 360 360 360 359 358 359 363 362 359 358 359 358 357 358 357 356 357 354 357 358 355 350 346 349 353 353 353 355 354 354 356 355 353 356
347 350 352 352 354 357 355 360 360 358 358 359 360 361 362 361 361 358 360 360 360 359 358 358 358 357 356 357 356 358 358 350 350 354 354 353 354 354 355 355 354 355 354
346 348 351 354 356 356 356 357 359 356 357 358 362 361 360 360 361 359 360 360 361 357 360 359 360 360 358 359 359 358 359 354 354 352 354 353 354 353 353 355 353 354 356
345 348 352 356 358 358 356 357 358 355 356 355 356 360 358 356 358 361 360 362 361 362 363 360 360 362 361 360 360 360 357 355 354 349 352 352 356 357 355 354 357 354 356
344 347 351 356 358 359 359 358 358 357 354 354 356 356 355 355 361 361 363 361 361 362 363 362 360 360 360 359 357 360 356 357 353 351 352 357 356 355 356 356 355 355 355
344 346 351 354 357 359 358 360 358 357 355 356 354 354 357 355 360 360 361 360 361 361 362 362 365 361 359 356 354 359 358 356 357 354 353 354 354 356 355 354 355 356 355
344 347 350 353 356 358 359 357 357 355 353 352 352 356 356 357 361 363 360 359 358 362 362 362 363 361 350 342 343 356 357 358 357 351 354 355 352 355 354 354 355 356 356
345 347 350 350 353 356 358 357 355 353 352 352 352 354 357 359 362 363 359 359 362 361 365 365 359 356 342 339 344 344 347 355 357 356 357 356 355 351 353 357 357 355 353
349 349 349 352 352 355 357 356 355 354 352 352 353 357 360 363 362 361 360 359 363 359 360 357 357 353 343 342 340 345 347 348 349 344 353 355 355 354 353 354 356 357 352
350 352 353 353 354 356 355 355 353 351 351 355 356 357 361 363 364 363 356 357 361 358 355 353 357 350 346 345 338 342 345 346 350 348 349 351 353 352 354 356 354 353 354
350 351 353 353 356 354 351 349 348 345 350 354 357 361 361 362 364 364 358 359 358 364 360 361 356 351 345 346 341 340 343 345 346 347 351 351 352 352 355 357 358 359 354
348 351 353 354 356 355 352 353 350 351 352 355 358 361 363 362 364 363 361 359 361 357 360 358 353 346 342 344 338 339 331 337 343 344 350 349 349 350 349 349 352 355 357
348 351 354 356 358 356 357 354 354 355 355 353 354 357 360 362 363 364 359 359 362 360 355 358 353 348 339 344 342 338 331 329 336 343 344 350 351 349 345 346 350 353 354
349 350 355 355 358 357 360 355 356 349 348 351 355 357 358 362 362 363 364 363 362 359 359 357 353 348 344 339 342 343 343 342 330 330 339 343 347 346 347 344 346 350 349
348 348 351 355 357 358 358 358 354 354 352 354 355 360 363 363 362 362 363 364 362 359 360 358 352 348 343 341 339 339 342 340 343 336 330 335 342 343 345 343 343 347 346
347 348 349 354 356 358 358 358 357 356 356 352 354 353 354 355 357 363 363 363 363 361 360 357 355 351 347 342 340 342 338 336 334 336 334 336 335 338 340 342 341 341 345

GFSSE_sfc_thetae_048.txt.gz
Theta_e
347 354 357 360 362 364 366 367 367 366 366 366 363 362 362 363 362 361 361 361 361 359 360 360 359 359 357 356 356 355 355 355 356 357 358 358 358 354 355 356 358 353 359
354 355 358 362 362 364 366 367 367 367 365 364 363 363 363 362 362 361 361 360 361 359 359 359 359 360 358 356 356 356 354 352 354 355 357 358 358 356 358 355 357 356 358
352 353 358 362 362 364 365 366 365 364 363 363 363 364 362 361 362 361 361 361 361 360 359 359 358 358 358 358 357 356 356 352 353 354 355 353 355 356 355 357 356 357 357
352 357 360 361 364 364 365 365 365 362 363 364 364 362 362 361 360 359 359 359 358 358 359 359 358 357 356 356 356 356 356 352 353 352 354 351 351 355 357 357 358 357 354
353 355 360 363 366 364 363 363 363 362 363 364 362 362 361 361 360 360 360 359 359 358 357 358 357 357 356 356 355 355 355 355 351 354 353 355 354 354 356 356 356 355 353
353 356 361 365 363 363 363 363 363 364 363 362 362 361 361 360 360 361 359 359 359 359 359 358 357 356 355 354 354 354 356 357 355 351 354 353 354 352 353 353 356 356 356
351 355 360 365 365 365 364 363 362 363 363 363 362 361 360 360 360 360 359 360 360 358 358 358 357 356 355 355 355 355 355 358 353 350 352 351 354 356 356 357 357 356 357
351 352 357 364 364 363 364 363 362 361 361 361 361 361 360 359 359 358 359 360 359 358 357 356 356 355 356 356 357 357 355 356 354 348 350 352 356 356 357 356 357 357 356
351 351 355 358 362 363 363 362 362 362 361 360 361 361 359 358 357 357 357 358 357 356 356 356 356 355 355 357 358 359 357 353 356 350 347 353 354 353 355 353 357 358 357
351 351 354 357 358 360 360 361 361 361 361 361 360 359 359 358 358 359 359 359 357 356 355 356 356 355 354 358 359 356 357 354 355 355 347 355 356 356 355 354 353 356 355
349 351 351 353 356 358 357 359 360 361 361 360 361 359 359 361 362 361 358 359 358 357 357 357 357 358 355 359 358 355 355 350 355 356 351 356 356 357 355 355 353 356 354
348 349 350 351 353 356 352 360 358 357 356 358 361 362 364 363 364 360 360 358 357 358 357 357 358 359 359 355 357 357 357 352 355 355 355 355 354 354 356 356 354 355 355
349 348 349 352 354 354 353 355 355 354 356 358 363 363 364 364 364 364 362 360 361 358 359 359 359 358 355 354 353 350 356 355 353 354 353 355 354 354 356 356 355 356 355
349 349 350 353 356 356 354 353 354 351 353 353 356 361 363 359 363 366 361 361 363 362 360 360 360 359 360 358 356 349 353 354 351 354 353 354 355 355 354 354 355 355 356
348 349 352 355 358 358 358 354 354 352 350 351 355 358 359 360 364 363 366 363 362 361 361 359 361 360 359 356 358 352 345 353 353 353 353 355 356 357 356 355 356 356 357
348 349 353 355 358 359 358 361 358 356 352 353 352 355 359 359 364 363 362 362 362 364 361 361 358 358 357 356 354 354 350 349 356 353 348 356 356 355 355 356 356 356 356
347 349 351 354 357 360 360 361 359 354 352 350 350 356 359 361 363 368 364 360 362 363 362 362 361 360 351 348 347 352 352 352 355 354 352 350 353 356 356 354 354 356 356
348 349 352 352 355 359 361 360 356 353 351 350 350 354 359 361 365 366 361 362 363 364 362 358 358 356 349 345 347 350 349 350 350 353 352 349 349 350 354 356 356 355 354
348 350 352 354 353 357 361 359 358 358 353 350 352 355 361 363 365 366 360 364 368 362 361 361 358 356 350 348 343 347 346 346 345 343 348 352 352 349 351 357 357 356 352
349 351 353 353 356 359 357 359 355 352 351 351 354 356 363 366 367 367 363 365 364 360 359 362 356 358 353 349 339 340 346 347 348 345 347 350 351 353 351 357 354 352 356
349 351 353 354 361 358 355 352 350 347 350 351 356 363 366 367 368 370 363 364 363 359 357 358 357 355 353 352 338 337 341 344 344 345 346 346 346 348 350 351 353 352 353
349 352 355 357 360 361 356 355 352 351 349 352 357 363 366 366 369 368 370 362 365 360 358 358 357 354 352 348 338 339 332 335 340 344 350 346 345 344 344 346 349 353 355
347 351 354 360 362 362 362 356 354 352 353 352 356 358 364 366 367 369 367 366 365 361 356 359 358 357 347 349 345 339 331 330 333 341 346 346 347 344 343 345 348 352 355
347 351 356 360 362 363 362 359 361 347 345 349 355 357 358 364 365 365 367 366 369 360 361 360 359 357 354 343 342 341 346 346 331 331 339 344 345 345 347 344 345 347 346
348 350 354 360 364 365 364 364 357 356 347 352 355 366 370 369 366 363 366 365 366 364 364 364 361 360 352 346 337 340 342 340 343 335 332 336 342 343 345 343 344 344 344
349 351 354 360 367 366 364 362 366 364 358 353 358 356 357 358 359 366 364 367 369 367 365 364 364 362 357 353 340 341 338 335 335 336 333 338 337 341 343 344 343 343 344

GFSSE_sfc_thetae_051.txt.gz
Theta_e
341 353 357 360 363 366 365 364 362 363 364 364 363 362 362 362 362 362 362 360 360 360 360 361 360 358 357 356 356 355 356 356 358 359 359 359 355 354 356 357 358 354 360
346 354 360 361 364 365 368 366 366 366 364 363 362 363 362 362 361 361 361 360 360 360 360 359 360 358 356 357 356 355 353 355 354 357 358 359 357 357 357 359 363 358 359
349 353 358 363 364 365 367 367 366 365 363 363 363 363 362 362 362 362 361 362 360 360 360 359 359 358 358 357 357 357 353 353 354 354 357 353 351 355 357 357 360 359 358
350 355 360 363 365 366 365 366 365 363 363 363 363 362 361 361 360 359 359 358 359 360 360 359 358 358 357 357 357 356 353 351 352 353 355 352 348 356 357 358 357 356 357
355 358 362 363 366 364 363 364 364 365 364 363 362 361 361 360 360 361 360 360 359 358 358 358 358 357 356 356 356 357 356 350 353 354 354 353 351 356 357 356 355 353 355
354 358 362 365 363 364 362 362 363 363 363 363 362 361 361 361 360 360 360 361 360 359 359 358 357 355 355 355 355 356 356 357 356 353 354 353 349 354 354 357 357 356 357
353 356 360 366 366 364 363 364 364 364 363 362 361 361 361 361 360 361 361 361 359 359 358 358 358 357 357 356 355 355 357 358 353 351 352 352 353 357 357 357 357 356 357
351 353 357 365 365 366 363 363 363 363 363 361 361 360 360 360 359 360 360 360 359 358 357 357 357 357 356 357 358 355 354 355 349 349 352 356 358 356 357 357 357 358 357
348 350 356 358 362 365 363 362 362 361 361 361 360 360 359 359 359 358 359 359 358 358 358 356 356 356 356 358 358 356 353 358 355 347 347 354 358 357 355 357 358 358 357
347 350 354 356 358 360 360 362 362 362 361 360 360 360 359 359 360 360 360 359 358 357 357 356 355 355 357 359 358 356 357 357 353 346 353 355 358 356 355 354 357 356 356
345 348 350 352 355 357 356 359 361 362 362 361 360 360 361 362 361 361 363 359 359 359 359 358 359 359 358 360 358 358 358 353 354 353 352 358 359 357 358 352 357 356 353
344 346 348 350 352 354 351 358 356 356 356 361 360 363 359 363 362 357 362 361 360 360 359 361 362 362 360 358 356 359 355 351 355 353 352 360 357 357 357 356 355 356 353
347 345 346 350 354 353 356 353 353 353 354 359 363 363 363 362 361 359 359 357 360 360 358 361 357 355 357 353 353 349 348 351 350 350 353 358 356 356 358 356 355 356 355
347 347 348 351 356 356 353 352 351 350 353 354 359 364 363 359 358 360 357 360 364 362 361 361 353 359 356 355 349 345 348 351 351 349 353 354 356 355 355 356 354 356 355
347 347 349 352 357 357 358 353 351 350 350 351 357 360 358 357 361 356 361 357 357 362 359 359 360 357 357 355 352 349 344 350 347 352 351 356 356 357 356 355 356 355 356
348 347 349 352 357 358 358 362 355 353 351 351 352 357 361 358 362 361 359 360 360 358 356 359 359 355 357 355 354 352 346 346 351 352 350 353 357 358 357 356 356 356 357
348 349 350 353 356 358 359 359 358 354 351 350 350 358 359 361 362 365 358 360 362 364 362 363 359 362 348 349 347 350 348 345 351 346 352 351 354 358 357 356 356 356 356
349 350 352 351 354 357 360 360 356 352 351 350 349 353 360 362 365 367 363 360 368 362 358 356 355 348 349 344 346 344 343 346 349 349 350 348 350 347 356 359 357 356 356
349 350 351 353 352 356 362 360 359 363 353 350 349 352 363 363 364 365 361 358 368 357 361 356 354 356 349 344 343 342 341 344 342 343 342 349 350 348 347 358 359 357 353
349 351 354 353 361 366 361 363 356 352 352 351 350 353 364 363 366 367 362 364 365 358 359 359 358 353 349 344 337 338 342 343 343 343 341 345 346 349 349 351 352 351 356
347 350 355 358 366 360 354 352 352 348 351 349 350 361 362 364 367 365 361 363 361 361 358 358 355 355 349 348 337 338 340 341 343 342 345 346 343 346 345 349 349 352 351
347 353 359 361 367 364 357 359 353 354 349 349 351 364 364 365 368 368 369 362 354 355 361 358 357 351 345 344 338 336 332 335 338 341 346 342 345 342 342 344 348 352 350
347 353 357 363 366 366 365 361 360 357 355 349 351 355 361 365 366 369 368 362 365 363 359 361 358 357 346 344 346 339 332 330 333 338 340 343 343 340 341 345 347 349 351
346 350 359 366 368 367 369 360 361 349 345 347 350 353 359 366 365 365 368 365 365 361 367 362 357 358 355 343 339 340 346 347 333 330 338 341 344 343 344 342 345 347 346
345 347 355 366 368 369 369 366 357 356 347 349 350 364 366 372 370 363 368 367 366 360 368 363 363 362 355 349 337 338 344 338 343 339 335 338 340 343 345 344 343 344 345
345 346 350 363 369 372 372 368 368 362 357 346 352 352 355 357 360 370 365 371 372 368 368 366 367 364 361 355 345 341 338 335 335 334 335 340 339 343 343 344 344 343 344

GFSSE_sfc_thetae_054.txt.gz
Theta_e
344 353 356 363 364 365 365 364 365 365 365 365 364 363 363 363 363 364 364 363 362 362 362 361 358 357 357 357 356 356 356 358 359 360 360 356 355 357 358 358 358 356 361
346 354 359 364 367 367 365 364 365 365 365 364 365 364 363 363 364 364 363 363 363 362 360 361 358 357 358 358 356 352 355 355 357 359 359 357 358 359 359 360 361 358 360
347 353 358 365 367 367 366 365 365 365 364 363 364 363 362 362 364 363 363 361 361 361 361 360 359 358 358 358 357 352 351 355 356 354 356 353 353 359 358 361 360 359 359
347 351 357 363 366 365 367 367 366 364 364 364 365 364 363 363 362 359 359 360 361 360 360 359 359 358 358 357 356 354 351 354 356 355 352 352 351 359 358 357 358 359 360
349 357 362 364 365 367 366 366 366 365 364 365 364 363 362 362 362 361 360 359 359 359 359 359 358 358 357 357 357 355 353 352 356 355 352 353 350 357 357 355 354 357 360
352 356 361 364 365 365 366 366 366 363 365 365 363 361 361 361 361 361 361 361 360 359 358 358 357 357 356 356 356 355 356 356 355 354 351 349 350 357 358 358 358 358 358
351 356 360 365 366 365 366 366 364 365 364 364 362 361 361 362 361 362 361 361 360 359 359 358 358 358 358 357 357 356 357 358 356 353 349 352 354 359 358 357 357 357 358
351 354 358 364 367 366 366 365 366 364 363 363 362 361 360 361 361 362 362 361 359 358 358 358 358 358 358 358 358 356 356 357 349 353 353 353 359 361 358 357 358 357 357
349 353 357 356 362 365 366 363 364 363 362 361 361 360 360 360 360 361 360 360 359 359 358 357 357 357 358 359 357 356 355 357 357 352 353 354 360 357 358 358 358 358 357
347 351 356 357 362 359 358 363 362 362 362 361 361 361 360 360 360 360 364 362 359 358 358 357 357 358 356 359 358 357 358 362 350 352 352 354 360 357 357 359 357 357 357
347 349 351 352 359 358 359 359 362 362 361 361 361 361 361 361 360 360 364 364 360 359 358 358 359 356 357 359 360 359 358 355 354 353 352 358 359 358 353 357 356 355 357
343 346 349 349 352 355 350 359 360 358 358 360 361 358 360 363 363 358 361 366 364 363 361 359 359 357 358 356 355 359 355 352 350 350 353 360 361 359 356 355 357 354 352
342 344 346 351 354 352 353 356 356 355 358 360 364 355 361 359 360 361 359 358 361 362 359 355 354 353 358 357 357 356 354 348 353 350 357 360 360 358 357 355 356 355 353
343 344 347 354 358 358 357 353 354 353 355 358 364 371 370 364 359 351 355 359 355 359 354 353 352 355 355 353 355 350 352 349 351 348 354 360 360 360 358 355 356 356 355
344 345 348 356 361 368 364 356 353 358 356 355 363 367 364 355 356 360 357 354 359 354 353 351 359 356 350 351 356 351 347 344 351 348 348 359 360 359 358 356 355 356 355
348 347 350 355 360 364 367 372 363 367 358 362 361 362 369 363 361 352 362 356 358 358 356 358 364 360 362 358 357 354 348 350 350 351 349 353 361 360 361 358 356 356 356
349 348 350 352 357 362 365 366 367 365 354 358 362 366 366 368 370 366 360 357 362 363 365 362 363 355 347 353 350 353 343 350 349 350 349 349 355 361 361 361 360 359 357
346 349 352 348 354 359 362 365 362 360 358 360 358 359 365 368 373 371 358 359 362 361 354 361 353 356 354 348 349 349 347 348 350 350 350 349 350 350 359 361 361 360 357
348 351 352 353 353 357 363 363 361 363 365 362 360 361 365 367 370 367 356 352 353 357 359 360 350 360 351 350 342 347 344 342 346 342 342 348 349 348 348 358 358 357 356
350 354 353 354 360 359 360 363 360 359 361 360 362 361 366 368 368 367 361 355 362 361 355 358 357 358 354 349 335 341 343 346 341 346 346 341 344 346 347 348 354 351 358
350 353 353 357 362 359 357 355 356 351 357 359 361 364 368 371 371 371 367 363 363 362 363 363 360 359 344 350 346 342 344 343 342 344 343 343 349 346 348 348 351 348 350
348 351 354 356 361 361 358 358 356 358 355 354 358 364 368 367 372 370 368 363 368 356 360 364 361 349 354 350 342 342 336 339 342 341 346 343 343 343 343 345 350 354 351
347 351 354 357 363 362 361 361 363 362 362 355 354 356 362 367 370 371 368 366 366 367 360 363 361 358 343 348 349 344 331 327 338 343 342 342 342 343 342 345 348 353 353
347 351 355 358 360 361 363 357 358 349 347 349 354 356 360 365 367 370 369 368 369 367 360 360 363 363 359 347 344 343 348 349 337 331 341 343 345 341 343 345 347 346 345
347 350 353 358 359 362 359 362 355 354 350 355 354 358 364 367 367 367 369 369 369 365 364 359 363 363 363 353 343 344 345 346 346 341 333 339 343 345 346 346 345 344 347
346 349 353 357 358 361 362 359 363 355 355 348 354 354 358 360 364 367 368 368 368 366 367 365 365 365 363 361 356 350 343 338 339 337 336 339 338 344 345 344 346 345 344

GFSSE_sfc_thetae_057.txt.gz
Theta_e
342 351 360 363 363 364 362 362 365 364 365 365 364 363 363 363 364 365 364 362 364 363 360 358 357 357 356 355 356 356 359 359 360 360 356 358 360 363 363 361 360 356 361
344 354 361 364 364 365 364 364 365 364 363 363 364 364 363 363 361 363 364 362 361 363 360 357 358 359 359 357 353 355 356 357 359 359 357 360 361 360 361 361 360 357 361
347 354 359 364 364 363 365 365 364 363 363 364 362 363 363 362 363 362 362 362 361 362 361 359 358 358 358 358 354 353 356 357 357 356 358 352 354 360 361 360 360 360 359
350 354 359 365 365 364 364 365 365 363 362 364 365 363 361 360 360 361 362 361 361 360 360 359 359 358 358 356 356 352 355 357 354 355 351 351 352 359 358 360 360 359 360
348 355 359 366 367 365 365 365 366 364 362 363 362 361 362 362 361 360 359 360 360 360 360 359 358 358 357 357 356 356 354 355 351 352 350 346 349 355 355 355 358 359 359
353 357 362 364 366 366 365 366 363 363 363 363 362 362 361 361 361 362 362 360 359 359 359 358 358 357 357 356 356 355 356 356 356 353 350 353 349 359 359 359 358 358 358
352 357 359 366 367 366 366 364 364 363 363 362 363 362 361 361 362 361 361 360 360 360 359 358 358 358 357 359 358 356 355 356 354 346 346 347 353 360 358 358 358 358 358
353 356 357 363 366 367 364 363 365 363 361 363 364 362 361 362 363 365 361 360 360 359 359 359 359 359 360 359 361 360 357 357 353 349 351 352 359 359 358 358 359 358 358
353 354 355 356 358 364 365 364 364 362 362 362 362 361 360 360 361 362 362 362 360 359 358 358 359 362 361 359 358 359 358 356 352 350 352 352 361 359 359 359 358 358 358
351 352 351 353 355 355 358 363 363 362 362 361 361 360 360 359 360 360 364 365 359 358 358 357 359 361 362 360 358 358 356 358 351 350 351 354 359 360 359 359 358 357 357
348 348 350 354 353 351 353 357 362 362 363 362 360 361 361 354 354 356 360 364 360 361 359 358 362 361 361 359 359 356 352 346 349 350 350 357 358 357 359 358 357 358 356
342 346 347 352 351 350 354 353 353 356 355 355 355 353 354 354 353 358 361 365 363 360 360 360 360 359 355 351 354 356 349 344 344 350 351 359 361 355 355 357 356 353 356
342 345 345 349 350 349 350 352 352 352 352 355 344 346 353 357 355 354 355 355 353 356 342 353 351 348 353 352 351 351 353 347 348 351 356 361 362 359 356 357 357 353 351
340 342 343 345 348 346 348 349 351 350 351 353 352 349 350 352 354 350 352 355 349 352 350 352 347 351 351 352 350 350 347 348 343 349 357 362 361 360 357 356 357 356 354
338 340 342 346 349 348 347 347 347 348 349 353 356 354 354 352 348 352 351 349 347 349 350 349 350 351 349 346 347 346 346 346 344 347 350 360 361 362 358 357 357 356 356
338 340 345 345 351 351 350 351 352 347 348 355 354 353 351 352 352 352 353 352 353 351 347 346 351 349 349 347 347 345 343 345 344 345 346 352 361 360 360 358 356 356 356
340 345 344 347 350 347 348 349 351 349 346 344 354 353 352 353 353 354 347 353 354 354 350 352 355 350 345 344 340 342 346 346 345 344 345 349 356 361 362 361 360 360 357
342 345 346 348 349 349 349 350 353 350 348 342 352 352 350 352 356 352 349 349 350 355 352 352 346 344 342 343 339 337 339 343 344 344 345 347 350 353 359 362 361 361 357
342 343 346 347 347 350 350 353 350 350 351 348 346 350 351 353 358 353 348 348 350 351 347 348 346 346 345 346 339 335 336 340 340 347 344 345 345 347 351 359 360 360 357
343 344 343 346 348 349 351 352 349 349 351 345 347 350 354 355 357 355 351 349 349 354 349 350 346 347 344 335 334 334 334 340 341 336 341 345 344 345 346 349 351 352 359
344 344 344 345 349 348 350 348 348 344 346 343 345 353 356 357 357 356 352 350 352 350 350 348 345 343 340 333 330 328 331 333 338 341 338 336 341 342 343 344 345 345 350
344 342 345 345 350 349 352 349 347 347 346 345 346 346 357 358 359 357 354 352 353 350 351 348 346 342 342 335 329 330 326 327 334 335 337 338 338 342 342 344 345 344 344
343 344 343 347 352 350 351 351 348 349 345 343 343 342 354 355 358 357 356 354 352 351 348 347 347 343 338 334 334 331 325 319 327 332 334 334 336 335 338 343 345 348 344
342 346 344 349 351 352 351 350 347 343 340 342 341 345 351 355 358 359 357 355 352 353 350 349 351 346 341 337 331 331 336 336 322 321 331 330 335 333 334 338 343 346 346
343 345 346 347 353 352 352 348 347 343 342 340 343 342 347 353 356 362 358 355 354 352 351 350 350 349 348 339 329 329 330 331 335 328 323 329 333 334 335 337 339 336 338
343 346 348 347 349 351 350 350 346 344 341 340 339 342 347 355 356 357 360 357 357 355 352 352 351 349 345 348 341 336 327 325 327 325 326 328 330 333 334 337 337 335 336

GFSSE_sfc_thetae_060.txt.gz
Theta_e
342 350 362 364 361 361 362 362 362 362 363 363 364 363 362 362 362 362 364 362 362 360 358 357 356 356 355 356 358 359 360 360 357 358 360 360 361 360 361 361 359 355 360
345 354 362 364 362 361 363 362 362 363 362 362 362 362 362 361 361 362 362 362 362 359 357 358 359 360 356 354 356 356 359 360 360 359 361 362 361 361 360 360 360 357 359
348 355 358 364 364 362 363 363 363 362 363 362 362 362 362 362 362 362 362 361 361 359 358 358 359 358 358 353 355 356 356 359 360 358 360 352 355 361 360 361 360 359 359
353 356 357 364 364 362 362 363 362 362 362 363 362 361 361 361 362 362 362 361 361 361 359 359 358 357 357 356 354 356 356 356 357 357 351 350 352 360 360 359 358 359 359
354 357 358 365 364 361 361 363 362 362 362 361 360 360 360 359 358 359 361 361 361 360 359 358 357 357 357 357 355 354 355 354 355 352 347 347 348 354 357 359 358 359 358
354 358 364 364 361 362 362 363 363 362 361 361 362 362 361 361 360 361 359 359 359 359 358 357 356 356 356 357 354 356 354 354 355 348 349 353 350 357 358 359 358 358 358
353 357 360 365 365 365 362 363 362 363 362 361 362 362 362 362 361 361 360 360 359 359 358 356 355 354 355 356 356 356 356 356 347 346 347 349 353 359 359 357 358 357 357
354 356 359 365 366 365 363 363 362 362 361 362 362 362 362 363 362 361 360 360 360 359 358 358 357 356 355 355 358 355 356 361 349 349 350 351 359 359 358 357 358 357 357
355 354 355 357 358 363 363 363 363 361 361 362 361 361 361 361 362 361 361 360 359 358 357 357 358 356 356 355 356 358 357 358 348 350 353 353 360 360 359 358 357 357 356
352 353 352 351 353 356 357 363 362 361 361 361 360 360 359 359 360 360 362 363 360 359 359 357 357 357 357 355 357 356 360 359 348 349 351 353 360 359 358 358 357 356 357
350 349 351 351 352 353 354 358 362 362 361 361 360 360 361 352 353 355 359 360 359 359 358 357 356 358 357 356 356 357 352 348 349 350 351 357 360 359 357 358 357 356 356
344 346 350 351 349 349 355 352 352 354 355 354 354 354 352 351 352 355 358 361 360 359 359 360 359 358 356 350 351 355 346 341 348 349 351 358 359 358 357 355 357 357 357
343 346 350 351 347 348 349 350 351 351 352 352 351 347 349 354 353 355 352 356 353 352 337 346 346 348 349 349 350 351 350 341 347 348 354 361 359 355 357 356 353 352 355
343 344 348 350 347 346 348 350 350 350 350 350 348 344 350 349 351 352 350 351 351 351 345 348 347 347 349 350 350 349 348 346 345 347 355 362 361 357 357 356 355 352 352
341 342 344 348 347 346 345 345 347 347 349 351 352 347 352 348 346 348 349 347 347 348 347 347 347 349 349 349 345 346 344 343 345 350 352 360 361 361 357 358 356 356 353
340 341 343 344 346 345 344 341 344 344 346 350 353 352 352 345 347 348 347 347 348 348 347 347 346 348 345 345 346 345 345 343 342 348 350 354 362 361 359 356 356 356 357
339 341 341 343 346 345 344 345 348 348 346 351 352 351 349 348 350 348 347 348 350 349 346 346 347 347 344 341 341 342 345 343 343 342 345 348 355 361 361 359 358 357 356
338 338 341 345 348 346 347 346 349 346 343 346 351 351 351 351 352 349 349 350 350 351 350 348 346 341 339 341 338 338 341 343 342 342 343 347 351 353 359 362 361 360 357
339 340 341 343 346 343 345 346 347 348 347 343 348 348 349 353 354 348 347 348 348 348 346 346 342 342 343 343 340 333 337 342 343 344 344 344 347 350 351 357 360 360 357
341 343 342 342 345 345 346 345 346 345 346 345 343 347 348 351 353 349 347 346 346 349 345 347 341 346 342 333 334 331 332 338 338 341 342 343 343 345 347 348 352 353 359
341 343 342 342 343 345 343 344 342 340 343 343 342 347 350 352 355 351 348 347 345 348 346 346 342 340 336 330 326 327 328 333 336 335 339 340 341 342 342 344 346 346 349
339 342 342 343 343 345 345 344 345 343 342 344 341 348 351 352 354 353 350 348 346 348 347 346 344 339 338 331 328 326 319 324 330 334 333 337 338 340 341 342 343 343 343
339 340 340 344 344 345 346 344 344 345 341 341 340 339 350 354 356 355 353 350 350 348 346 345 343 340 335 332 329 329 321 317 324 330 331 334 337 338 339 340 342 343 342
340 342 341 345 345 346 348 345 344 344 343 340 338 340 345 353 354 355 353 351 349 349 346 345 347 342 335 330 329 329 333 331 320 319 327 328 333 335 335 338 342 344 342
342 341 343 346 346 346 349 347 344 341 341 339 339 339 340 349 353 357 354 352 350 349 349 347 347 345 342 337 327 325 327 329 331 321 319 325 331 330 332 337 341 343 343
342 342 341 344 347 347 348 347 345 343 339 338 336 338 338 345 349 355 355 352 351 350 349 348 347 347 345 342 335 332 325 323 325 324 322 325 326 328 331 334 336 337 338

GFSSE_sfc_thetae_063.txt.gz
Theta_e
341 349 362 360 361 361 361 361 363 362 362 363 363 362 362 362 362 362 361 361 360 359 358 356 356 355 356 358 359 358 359 358 360 360 360 360 360 361 360 360 359 355 359
345 352 363 361 361 361 361 362 362 362 362 362 362 362 362 362 362 362 362 361 359 357 357 360 359 354 355 356 357 358 359 358 359 360 360 361 362 360 360 359 359 356 359
349 353 359 362 362 362 361 362 361 361 362 362 362 362 362 362 362 361 362 361 357 357 359 359 359 355 353 355 355 358 359 358 358 360 360 353 354 359 359 360 359 358 359
352 354 356 362 363 361 362 362 362 362 363 363 362 362 363 361 361 361 361 361 360 359 359 358 358 356 354 355 355 356 358 358 358 358 350 350 352 358 359 359 359 358 358
353 355 357 363 363 361 362 362 361 362 360 360 359 358 359 360 361 361 361 360 360 359 359 358 358 357 355 354 354 355 355 357 357 351 347 347 348 356 359 359 358 358 358
353 356 361 362 360 360 362 362 362 360 360 361 361 361 361 359 359 359 359 360 359 359 358 357 357 357 356 355 355 355 355 355 354 348 349 352 345 357 358 358 358 358 357
353 355 356 363 361 361 362 362 361 360 360 362 361 362 361 362 362 360 360 359 358 358 357 357 357 356 356 355 354 355 357 356 347 347 348 350 351 359 358 357 357 357 357
354 356 355 361 362 362 363 361 362 360 361 361 361 361 362 361 361 361 360 360 359 359 359 358 357 357 356 356 356 355 357 356 349 348 350 351 358 358 357 358 357 357 356
355 355 353 355 359 362 363 362 362 361 361 361 361 361 361 362 361 360 360 359 359 358 358 358 358 358 357 357 356 357 360 355 347 349 352 352 359 359 358 357 357 357 356
352 352 351 351 352 354 356 362 361 361 361 361 360 360 360 360 360 360 361 362 359 358 358 358 358 357 358 357 357 357 359 357 347 350 351 353 359 358 357 358 357 356 356
350 348 348 349 351 353 354 356 361 361 361 360 358 359 358 350 352 355 357 358 357 357 357 358 357 357 359 357 358 357 354 348 348 349 350 357 359 357 358 356 357 356 356
346 347 347 348 349 351 356 352 352 354 354 353 353 353 351 350 349 354 356 360 358 358 358 359 357 358 354 348 350 352 341 347 347 348 349 359 360 356 357 357 355 356 356
345 348 348 348 348 348 350 349 349 350 351 351 351 349 349 351 350 353 351 353 351 353 338 344 345 346 349 348 349 348 344 342 346 348 352 358 360 356 355 355 356 356 355
343 345 348 347 345 345 346 348 348 349 349 349 349 343 346 347 347 349 349 348 350 348 344 345 345 345 345 348 348 348 348 342 345 346 352 360 358 356 356 353 351 350 353
341 343 348 348 344 344 344 346 346 347 348 348 350 340 348 347 347 347 346 348 346 347 346 344 345 349 346 347 345 345 345 344 345 348 350 359 359 359 356 355 353 351 350
341 341 347 347 345 343 342 342 344 345 346 347 350 348 348 346 346 347 346 345 345 346 346 345 343 347 344 344 343 344 344 343 344 348 350 352 360 360 357 356 355 354 353
341 341 342 345 345 342 342 340 342 344 346 347 350 351 350 344 346 347 345 345 347 347 346 344 344 345 343 340 341 343 343 341 341 345 347 347 354 359 357 356 357 356 356
340 339 340 346 344 342 342 341 342 346 345 344 351 350 349 347 349 346 346 347 349 347 345 343 343 340 337 338 335 338 340 340 340 340 343 346 350 352 357 360 359 356 356
339 339 338 341 343 343 342 343 344 346 341 343 348 349 348 350 351 347 347 347 348 347 343 345 341 339 339 340 339 334 338 340 340 342 340 343 346 350 350 355 359 359 356
338 338 339 340 343 343 344 342 344 344 345 343 345 345 348 352 351 346 345 346 346 346 343 345 341 344 339 327 333 333 335 337 339 339 340 342 343 346 347 348 350 352 358
337 337 338 338 342 342 341 340 339 339 341 342 342 346 346 351 351 348 346 344 342 345 343 344 341 338 334 328 324 325 327 331 334 336 339 339 340 341 342 343 345 347 347
338 338 338 339 341 343 343 343 341 339 340 342 341 343 347 349 352 350 347 345 342 345 345 344 341 337 336 328 325 322 318 324 330 332 333 338 338 340 340 341 342 343 341
337 340 339 339 340 343 343 341 342 341 339 339 338 338 347 350 352 352 350 347 344 346 344 343 342 338 333 330 327 325 318 316 322 328 330 332 335 336 337 338 340 341 340
338 341 341 340 340 342 342 341 340 339 337 337 337 338 344 350 351 353 352 349 348 348 345 343 345 339 333 327 327 328 330 325 321 319 325 329 330 335 335 336 338 339 340
339 339 341 341 341 342 344 342 341 336 338 338 337 337 337 347 350 354 352 349 347 347 347 344 344 342 339 332 326 323 325 328 326 318 318 323 328 330 332 334 337 340 342
340 340 340 340 342 342 344 343 341 339 337 337 337 336 335 339 348 351 353 350 348 347 346 346 345 344 343 338 331 327 325 323 326 323 320 321 323 327 330 332 334 338 341

GFSSE_sfc_thetae_066.txt.gz
Theta_e
342 349 359 362 360 361 361 362 361 362 361 362 362 360 360 360 361 361 362 360 360 358 356 355 355 356 358 359 358 359 360 361 361 361 361 362 361 361 360 361 360 355 359
346 351 361 361 360 360 362 361 362 363 363 362 362 363 362 362 362 361 361 360 358 356 359 356 354 355 356 355 358 358 357 359 360 360 361 360 360 360 359 360 359 356 359
348 353 357 362 361 360 363 361 362 362 362 362 362 362 361 361 361 360 360 358 357 360 358 358 354 353 355 355 357 357 358 359 359 361 361 357 356 359 360 360 359 359 358
350 354 355 363 362 361 362 362 361 362 362 362 362 362 361 361 361 361 361 358 359 359 359 357 356 354 354 355 356 358 358 357 359 358 353 354 352 361 359 359 359 358 358
351 353 355 362 362 362 362 361 362 362 362 360 360 361 361 361 361 361 361 361 360 359 359 358 357 356 355 356 355 355 355 358 357 353 351 353 356 357 359 359 358 358 357
352 355 359 360 360 361 360 361 360 359 360 359 359 358 358 361 360 360 361 360 359 359 359 358 357 355 355 354 355 356 356 355 355 351 353 352 352 358 358 357 358 358 358
352 355 356 363 360 362 361 361 360 360 361 362 361 361 360 360 359 360 360 359 358 358 358 358 357 356 355 355 356 356 357 358 351 352 353 353 355 358 358 358 358 357 357
352 353 355 360 360 362 362 361 360 360 361 361 362 361 361 361 360 360 360 360 359 359 358 358 358 357 356 355 356 357 357 357 352 353 354 354 357 358 357 357 357 357 357
354 352 351 352 356 362 361 363 360 361 362 361 362 362 361 361 360 360 360 360 359 359 358 358 357 358 357 356 356 359 358 355 351 353 353 355 359 357 358 358 358 357 356
351 352 350 352 353 355 356 363 360 361 361 360 360 360 361 360 360 360 359 361 357 358 358 358 358 357 359 359 359 358 357 355 352 354 355 355 358 356 356 357 356 356 355
349 348 349 349 352 353 354 357 360 361 360 360 358 359 357 353 354 356 357 357 357 358 357 358 357 358 359 358 359 359 357 352 352 354 355 357 358 357 357 355 357 355 356
346 347 347 349 351 352 356 354 353 355 355 354 354 355 354 353 354 355 357 357 357 358 358 358 358 358 353 353 357 350 350 351 352 352 354 358 359 355 355 355 355 356 356
345 348 346 348 349 351 352 351 351 351 353 353 354 353 352 353 353 354 354 354 354 350 343 349 346 350 351 352 353 350 347 349 351 351 353 359 357 355 356 356 355 357 355
343 347 347 347 348 348 348 349 349 350 351 351 352 349 348 350 351 350 352 351 353 352 349 350 349 349 349 351 351 351 345 349 349 351 354 355 359 355 354 351 353 354 353
342 345 346 347 346 346 345 348 348 349 350 350 351 345 351 350 350 352 351 351 351 351 350 348 349 351 350 350 349 350 350 346 348 350 354 356 358 358 354 352 350 349 349
342 343 346 347 345 344 343 345 346 347 348 350 351 350 347 351 349 351 351 350 348 349 349 348 348 350 349 350 348 348 350 348 349 351 352 356 358 358 356 355 351 350 350
341 342 344 346 344 342 342 343 344 346 347 347 350 352 351 350 348 351 350 349 350 351 350 347 350 351 348 343 345 348 347 347 348 351 353 355 356 358 356 355 355 355 353
341 340 342 348 345 342 342 342 342 345 346 346 348 352 353 352 349 351 350 347 351 352 349 349 349 347 343 344 342 345 346 345 345 348 351 352 353 356 358 357 358 356 355
340 339 338 343 342 342 342 342 342 344 346 345 348 351 352 352 353 350 350 349 352 350 349 350 347 344 344 346 345 341 345 344 344 344 345 348 351 354 354 355 358 359 356
340 340 339 340 341 342 342 343 344 346 347 343 347 350 351 352 354 351 351 350 351 351 348 349 348 346 343 335 335 336 340 343 345 344 344 344 347 350 352 353 354 358 358
339 338 338 337 339 341 340 339 341 341 345 345 345 349 350 352 355 350 349 349 348 350 348 350 346 345 339 334 334 334 334 336 339 343 345 345 345 346 348 349 351 353 352
337 337 338 338 339 343 343 343 342 341 343 346 345 348 349 352 355 352 350 349 347 349 348 349 348 344 342 334 332 328 327 334 336 338 339 342 344 345 345 346 347 349 350
335 336 336 338 339 343 343 343 343 342 342 343 343 343 347 350 354 354 352 350 348 349 348 349 348 345 340 337 335 332 326 326 328 335 337 338 341 343 345 345 345 347 347
337 338 338 338 339 343 343 342 342 340 337 339 341 343 346 350 352 355 354 352 351 350 349 349 349 346 342 338 335 334 336 332 331 330 333 336 336 338 343 344 344 346 346
339 339 339 339 339 341 343 343 341 341 339 339 340 342 342 349 351 354 355 354 352 351 351 349 349 347 343 337 333 331 334 335 330 328 329 333 335 337 340 342 343 344 347
340 339 341 339 339 340 342 343 341 341 338 339 338 338 339 341 349 352 355 354 353 352 352 351 351 349 347 344 339 333 334 334 334 332 327 329 330 336 337 340 341 343 346

GFSSE_sfc_thetae_069.txt.gz
Theta_e
350 353 359 361 363 364 362 361 362 363 362 361 362 361 360 360 360 360 361 361 359 357 356 356 356 359 360 360 360 361 362 362 362 363 361 361 361 361 361 360 361 355 360
351 354 362 364 361 363 361 362 362 362 363 363 362 361 361 362 362 361 361 359 357 357 356 354 355 356 356 358 358 358 359 361 362 361 361 360 360 360 360 359 360 358 359
351 356 358 363 362 363 362 363 363 363 362 363 363 363 361 362 361 362 360 357 359 358 358 354 355 355 357 356 357 358 360 360 361 361 360 358 357 360 360 360 359 359 359
352 356 357 362 364 362 362 362 362 362 363 362 362 361 361 360 360 360 358 359 359 359 357 355 353 355 355 358 358 358 358 360 360 358 357 354 355 360 359 360 358 359 359
353 357 360 363 364 362 362 362 362 362 362 361 360 361 362 361 360 360 360 360 360 359 358 358 357 355 356 357 357 356 358 358 357 356 358 358 355 359 360 359 358 358 359
353 355 361 362 363 363 362 361 361 360 359 358 359 360 361 361 360 361 361 360 359 358 358 357 356 356 355 355 355 355 357 358 355 354 355 356 355 359 358 358 358 358 358
350 354 358 363 363 361 363 360 360 362 361 361 361 360 360 360 361 361 361 360 359 357 358 357 356 355 355 356 356 356 358 357 353 352 352 357 357 358 358 358 358 358 358
351 352 355 361 364 364 360 360 361 362 361 361 362 360 361 361 361 361 360 359 359 359 358 358 357 356 355 355 355 357 358 355 350 355 357 357 358 358 357 357 357 357 353
354 353 355 355 361 363 362 360 360 362 362 361 362 362 361 360 360 360 361 361 359 358 358 357 356 357 355 356 357 359 358 355 353 355 354 357 358 356 357 357 357 356 355
354 355 356 357 358 362 361 360 361 362 362 360 361 360 361 361 361 360 358 360 359 358 358 358 356 356 357 358 359 359 358 354 352 353 355 355 358 356 358 357 357 356 356
353 353 352 354 358 361 361 359 361 361 360 360 360 362 359 360 361 358 358 359 359 359 358 358 357 356 358 358 359 358 356 354 353 352 355 357 358 355 357 356 356 356 355
347 349 350 354 355 358 356 361 361 359 359 360 361 362 358 360 360 357 358 357 358 358 359 359 358 357 355 355 355 355 356 356 355 353 352 356 359 356 356 356 355 356 356
345 346 350 356 357 357 356 359 358 358 358 359 362 362 361 361 363 359 360 361 362 352 355 355 354 357 353 357 357 355 355 355 355 352 353 355 356 356 356 354 355 355 356
345 347 353 357 358 359 358 357 356 356 357 356 358 360 361 360 362 362 364 358 362 361 357 358 356 358 358 359 359 356 353 355 355 352 353 356 355 355 353 355 356 355 353
344 347 353 356 357 359 359 357 355 355 355 356 358 358 360 361 362 363 363 357 360 361 359 359 359 356 358 358 358 359 354 355 354 351 352 354 353 354 354 351 349 349 350
347 348 352 354 355 358 357 358 355 355 356 357 359 358 357 362 362 362 363 357 357 359 358 360 362 359 359 359 357 356 357 356 355 353 352 357 354 354 355 353 350 349 350
347 349 350 352 353 356 356 354 354 353 353 355 357 360 360 361 362 363 364 366 358 360 361 359 361 360 356 353 355 355 356 356 355 353 353 355 356 357 355 354 353 354 354
347 348 350 348 350 354 354 353 351 352 353 355 358 360 361 362 362 361 361 362 360 361 358 358 360 356 353 352 352 354 354 354 354 354 355 355 355 355 357 356 355 355 353
347 348 349 349 347 351 353 351 352 354 353 355 356 357 360 362 361 362 361 361 364 361 360 359 356 356 354 355 352 352 354 353 352 350 353 354 354 354 356 355 355 357 355
347 348 349 348 350 353 351 353 351 351 352 355 356 357 361 361 362 362 361 363 365 365 358 358 358 356 351 346 344 346 352 354 355 354 353 351 352 352 353 356 356 356 359
347 347 347 348 351 352 348 347 348 348 352 357 355 359 361 362 363 363 359 360 361 360 358 360 355 353 346 346 344 343 345 349 350 352 353 352 352 353 352 353 353 354 354
346 347 347 347 350 352 349 351 352 352 353 357 357 359 361 362 364 363 361 359 359 360 360 359 358 352 351 346 342 342 336 340 346 347 351 350 351 353 353 352 353 354 355
345 346 347 349 350 352 354 352 353 354 354 353 354 355 359 361 362 365 364 363 359 359 363 363 360 355 347 345 346 342 332 331 340 346 347 348 350 350 352 353 354 353 355
345 347 349 351 351 351 355 353 355 349 346 349 354 355 357 360 360 362 364 363 362 358 364 362 360 357 355 347 344 347 347 342 335 335 344 348 349 347 350 351 351 354 355
345 345 347 350 352 354 355 356 352 354 351 352 352 357 358 360 360 359 363 364 364 363 363 361 362 361 356 352 345 342 348 348 346 339 332 339 346 347 348 350 350 351 353
345 345 346 350 352 354 354 354 356 356 353 349 351 350 352 353 356 361 361 364 364 367 363 362 364 362 359 355 350 345 343 340 342 343 338 339 339 344 345 347 349 351 351

GFSSE_sfc_thetae_072.txt.gz
Theta_e
352 355 359 361 362 362 362 361 361 362 363 365 364 362 361 360 360 360 361 360 358 357 356 357 360 361 362 361 361 361 362 363 362 362 362 362 361 361 361 359 363 356 360
353 355 360 363 362 362 362 362 363 362 360 362 361 361 361 361 361 362 361 358 357 357 355 356 357 358 359 358 359 360 362 362 363 362 362 360 362 360 360 361 363 358 359
352 356 359 364 363 362 363 363 363 363 364 362 361 361 362 362 361 361 358 358 360 358 355 355 356 357 357 357 358 361 361 362 362 361 358 357 358 359 361 360 361 360 358
354 356 357 364 364 363 364 364 364 363 364 362 362 361 362 362 361 359 358 360 360 357 356 354 356 356 359 357 359 359 361 361 360 359 357 354 354 360 360 360 359 359 359
353 356 359 364 364 363 362 363 363 363 362 362 361 360 360 360 360 359 360 358 359 358 358 357 355 356 358 358 358 358 359 359 356 356 357 357 355 359 359 359 359 358 360
354 354 361 363 363 362 364 363 362 362 362 362 360 361 361 360 360 361 361 360 359 358 358 356 357 356 355 354 354 357 358 355 357 355 354 355 357 359 358 359 358 359 357
350 355 358 365 364 363 362 360 360 359 360 360 361 361 361 360 361 361 361 360 358 358 357 356 356 356 356 356 356 357 358 352 351 352 354 355 358 360 358 359 358 357 353
349 351 356 362 364 363 360 362 362 362 362 362 362 362 361 361 362 361 361 359 357 357 358 357 356 356 356 356 357 359 357 350 353 354 354 355 358 359 359 358 357 353 353
349 351 355 359 362 361 361 361 361 362 362 362 361 362 361 361 361 362 361 360 359 358 358 357 356 354 356 356 359 359 356 352 352 353 352 353 357 358 357 358 357 355 356
348 351 353 359 361 359 359 362 362 362 362 363 362 361 362 362 361 361 361 360 359 358 358 357 357 356 357 359 359 359 355 355 349 351 353 355 360 358 357 357 357 356 356
347 350 351 353 360 359 357 361 361 363 362 362 361 361 363 359 360 360 359 359 359 358 358 357 356 356 359 359 359 358 358 350 349 349 352 358 357 357 357 357 356 355 356
345 347 348 351 356 356 354 359 360 358 358 360 361 363 359 361 360 358 359 358 359 359 359 358 357 356 358 354 355 357 354 353 348 349 353 358 357 356 357 356 354 356 355
346 346 347 353 357 355 358 356 356 357 358 360 363 362 360 359 359 358 357 356 357 358 356 356 356 356 355 355 356 353 353 354 351 349 355 357 357 356 354 356 355 356 355
346 345 348 354 357 357 356 354 355 354 355 355 359 364 362 358 360 359 358 357 362 362 357 361 357 359 359 358 356 353 353 351 350 350 355 357 354 356 356 357 356 354 354
343 345 350 355 358 358 359 355 354 355 355 356 359 361 362 362 361 361 361 360 363 361 357 358 358 358 359 357 356 356 353 353 350 349 352 356 354 356 352 350 349 350 351
345 346 351 354 358 359 358 360 357 358 359 358 359 360 364 365 366 359 358 360 359 360 358 358 359 358 358 358 354 356 356 355 354 353 351 354 354 355 355 351 352 350 349
346 347 350 353 355 358 358 359 356 357 357 357 359 365 363 365 366 362 358 360 358 361 363 359 358 360 352 353 354 354 354 357 354 353 354 353 355 356 354 354 353 353 353
346 348 351 349 350 356 357 356 355 356 356 357 358 360 364 366 366 363 359 360 366 363 358 355 354 352 349 351 351 350 351 353 355 355 354 356 355 354 356 356 355 355 355
347 349 349 350 348 354 357 355 355 358 357 358 359 360 364 366 367 364 361 358 362 359 354 352 352 354 349 348 347 349 352 350 350 349 352 355 354 354 355 359 358 357 357
348 350 351 350 351 355 353 354 353 354 356 357 358 359 364 365 366 367 363 360 359 354 353 354 355 355 352 349 342 345 350 351 350 349 351 351 352 354 352 357 357 357 358
347 349 350 350 352 351 349 347 349 350 354 356 359 362 366 366 366 366 360 360 360 358 357 360 357 355 347 352 342 344 344 349 349 348 349 351 351 352 355 356 354 354 355
346 349 350 351 353 354 348 350 351 353 354 356 359 363 365 365 367 364 366 363 364 356 358 358 359 350 347 349 342 342 334 337 342 346 350 351 352 353 353 354 356 355 355
345 348 350 353 353 354 355 351 355 357 357 356 357 358 361 364 365 366 363 363 364 367 355 358 358 356 345 349 351 342 331 332 337 344 349 348 353 350 352 352 353 355 357
346 349 351 353 354 353 357 357 361 351 349 349 353 355 357 363 363 364 365 362 363 363 359 358 357 358 357 343 345 347 348 347 336 337 343 346 350 349 351 350 351 354 357
349 348 351 353 356 358 359 360 355 356 349 351 351 360 365 364 365 362 365 366 366 360 361 361 358 360 357 352 345 342 350 347 350 340 337 340 346 349 349 350 350 351 354
349 348 349 353 358 357 357 355 360 361 358 351 354 352 353 355 357 363 363 366 366 361 362 362 366 361 361 358 353 349 342 342 342 343 341 342 343 348 350 349 350 351 352

GFSSE_sfc_thetae_075.txt.gz
Theta_e
355 356 360 361 360 361 361 361 363 365 366 364 364 363 361 360 360 360 361 359 357 357 357 360 362 361 362 362 362 362 364 362 362 363 363 362 361 361 359 358 364 356 360
353 356 362 362 362 362 362 361 362 363 363 363 362 360 360 360 361 360 359 357 358 356 357 357 359 360 359 360 361 362 362 363 362 361 361 362 360 361 361 362 363 358 358
351 354 357 365 363 361 362 363 363 361 361 361 361 361 361 361 362 360 358 361 359 356 356 357 358 357 358 358 361 361 362 361 361 359 356 356 357 360 361 361 360 359 359
351 355 356 365 364 363 364 363 363 363 363 362 362 361 361 362 360 357 360 361 358 357 355 356 357 359 358 360 360 361 360 359 358 358 355 354 354 360 361 359 359 359 359
352 356 361 364 365 364 362 365 364 364 363 361 361 360 360 361 358 360 359 360 359 360 356 355 356 358 359 359 360 359 357 356 356 360 356 356 354 359 359 358 358 358 360
352 354 364 364 363 363 363 363 363 362 361 361 361 360 361 360 360 360 360 360 359 359 358 357 357 356 355 356 358 358 353 355 359 355 355 356 355 359 360 359 360 356 355
350 354 359 365 365 364 363 362 361 360 361 361 362 361 362 361 360 361 360 358 358 358 357 357 357 357 357 357 357 356 354 355 349 355 355 354 358 360 360 359 358 354 353
348 351 358 361 364 362 361 361 360 361 361 362 362 361 361 361 360 360 359 357 357 358 357 357 356 356 357 358 359 357 355 354 354 354 354 354 359 359 359 359 354 354 355
347 351 356 359 363 361 363 362 362 363 363 362 362 361 361 361 362 361 360 359 358 358 358 357 355 356 356 358 359 356 354 355 352 352 350 353 359 359 358 358 354 357 357
348 351 355 357 357 358 362 362 362 363 362 362 362 362 362 361 361 361 363 360 358 358 357 357 355 356 358 359 358 355 354 356 348 354 352 355 361 359 358 357 357 356 357
346 350 352 354 354 357 359 362 362 363 363 363 362 362 362 357 360 360 361 360 359 358 357 356 357 358 359 359 359 358 358 347 348 347 350 359 360 357 358 357 357 356 357
344 347 349 353 354 355 355 362 362 360 359 361 360 364 361 365 361 357 360 359 358 358 358 357 357 356 355 352 354 358 354 347 345 349 352 360 358 358 357 356 356 356 356
345 346 347 353 353 354 355 357 353 358 357 360 362 363 359 356 358 356 356 356 357 360 355 355 355 355 355 353 354 352 350 350 345 350 356 360 357 354 356 356 356 356 356
345 346 348 353 355 358 353 353 353 352 355 354 358 366 360 360 363 357 356 357 361 359 358 361 354 356 355 353 349 350 351 349 348 351 356 356 357 357 357 357 355 354 355
344 346 349 353 357 359 359 355 353 353 352 355 357 360 358 360 359 362 364 360 359 360 357 357 356 357 355 352 353 352 349 347 347 351 352 356 357 354 352 351 350 351 353
345 345 350 352 357 358 359 360 356 354 360 353 356 359 364 365 362 363 360 359 358 357 355 360 358 350 351 353 351 350 349 350 350 354 349 353 357 356 354 353 352 349 349
343 346 350 352 355 358 360 358 356 360 353 357 361 364 364 365 364 363 364 359 359 360 362 360 359 357 356 349 348 350 350 353 349 350 353 352 354 357 357 355 352 354 353
343 346 351 349 352 356 359 358 356 355 357 358 359 361 364 363 364 364 360 359 360 360 355 358 354 344 352 345 349 345 355 353 350 352 348 353 354 354 355 356 356 355 354
345 347 349 350 349 355 359 358 358 362 360 357 361 358 364 367 362 363 360 360 364 358 362 353 349 347 350 347 347 348 350 347 348 347 351 351 351 354 356 358 360 358 357
345 348 350 350 357 361 357 358 356 356 356 359 357 361 364 364 364 364 360 362 361 360 355 357 362 351 343 346 341 346 348 351 345 345 347 349 349 349 350 353 357 354 359
345 348 350 354 363 356 352 350 352 349 355 354 355 362 364 364 364 364 361 362 360 356 352 358 355 353 344 347 341 345 342 343 346 344 346 347 348 348 349 350 351 357 355
345 348 354 357 362 357 352 355 354 356 352 354 355 362 364 363 366 362 365 360 360 357 359 358 356 351 348 347 344 347 333 336 341 343 346 346 348 349 349 352 352 353 353
344 348 353 359 361 360 359 356 356 358 358 352 357 357 361 362 363 364 364 356 362 361 356 360 359 360 345 343 353 345 336 334 341 342 346 346 350 348 349 351 352 355 357
344 348 355 357 362 360 363 355 361 351 348 350 354 354 359 362 362 363 363 364 365 357 363 360 359 362 359 344 341 344 349 349 339 341 343 346 349 348 350 349 350 355 357
346 346 350 359 361 361 361 361 355 357 350 350 350 366 373 370 363 360 364 364 364 360 364 362 362 363 354 352 341 341 349 344 351 343 342 341 345 347 348 351 349 350 356
349 347 348 358 361 362 362 360 364 360 359 348 352 353 353 356 359 363 362 365 367 365 363 362 364 363 365 360 352 347 342 341 343 341 340 343 342 345 347 348 349 350 351

GFSSE_sfc_thetae_078.txt.gz
Theta_e
352 355 359 360 359 361 362 363 365 366 364 361 362 361 360 360 360 362 359 359 359 359 361 362 361 361 362 362 363 364 364 365 364 363 362 363 361 361 362 362 362 355 360
351 354 362 362 362 360 361 363 366 365 364 364 363 361 360 361 361 359 359 359 357 358 358 359 361 360 361 362 363 363 363 363 364 362 361 362 361 361 362 361 358 356 360
351 354 356 362 362 362 363 363 364 362 364 362 361 360 361 362 360 359 361 360 356 357 358 358 359 358 359 361 362 363 362 361 359 361 363 354 357 361 361 360 361 359 359
351 353 355 363 365 363 364 365 364 362 361 361 363 363 362 361 358 361 361 359 357 356 357 360 359 359 360 360 360 360 361 360 360 361 355 352 352 360 360 360 358 356 358
352 355 360 366 366 364 363 365 364 363 363 362 362 362 362 358 361 360 360 360 360 357 356 358 360 359 359 359 358 357 357 355 356 360 354 353 353 357 358 358 358 360 357
352 356 362 367 365 365 364 364 364 362 362 362 361 361 361 360 361 361 361 359 359 359 358 358 357 357 356 357 356 354 353 356 358 354 352 355 355 359 360 359 355 358 358
350 355 359 366 366 365 365 364 363 362 362 363 363 362 362 361 361 360 360 359 359 358 358 357 357 357 357 356 354 354 356 360 355 354 352 354 355 361 359 356 354 354 356
348 350 356 364 365 364 361 360 361 362 362 363 363 362 363 361 361 360 358 358 359 358 358 358 358 358 357 356 355 354 356 360 355 353 353 354 359 360 359 354 355 355 352
347 353 357 359 361 363 363 363 363 362 362 363 362 361 362 361 362 361 360 359 358 358 358 357 357 358 357 357 356 356 355 358 352 352 352 354 361 359 358 355 358 358 357
348 352 357 360 357 360 359 362 362 362 363 362 362 362 362 362 362 361 364 362 359 358 357 357 357 359 360 358 357 356 356 359 349 352 352 356 360 359 358 357 357 358 358
345 350 349 352 355 360 360 360 362 362 363 363 362 362 363 358 359 358 363 361 359 358 358 357 358 357 357 358 359 358 358 349 348 350 352 359 360 359 358 357 358 357 357
344 348 349 349 351 357 355 361 362 359 359 361 361 360 355 357 365 355 360 362 360 359 358 358 355 351 354 353 353 358 354 347 348 349 354 360 361 358 357 357 357 357 355
344 346 348 353 356 353 357 360 361 357 362 363 365 362 362 360 355 356 359 356 358 359 354 355 352 350 352 354 351 355 350 347 349 349 357 360 359 356 356 356 356 356 356
344 346 347 354 355 361 358 359 353 356 360 356 361 371 355 362 350 351 355 361 359 355 354 352 351 353 356 352 354 347 348 345 350 351 357 360 360 357 357 357 355 355 355
344 345 350 356 351 350 368 356 353 355 355 358 360 355 352 356 358 358 361 352 353 354 351 349 353 352 351 352 353 347 350 349 350 351 352 361 359 359 357 355 353 354 354
345 346 352 353 361 365 363 368 360 361 355 359 359 359 358 359 363 365 360 354 351 355 353 352 349 353 353 356 350 351 350 350 353 349 350 356 360 357 355 352 350 350 348
345 348 351 352 357 363 362 368 369 348 358 359 363 363 357 356 366 361 361 362 354 355 363 360 352 352 352 344 354 355 355 350 350 350 349 351 356 360 359 357 356 354 354
345 349 351 348 353 359 367 366 365 352 366 357 358 361 354 360 370 364 363 364 365 354 359 358 351 349 352 343 348 343 354 351 351 353 354 350 351 350 359 361 359 358 356
347 349 350 353 352 356 364 361 363 360 362 367 355 354 369 368 369 370 358 366 371 361 362 359 345 344 354 349 346 352 350 349 345 347 350 352 355 352 351 359 360 359 357
346 350 353 354 357 360 359 365 361 363 356 355 357 359 367 368 368 369 365 368 368 359 358 352 352 355 345 347 341 344 344 352 349 349 349 347 350 351 354 350 355 356 360
345 349 354 355 358 357 355 353 356 355 361 356 358 367 369 367 368 368 366 368 367 348 354 362 363 359 353 344 343 348 349 344 344 347 349 345 348 348 353 356 356 354 353
344 349 352 355 358 356 357 357 360 360 359 365 365 367 366 369 369 364 359 366 368 360 365 359 353 351 355 351 346 346 338 342 343 343 347 348 348 349 349 352 353 353 354
344 349 350 357 358 357 361 358 362 362 362 361 361 361 366 368 369 360 366 368 369 367 360 365 363 356 352 350 353 347 333 334 341 347 346 347 349 348 351 353 354 357 355
345 350 352 357 358 356 362 356 360 353 353 357 348 360 363 368 367 368 369 368 371 365 360 361 362 350 353 350 347 348 353 350 338 338 348 349 348 349 349 351 352 356 359
347 348 352 354 359 355 356 361 356 356 353 361 359 360 363 371 371 363 367 370 371 366 365 364 365 360 352 355 346 347 352 351 347 341 336 344 348 349 352 353 352 354 357
347 347 352 353 356 356 355 357 359 355 360 357 360 356 359 360 366 370 367 370 370 362 367 366 368 366 366 364 362 352 348 345 343 341 339 343 344 347 348 352 354 351 355

GFSSE_sfc_thetae_081.txt.gz
Theta_e
346 348 358 359 360 361 363 364 365 363 363 362 362 361 360 362 361 361 361 359 360 362 362 361 362 362 363 364 363 363 364 365 365 364 362 360 360 361 362 363 359 355 360
349 353 361 362 361 362 363 365 365 363 364 362 361 360 362 363 359 361 360 358 359 360 361 361 361 362 363 363 364 363 362 363 361 364 362 362 361 361 362 360 358 357 359
350 356 357 363 361 362 364 365 364 363 363 361 361 361 363 360 361 361 358 356 359 358 358 361 359 360 361 362 364 362 361 363 362 364 362 355 355 361 361 359 359 358 357
351 352 355 363 363 362 364 364 364 363 362 362 362 363 362 360 361 361 359 356 357 358 360 358 360 360 361 361 361 361 360 359 359 361 352 351 352 360 359 357 359 358 356
349 353 356 364 366 364 364 365 365 363 362 362 361 362 359 361 361 361 361 359 356 358 360 359 359 360 359 358 358 358 358 359 361 357 350 349 350 357 360 361 358 355 357
353 356 363 366 364 364 365 364 364 363 362 362 361 362 360 361 361 361 360 360 359 359 359 358 357 356 357 357 357 357 357 357 358 352 354 356 351 360 358 358 358 357 358
350 355 361 366 366 364 364 363 362 362 362 362 363 361 362 361 361 361 360 359 359 358 358 358 357 357 356 356 356 356 361 362 351 352 352 352 354 360 355 354 356 358 357
349 356 357 365 366 366 364 362 362 362 362 362 364 362 362 362 361 359 359 360 359 358 358 359 358 357 356 357 355 357 360 362 353 351 351 352 359 358 355 354 353 351 351
350 352 356 358 359 360 362 361 362 363 362 363 363 362 361 361 361 360 359 359 359 359 358 357 356 357 356 355 357 359 360 360 350 351 352 354 361 357 356 357 358 358 357
351 351 354 352 354 355 357 364 362 362 363 362 361 362 362 362 361 361 363 362 359 358 357 357 357 359 357 358 359 360 360 360 349 351 353 355 360 358 356 359 359 358 357
349 350 352 350 352 352 355 359 363 363 363 362 362 362 362 352 354 356 360 362 359 358 357 358 359 358 356 355 358 359 358 350 348 350 352 357 360 358 358 358 357 356 357
344 347 351 347 351 353 356 355 354 357 356 356 356 350 339 349 353 355 359 362 359 359 358 359 355 355 340 344 349 352 352 345 347 350 353 359 360 358 357 357 357 357 353
343 344 346 346 352 349 351 354 355 353 354 355 353 349 347 353 347 351 350 352 351 358 350 352 348 346 345 344 348 349 351 344 347 348 356 361 359 357 357 357 356 357 356
342 342 345 347 349 348 352 354 354 352 354 353 353 352 353 349 338 344 347 351 352 350 345 339 344 348 349 352 349 350 347 346 348 350 355 359 359 358 357 356 355 355 354
341 344 347 350 348 349 351 353 351 351 354 349 352 347 349 348 344 347 348 349 347 348 348 346 346 349 351 349 349 346 342 347 347 350 350 359 360 359 358 355 353 355 353
343 345 346 345 345 345 354 353 350 351 352 352 350 350 352 348 350 351 351 347 347 341 347 348 344 347 347 348 345 344 345 346 347 347 350 353 360 360 358 353 352 352 352
344 347 347 349 351 349 351 351 349 352 358 354 354 352 351 347 353 351 348 346 347 345 347 348 344 346 341 345 344 345 344 345 345 345 349 350 354 358 357 355 355 354 351
343 343 345 350 350 347 350 350 348 350 353 354 355 351 348 343 354 355 354 350 353 351 349 347 344 342 343 340 340 340 345 341 343 344 347 350 351 352 358 359 360 358 356
343 342 341 346 348 347 350 349 351 352 350 352 354 352 349 355 358 358 355 352 355 349 351 348 340 341 341 341 340 342 345 343 342 348 345 345 347 348 351 359 359 360 357
344 343 343 347 347 347 349 347 351 347 351 352 351 349 357 356 356 355 355 353 352 349 349 347 341 343 339 342 342 340 340 341 339 341 345 347 347 347 347 348 354 355 360
343 342 343 345 346 351 347 346 346 345 348 345 352 353 357 358 355 354 355 352 352 342 344 350 349 345 344 340 333 337 337 339 342 339 340 340 343 348 349 345 347 349 352
340 344 343 347 347 349 347 347 346 345 349 349 353 358 357 357 356 354 349 352 350 347 348 344 345 342 343 339 335 337 330 330 332 338 339 339 338 344 349 349 350 349 347
338 342 346 348 347 349 346 347 348 349 346 350 348 353 353 358 357 354 354 353 352 352 347 349 347 344 338 341 339 336 328 327 330 336 333 337 338 338 342 343 346 348 349
340 343 348 349 348 347 349 343 343 344 342 347 351 351 354 355 356 356 353 354 354 352 347 348 352 344 341 338 336 336 339 337 329 327 337 338 338 338 339 343 345 347 347
342 341 347 350 348 347 349 344 344 343 344 347 344 348 351 354 357 358 356 355 355 352 351 351 350 347 345 342 338 333 336 337 335 332 326 333 339 339 341 338 343 346 349
342 342 343 349 346 345 346 349 344 342 344 348 346 348 351 354 356 354 355 356 357 354 352 351 351 350 351 350 348 341 333 332 331 333 331 332 333 337 342 342 342 344 349

GFSSE_sfc_thetae_084.txt.gz
Theta_e
343 346 357 360 361 361 361 363 362 363 362 362 361 361 362 359 359 358 359 362 362 362 362 363 363 363 364 364 364 363 363 363 361 361 360 359 359 360 360 359 359 354 358
344 350 360 362 362 362 363 364 362 363 362 360 360 362 361 359 360 358 358 358 361 361 361 362 362 363 363 363 363 362 362 363 364 362 361 361 360 359 358 357 360 355 358
345 355 359 364 362 363 365 364 363 364 361 361 362 362 360 361 360 356 357 359 357 359 360 359 360 361 362 363 361 360 359 359 362 362 361 354 354 360 357 359 356 355 355
352 353 357 363 364 364 364 364 363 363 361 361 362 362 360 360 361 357 356 356 359 358 359 358 360 361 361 361 359 359 358 358 361 360 351 350 351 358 359 357 359 357 359
351 353 355 364 365 361 362 363 363 362 361 362 362 359 361 360 360 358 356 357 359 359 359 360 360 359 359 359 358 357 359 359 361 353 348 348 351 357 359 356 354 358 357
350 353 361 363 363 364 364 363 363 362 363 362 362 359 361 361 361 360 359 357 358 359 358 357 359 358 357 357 356 358 360 362 359 353 352 355 351 357 359 355 357 356 355
351 356 360 366 366 365 364 364 363 363 362 362 361 361 362 361 360 360 359 359 358 357 358 357 357 357 356 357 357 363 362 360 352 351 350 352 352 356 355 358 358 358 354
353 356 358 365 366 365 363 363 363 363 363 363 363 362 362 361 359 361 359 360 359 358 358 357 357 357 356 357 359 362 362 359 353 350 351 352 356 355 353 354 351 349 350
356 354 356 357 361 364 363 363 363 363 363 363 363 362 362 360 359 359 359 359 358 358 357 356 356 357 358 358 359 363 360 358 349 350 353 353 357 356 355 352 354 355 354
351 355 354 352 352 352 354 363 363 363 363 363 363 361 362 361 361 360 362 361 358 357 357 357 356 358 358 361 360 359 361 358 349 351 352 353 358 358 359 358 357 356 356
349 351 350 350 351 353 355 358 362 363 363 362 361 361 358 353 353 355 359 360 358 357 356 357 358 358 358 358 360 360 357 349 349 350 351 357 359 357 357 357 356 356 354
346 348 348 349 350 352 357 354 354 357 356 355 354 350 344 348 352 355 357 359 358 357 357 354 354 353 344 346 348 353 347 346 348 350 352 360 360 357 358 357 358 355 351
346 348 347 348 350 350 353 352 352 353 353 353 351 338 346 348 346 351 352 352 351 355 349 347 346 344 345 344 347 346 345 345 347 348 355 361 360 357 357 357 355 354 355
344 347 346 347 350 345 350 352 351 352 351 351 351 348 349 345 340 344 349 350 349 347 342 340 342 346 345 347 348 346 345 345 345 349 354 360 359 357 356 356 356 354 354
341 344 344 347 347 347 350 351 349 349 351 350 348 350 348 347 345 345 347 346 348 346 345 344 343 345 347 348 346 344 344 345 347 350 349 357 360 359 356 355 355 356 353
340 341 343 346 347 349 350 350 349 348 351 349 346 346 350 347 345 339 345 346 344 342 343 346 343 344 346 346 345 342 344 344 347 349 349 352 359 360 357 353 353 354 354
341 344 345 345 345 346 348 351 347 348 350 348 348 347 349 350 346 346 344 344 343 339 342 344 343 344 342 342 341 341 343 344 345 346 349 349 354 358 357 353 353 353 350
343 343 344 346 346 346 346 348 344 350 352 351 350 351 347 348 350 347 345 344 345 343 343 344 341 341 339 337 337 340 341 342 342 343 348 349 349 350 354 357 357 355 354
343 343 344 347 344 347 345 348 348 350 352 352 350 348 341 351 356 352 351 345 348 344 344 344 341 339 338 336 338 340 342 338 340 344 344 346 347 349 349 356 359 359 357
343 344 343 346 343 348 344 345 348 345 349 350 349 350 352 355 355 354 349 349 350 346 346 343 338 340 339 338 340 338 339 339 339 342 342 345 345 346 347 349 353 354 359
342 340 343 342 341 346 343 341 344 341 345 346 347 351 354 353 354 353 351 350 347 343 345 344 343 339 340 337 331 334 335 335 336 337 342 343 344 345 345 344 347 349 350
339 340 342 343 341 345 344 343 343 344 346 345 349 350 354 355 352 351 350 346 344 340 344 342 341 339 340 337 334 332 325 326 329 335 336 338 341 344 346 346 343 345 346
339 339 342 343 344 345 344 344 344 345 345 345 346 351 353 355 353 348 351 350 349 347 344 344 343 341 335 339 336 333 324 322 326 332 332 335 335 337 345 347 346 347 347
340 341 344 344 345 345 343 342 341 341 338 345 345 349 350 355 353 352 351 351 350 349 345 346 347 341 339 336 337 333 336 332 324 324 331 334 336 334 338 340 343 345 347
340 341 345 344 345 346 344 342 341 339 340 345 346 347 349 351 352 353 350 351 350 348 346 348 348 346 342 340 337 330 332 334 331 328 324 330 336 338 336 338 340 341 344
339 342 345 343 344 346 344 340 340 339 340 342 341 344 347 348 351 352 352 351 351 350 348 347 348 346 348 347 345 337 330 331 329 330 327 328 331 334 338 339 337 340 343

GFSSE_sfc_thetae_087.txt.gz
Theta_e
341 343 357 360 360 361 362 362 361 361 360 359 360 360 359 358 358 361 362 361 362 361 362 363 363 363 363 363 362 363 363 361 361 360 359 359 359 359 359 359 358 352 358
343 349 359 362 361 361 362 361 362 361 359 359 362 359 358 358 357 357 359 361 360 361 361 362 362 363 362 362 362 362 362 361 362 361 360 361 359 357 357 358 358 353 355
342 353 358 363 362 362 363 360 362 361 359 361 360 359 360 359 356 357 357 358 360 360 360 360 361 362 362 360 359 361 361 362 362 361 360 352 352 356 357 354 355 355 357
346 354 357 363 363 363 364 362 362 360 360 360 361 359 360 359 356 357 357 357 357 360 357 359 360 362 360 358 359 358 360 360 360 358 350 350 350 358 357 356 356 357 357
351 353 356 362 364 363 363 363 362 361 360 360 360 360 360 359 356 355 356 359 358 357 359 359 360 359 358 358 358 358 359 360 358 353 349 348 348 355 355 354 356 357 352
350 352 360 361 360 362 363 363 362 360 361 360 359 359 359 359 359 355 357 359 358 359 359 359 357 357 358 357 357 359 359 359 357 352 351 353 349 356 354 358 356 355 353
348 353 356 364 363 363 362 362 362 362 361 360 360 360 359 359 358 359 357 358 358 357 356 356 356 356 356 357 358 359 360 359 351 350 350 349 349 358 354 357 355 355 357
352 355 358 363 362 364 364 363 362 362 362 360 361 360 360 360 359 358 358 358 358 358 357 356 355 355 357 358 363 361 360 358 352 350 350 348 354 354 357 355 351 349 352
354 354 356 357 360 362 362 362 362 362 362 362 360 359 360 359 359 359 359 359 358 357 357 356 356 357 357 358 361 360 359 357 348 350 351 348 357 353 352 350 353 352 351
351 353 353 353 353 352 356 363 362 362 363 362 362 361 360 359 358 359 361 361 358 357 357 356 357 356 358 361 361 359 358 357 348 351 351 350 357 357 356 357 356 356 355
350 349 349 349 348 350 352 358 362 363 363 362 360 361 359 353 353 353 356 359 358 358 358 357 357 358 360 358 361 360 357 349 349 350 350 355 358 358 358 357 355 354 354
346 348 347 347 349 351 356 353 354 356 355 354 354 349 347 350 352 354 356 359 358 358 359 356 357 347 348 345 348 356 346 347 348 349 350 358 360 356 356 354 357 353 350
346 348 346 347 349 350 352 351 352 352 352 351 350 342 345 349 349 351 351 351 349 355 346 341 344 343 343 346 346 346 344 346 347 349 354 359 359 356 356 357 353 351 351
344 346 344 347 348 346 350 349 350 351 351 350 346 342 346 340 343 344 346 347 347 346 340 338 341 344 344 344 346 344 343 345 344 347 353 359 359 356 355 356 355 355 353
341 344 343 345 346 345 347 348 348 348 349 349 347 346 348 340 341 344 345 344 344 344 342 341 342 343 344 346 346 344 341 344 346 348 348 356 359 358 355 355 355 353 352
342 342 342 344 346 346 347 347 347 347 350 348 348 348 346 344 343 343 344 343 343 342 341 343 342 342 344 346 342 341 342 344 346 348 347 349 357 358 356 354 354 355 353
340 342 341 344 346 345 346 348 347 347 350 347 346 344 348 345 344 338 343 343 342 338 341 343 341 342 342 343 338 341 342 343 344 346 347 348 351 357 357 354 353 354 353
339 340 341 347 346 344 345 347 347 347 347 347 346 346 348 349 345 342 342 342 343 339 340 342 339 338 337 336 336 338 340 341 342 343 347 347 348 350 354 357 356 354 352
339 341 342 343 344 344 345 346 345 348 348 348 349 347 345 347 350 346 344 342 344 341 339 342 341 338 336 335 335 337 340 339 340 343 343 346 346 348 346 352 358 358 355
342 342 342 343 343 345 344 345 346 346 348 349 347 346 341 349 353 349 348 344 345 341 341 341 337 336 337 335 338 335 337 338 338 339 340 344 344 346 346 347 348 353 359
341 341 342 342 341 344 340 341 341 341 345 346 347 349 351 350 351 349 347 346 347 343 343 342 339 335 338 335 330 331 333 335 336 336 340 340 341 344 344 344 344 347 349
340 341 343 343 341 344 341 340 344 341 344 344 346 348 352 352 351 350 348 346 342 341 342 342 339 337 338 335 329 329 323 325 327 333 335 339 340 343 344 344 343 343 345
339 339 342 342 341 343 342 341 343 342 344 342 345 346 350 354 351 350 349 344 341 343 339 340 342 338 332 336 334 330 321 320 324 329 331 333 335 335 341 344 344 344 343
339 340 342 341 340 342 342 340 340 340 337 341 344 346 350 353 351 348 350 349 346 345 343 343 344 338 336 333 335 332 333 330 322 322 328 332 333 333 334 339 343 345 345
339 339 341 341 340 341 342 341 340 339 339 342 343 344 347 350 351 351 349 348 347 347 344 346 345 343 341 337 336 329 330 332 329 325 322 327 333 336 335 335 338 340 341
339 340 341 341 340 341 341 339 339 339 339 340 341 342 344 347 348 349 349 349 348 345 346 346 346 343 344 344 342 335 329 329 328 328 325 326 329 333 335 336 336 336 339

GFSSE_sfc_thetae_090.txt.gz
Theta_e
339 343 358 358 358 361 360 360 359 359 359 360 360 358 359 360 362 362 361 360 361 362 363 363 362 362 362 362 362 362 361 361 361 360 360 360 359 359 358 358 357 352 356
341 348 360 359 359 361 361 361 360 359 359 359 359 358 357 357 358 361 360 361 361 361 361 362 362 362 362 361 362 362 361 360 362 360 360 360 357 358 357 357 356 352 357
342 352 358 363 361 362 361 361 360 359 359 361 358 358 358 356 356 356 360 361 360 361 360 361 360 361 360 361 361 362 361 361 360 360 359 353 353 356 355 355 356 355 356
348 353 357 364 363 363 362 362 360 359 360 359 359 359 359 355 356 358 356 359 360 359 360 360 361 359 359 359 360 361 361 360 360 358 353 352 353 356 355 356 357 357 356
351 354 356 362 364 363 362 362 360 359 360 359 359 358 359 356 355 355 357 358 358 359 360 360 359 359 359 358 357 358 361 359 358 353 352 352 354 355 357 357 356 351 352
351 353 360 363 363 363 362 362 361 360 360 360 359 359 358 357 355 357 357 358 359 358 359 358 359 357 357 357 358 358 359 359 356 354 355 355 353 354 357 357 354 353 351
348 353 356 362 361 363 363 362 360 360 360 359 359 358 357 358 358 356 357 358 356 357 358 357 357 357 357 357 358 360 359 358 353 353 352 352 356 357 357 354 356 355 352
350 353 355 361 362 362 361 361 360 361 360 359 359 359 359 359 358 357 357 357 357 356 356 356 356 357 359 360 359 360 360 358 354 352 351 351 356 358 358 354 352 354 350
354 354 356 356 359 362 361 362 361 361 360 360 359 359 359 359 358 358 358 358 358 357 356 355 357 358 360 360 360 360 359 358 352 352 349 351 356 355 350 351 351 351 352
352 353 353 354 355 354 357 360 362 361 361 361 359 359 358 358 358 358 359 360 357 356 355 356 356 357 359 360 360 359 358 357 353 353 351 353 356 351 353 356 355 354 353
350 350 350 351 350 352 355 359 361 362 362 362 359 359 358 355 354 354 357 358 358 357 356 355 355 358 358 359 359 359 356 352 353 352 352 355 357 357 356 357 353 354 355
345 348 348 348 348 351 356 355 355 357 356 356 355 351 351 352 354 354 357 358 358 359 356 357 353 355 350 350 352 358 350 352 352 352 353 357 359 357 356 355 355 352 351
345 348 347 346 349 351 352 352 353 353 353 353 351 347 350 351 353 354 353 352 354 352 343 346 344 347 349 350 350 349 349 350 351 353 354 358 358 356 354 355 354 349 349
344 346 346 347 349 349 351 351 351 352 352 352 348 344 348 347 348 350 350 351 351 348 341 344 346 347 348 349 349 348 347 349 349 352 355 356 358 354 353 354 351 352 352
343 344 344 346 347 346 349 349 350 351 352 351 347 347 347 345 345 348 348 348 348 348 345 345 347 348 348 350 349 348 345 348 349 351 354 356 357 355 354 354 354 353 352
342 343 343 345 347 346 347 348 349 349 351 351 350 349 349 345 345 347 346 346 347 346 346 348 347 347 348 348 345 346 346 347 349 351 353 352 356 357 355 354 353 355 354
341 342 340 344 346 345 346 348 348 349 351 350 349 349 349 347 347 346 347 346 346 343 345 347 346 347 347 345 343 346 346 348 348 350 351 351 354 356 357 356 353 353 354
340 340 341 347 346 345 345 347 349 349 350 350 348 347 349 349 347 342 347 347 346 343 346 346 344 343 342 342 343 345 346 345 346 348 350 351 352 354 355 357 357 355 353
339 340 340 344 344 345 345 347 348 349 349 349 348 348 349 349 350 345 345 347 347 343 345 348 345 343 342 341 341 344 345 345 345 345 346 349 350 352 351 351 355 358 356
339 340 341 343 344 344 346 346 346 348 349 350 350 349 349 347 354 349 348 347 347 344 343 346 344 343 343 341 341 340 342 345 344 344 345 345 348 349 350 351 351 352 356
339 339 340 341 342 343 342 343 343 344 347 350 350 351 346 349 352 350 350 348 349 346 346 346 345 341 343 341 338 338 339 340 343 343 344 345 346 347 348 349 349 350 350
339 339 340 341 341 344 342 344 345 344 347 348 350 350 354 355 352 349 350 349 349 347 348 347 346 343 344 340 337 335 331 334 335 337 341 342 344 346 347 349 349 349 350
338 339 340 342 341 345 342 343 343 345 346 346 348 348 352 353 354 354 352 349 346 348 345 346 346 345 339 342 340 338 331 328 330 337 339 339 342 342 344 347 349 350 351
339 341 342 342 341 344 342 342 343 341 341 344 346 349 351 356 352 352 353 350 347 349 347 347 348 346 343 340 341 337 339 336 333 332 337 339 341 341 343 343 345 349 352
340 340 342 343 342 343 343 342 342 341 342 346 346 348 350 353 354 352 353 352 350 349 350 351 349 349 346 344 343 337 338 338 336 334 334 337 342 343 344 343 343 345 347
340 340 341 340 340 341 343 340 340 341 341 342 345 345 347 350 353 351 352 352 352 351 349 350 352 350 349 351 349 343 338 339 337 336 334 335 336 342 343 345 345 346 347

GFSSE_sfc_thetae_093.txt.gz
Theta_e
346 353 357 358 360 360 359 359 360 360 360 360 360 361 362 362 361 360 361 361 362 364 363 363 363 362 363 363 363 362 361 361 361 360 361 360 360 359 359 358 359 352 357
348 354 361 360 361 361 360 360 359 359 359 359 358 358 358 359 362 361 361 361 362 361 362 363 363 363 363 363 362 362 360 360 361 361 359 360 360 359 357 355 357 357 355
348 354 354 361 361 361 361 360 359 359 361 360 358 357 357 357 357 360 360 360 361 361 362 362 361 361 361 362 362 361 362 361 359 359 354 355 353 356 357 358 358 354 357
350 354 356 363 363 361 362 360 359 359 361 360 360 359 357 357 357 357 359 359 358 361 361 361 360 360 361 361 362 362 362 361 360 356 357 352 349 357 359 358 358 358 356
353 357 359 362 363 362 362 361 359 360 359 360 359 359 357 356 357 356 357 358 358 359 361 360 360 360 359 358 360 362 359 358 357 354 357 355 354 358 359 355 352 353 353
354 356 361 363 363 362 362 361 359 361 360 359 358 358 359 355 358 356 357 358 358 359 359 359 359 359 359 359 359 360 360 358 356 356 356 353 352 358 358 355 353 352 353
351 357 360 364 364 363 362 362 360 360 360 359 358 358 358 356 358 357 358 358 358 359 358 358 358 358 358 359 360 360 359 358 356 356 356 354 356 358 354 358 356 352 353
352 355 357 362 362 363 363 360 360 361 359 360 359 359 358 358 359 358 357 357 356 357 358 357 358 359 360 360 360 360 358 357 356 355 353 352 358 359 355 355 355 351 352
354 355 357 359 361 361 360 361 360 361 360 360 360 360 359 358 358 359 358 359 357 357 356 358 359 359 361 360 361 360 359 358 355 352 346 348 357 353 350 350 351 352 352
353 355 359 361 362 361 361 361 360 361 360 360 359 359 359 359 358 358 358 358 357 356 357 357 358 359 359 361 360 358 358 356 354 351 349 349 356 351 355 354 354 354 353
351 354 356 358 359 361 359 362 362 361 361 361 359 359 359 360 359 357 358 359 357 356 356 356 358 358 359 360 359 358 353 354 353 351 350 355 355 356 357 355 354 354 354
348 354 357 357 358 360 359 362 363 362 362 362 362 362 361 362 359 357 358 359 359 356 356 356 358 354 355 356 360 356 354 353 353 353 352 353 356 357 357 354 353 351 350
349 353 355 357 357 358 358 360 360 360 360 363 362 360 361 360 359 358 360 358 357 352 355 350 350 353 355 356 357 356 355 352 351 354 355 355 355 356 354 355 353 349 350
348 351 354 356 356 359 361 358 358 357 358 357 358 358 361 358 358 360 358 359 359 352 352 354 352 356 356 357 355 355 354 352 350 353 354 356 355 354 353 355 351 352 353
345 349 352 354 356 358 359 358 358 356 357 358 356 357 360 357 357 358 359 357 358 356 352 355 357 357 358 356 357 356 354 353 351 352 354 355 355 355 353 353 353 353 352
346 348 352 351 357 358 358 359 358 357 358 356 355 358 357 358 356 354 355 355 357 358 356 358 358 358 357 356 354 355 355 355 353 353 354 355 355 356 356 354 353 354 355
346 350 351 350 354 357 358 358 357 357 357 357 360 360 359 358 357 357 353 353 356 357 355 359 359 359 357 353 354 354 355 355 352 353 355 354 355 356 357 357 355 353 353
344 348 350 348 352 355 356 356 356 357 359 362 361 360 359 359 358 356 356 354 355 353 355 356 357 354 353 351 353 354 356 356 353 352 353 353 355 354 355 357 358 357 355
345 348 348 350 352 354 357 355 357 360 359 363 362 360 357 359 358 354 355 356 355 353 354 356 356 354 352 350 350 354 356 354 353 351 352 353 353 353 355 357 353 355 356
346 349 350 350 354 356 356 356 356 358 359 361 361 361 358 360 359 357 355 356 355 351 353 356 356 354 353 351 347 349 351 353 354 353 353 352 352 355 355 357 357 356 355
346 347 350 351 355 355 353 351 352 353 356 362 360 360 359 357 361 361 357 356 356 353 354 357 355 352 353 354 348 348 350 351 351 352 353 352 352 354 355 356 357 356 356
345 346 350 351 355 355 354 356 357 357 358 361 359 360 359 360 364 362 360 358 358 354 359 357 357 352 354 353 345 346 338 342 347 347 350 349 351 352 352 355 357 359 359
345 346 349 352 354 356 357 357 356 357 357 356 356 357 362 360 361 363 361 360 361 359 355 359 357 355 349 352 350 346 339 335 341 348 349 351 353 351 352 353 355 357 359
345 348 350 352 353 355 358 356 357 352 357 353 357 358 359 363 362 362 362 361 360 359 358 357 357 357 353 348 352 350 351 348 338 338 349 351 353 351 354 354 353 355 358
345 346 349 352 353 355 356 358 355 355 354 355 356 360 361 364 364 359 363 362 360 357 360 360 360 359 357 353 351 350 351 350 350 344 338 343 351 352 353 353 355 355 357
345 346 347 351 353 354 355 355 357 357 356 353 355 354 356 363 361 364 362 362 363 360 360 360 363 360 360 362 359 356 350 348 346 345 343 344 345 348 351 354 356 358 360

GFSSE_sfc_thetae_096.txt.gz
Theta_e
350 353 357 361 360 360 361 361 361 362 361 361 362 363 361 361 361 361 362 365 365 364 364 364 363 364 364 363 363 362 362 362 362 361 361 361 360 359 358 358 361 356 358
351 354 361 361 361 360 361 361 360 361 360 359 359 359 361 363 362 362 362 362 362 363 364 363 363 364 364 363 362 362 362 361 360 361 360 360 359 358 359 359 358 355 358
350 354 357 363 362 361 361 360 359 361 360 359 358 358 357 358 361 361 360 360 362 362 362 362 362 363 363 363 362 362 361 362 357 353 359 350 354 360 358 355 359 358 355
351 354 355 363 363 363 361 359 359 361 360 360 360 358 358 357 359 360 359 360 361 362 362 361 361 361 362 363 363 362 362 359 356 357 351 349 355 359 360 359 359 355 352
353 356 360 361 363 362 361 360 359 361 360 360 360 358 358 359 357 358 360 359 360 361 361 361 360 360 360 362 361 360 359 358 352 357 352 353 356 359 354 354 353 353 356
353 356 360 362 363 362 362 360 360 361 360 359 358 359 356 359 358 360 359 359 360 360 360 360 360 360 360 360 360 360 359 355 359 353 348 355 356 358 354 354 354 355 356
351 357 360 364 362 362 361 361 360 361 359 359 359 359 356 359 358 359 360 360 360 359 359 359 359 359 360 361 361 360 358 355 352 351 351 356 353 357 359 357 353 353 355
351 355 359 363 363 362 362 361 360 361 360 360 359 359 359 359 358 359 358 358 358 359 358 359 360 361 360 361 361 359 357 355 353 350 350 357 359 356 358 357 352 353 353
352 356 358 359 363 362 362 361 360 360 360 360 360 360 359 358 359 358 358 358 358 358 358 360 360 361 360 361 361 359 358 355 351 347 346 353 356 351 351 352 353 353 353
353 356 357 358 359 361 361 361 361 360 360 360 361 359 359 360 359 358 359 359 358 358 358 360 360 360 362 361 359 359 357 357 350 348 346 348 354 356 357 356 355 355 354
352 353 355 358 360 359 359 361 361 361 361 360 360 359 359 361 356 356 360 358 358 358 357 359 360 360 361 360 359 356 358 351 350 349 354 357 356 357 357 354 355 357 352
349 349 354 355 357 358 356 363 363 360 361 361 362 360 358 360 359 356 360 359 358 357 358 358 356 355 359 354 356 357 349 349 349 350 352 357 358 358 356 355 353 350 349
348 349 352 357 358 357 364 360 358 357 358 360 362 359 358 356 357 357 357 353 354 358 353 354 355 356 356 355 353 348 349 347 348 350 354 356 357 356 354 357 351 350 351
348 350 354 356 359 359 359 356 355 356 356 355 359 361 357 355 356 356 352 354 352 354 356 359 354 358 358 358 353 349 347 345 346 349 353 356 355 354 353 355 353 352 353
348 350 353 355 356 362 360 355 356 356 356 358 357 360 357 353 355 354 356 353 353 353 355 358 358 357 359 355 355 353 350 349 348 349 351 355 355 355 353 353 352 353 352
346 349 352 351 356 358 359 360 358 359 360 358 357 360 361 356 355 355 355 354 355 356 356 360 361 358 357 355 353 354 354 352 353 355 352 355 355 355 356 355 353 352 353
346 350 351 350 356 359 359 359 358 359 357 357 364 362 361 359 359 359 355 355 355 357 360 360 361 361 355 352 353 353 354 356 354 356 358 355 356 355 356 356 356 354 354
345 350 351 349 354 358 359 358 356 359 361 363 364 361 362 364 362 361 357 355 357 356 358 358 358 356 351 348 350 352 353 356 356 358 359 357 357 355 356 356 357 358 357
346 350 350 352 352 356 360 359 360 363 360 359 367 360 363 364 362 359 357 360 360 356 356 356 356 357 350 350 347 351 356 356 356 353 357 359 359 358 357 359 356 355 355
345 349 351 352 356 359 358 359 358 360 368 360 361 362 363 363 364 359 357 360 357 354 354 357 359 355 352 351 346 348 354 356 357 357 356 355 358 357 357 361 360 359 358
344 348 351 353 359 357 355 353 354 354 364 359 360 364 364 362 363 364 357 360 357 355 358 359 355 354 349 355 347 344 347 350 352 354 356 356 354 357 357 359 360 358 359
345 349 352 355 360 360 357 358 358 357 358 358 361 363 361 362 363 362 362 357 358 355 361 360 360 348 351 353 344 344 339 340 345 348 352 352 352 355 356 357 361 363 361
346 348 352 355 360 361 361 362 364 365 367 360 363 358 360 362 361 361 360 361 362 361 353 359 358 358 345 353 355 347 338 335 342 345 348 351 357 354 355 358 360 362 362
348 349 352 357 359 360 364 361 361 352 349 353 357 358 358 360 361 360 360 361 362 359 360 359 359 358 357 346 352 352 353 352 340 337 345 349 352 353 358 357 356 360 363
350 349 351 356 359 360 363 363 361 357 350 353 356 367 362 362 361 360 361 362 365 359 362 361 363 363 355 352 349 351 354 354 355 344 338 343 349 351 353 355 358 358 362
349 350 351 355 359 361 361 362 363 359 357 355 356 369 362 357 358 362 364 365 367 363 363 362 364 364 363 359 354 353 350 349 346 347 345 347 347 348 352 355 358 359 361

GFSSE_sfc_thetae_099.txt.gz
Theta_e
351 355 358 360 360 361 362 363 363 362 362 363 362 361 360 361 361 362 365 366 367 366 365 364 364 364 362 361 362 362 363 361 363 362 361 360 360 360 361 359 358 353 357
351 354 363 362 360 361 361 361 361 360 360 360 361 362 362 362 362 364 363 363 364 366 364 363 363 362 363 361 363 362 361 364 362 361 359 359 359 359 358 361 361 356 358
350 354 359 364 361 361 361 359 359 359 359 358 358 358 359 361 361 361 361 363 363 363 362 363 362 364 363 362 362 361 359 358 359 364 363 354 355 356 360 359 355 356 359
350 352 357 365 363 362 360 359 360 360 360 360 358 358 357 360 360 360 361 362 363 363 362 363 363 363 364 363 363 361 357 355 354 358 350 352 354 358 358 356 354 357 359
351 354 361 364 364 362 360 360 361 360 359 360 358 358 360 358 360 360 360 362 362 362 363 361 361 361 362 360 360 359 356 356 358 355 352 354 350 353 355 355 355 357 359
352 355 361 363 362 362 361 360 360 360 360 359 358 357 358 359 360 360 360 361 361 361 362 361 361 361 361 361 361 358 356 357 359 348 350 353 352 356 354 355 356 359 358
351 355 358 365 363 361 361 361 360 360 359 359 359 357 360 359 359 360 360 361 360 360 360 360 360 361 360 361 360 358 356 361 350 349 353 348 357 358 356 353 354 355 358
350 354 358 362 362 362 361 360 361 360 360 360 359 359 360 360 359 360 360 360 360 360 360 361 361 362 362 362 360 357 357 360 349 351 355 356 356 358 355 353 354 355 356
353 352 357 359 362 362 361 361 361 361 360 360 360 359 359 359 359 359 359 360 360 361 361 362 361 362 362 361 359 355 356 358 346 347 351 347 356 354 355 355 354 354 354
350 352 355 356 358 361 361 361 361 360 360 360 360 359 360 360 359 359 362 360 360 360 361 360 361 362 361 359 357 355 356 358 347 347 346 351 359 358 356 356 358 354 350
348 349 351 356 357 360 358 361 361 361 360 361 358 358 358 357 356 356 360 359 359 358 360 360 360 361 361 360 358 357 358 350 346 350 353 357 358 359 354 354 357 355 350
345 348 352 354 355 357 354 361 361 358 360 360 359 361 357 360 358 352 358 359 358 359 358 357 358 361 362 356 355 359 350 348 346 349 355 361 358 356 356 355 350 350 350
346 349 353 357 358 357 359 358 356 358 355 358 360 359 363 354 356 351 354 354 355 358 353 355 354 354 355 349 347 345 346 346 346 347 355 359 359 356 359 354 351 352 352
346 350 353 358 361 359 356 355 355 355 356 354 354 358 357 357 359 363 350 351 355 355 355 356 354 358 352 352 349 345 344 343 345 346 354 356 356 354 354 354 354 352 352
346 348 351 356 361 359 362 354 352 354 356 353 355 359 359 354 353 353 355 351 352 353 354 356 356 356 355 351 350 350 347 348 348 350 347 357 356 355 352 353 352 352 353
347 348 351 352 360 359 359 361 358 357 357 361 356 357 357 356 355 352 354 351 351 352 355 361 358 355 354 351 350 352 351 351 353 355 352 353 356 356 356 354 352 352 351
347 349 350 352 355 358 358 358 363 356 356 360 357 362 360 358 357 359 357 362 352 357 359 358 361 359 357 347 351 352 352 353 353 354 353 354 356 357 357 357 356 355 354
346 349 350 350 354 356 359 359 359 361 358 358 358 358 361 362 362 363 354 352 356 355 353 355 359 352 347 346 348 350 349 351 352 354 353 354 352 356 358 358 358 358 358
348 350 349 352 353 355 359 358 358 363 359 358 360 361 363 363 362 362 358 360 360 355 357 356 355 351 349 346 346 348 350 350 351 350 352 354 353 355 355 360 361 360 358
347 350 352 351 357 360 358 362 359 356 360 361 358 358 363 363 363 362 359 361 359 359 352 355 362 352 355 348 344 345 348 351 351 350 350 351 353 355 355 358 360 359 361
346 349 352 354 360 358 354 351 355 354 360 361 359 361 362 362 362 364 357 358 360 360 356 358 352 355 347 349 348 343 345 348 349 349 351 351 351 352 353 355 359 357 359
344 348 352 356 360 358 354 360 362 358 358 364 359 362 365 361 361 360 364 357 364 356 360 358 358 351 348 349 344 343 336 339 344 345 347 348 349 352 351 356 357 361 361
343 348 352 357 360 361 367 364 361 363 360 357 358 358 360 361 360 362 360 364 362 360 354 358 357 361 349 347 357 348 339 336 339 345 348 348 352 351 354 355 357 360 363
344 348 353 357 361 361 363 364 362 352 350 354 362 356 358 362 363 361 362 361 362 360 363 358 354 361 361 346 347 348 355 354 345 336 344 348 353 353 356 354 355 361 364
346 346 351 357 361 364 364 366 358 358 354 358 357 363 364 364 361 360 362 362 362 360 366 366 361 365 353 354 359 347 354 349 352 344 340 343 348 350 352 354 356 357 361
346 347 349 356 363 363 363 362 363 358 360 353 355 356 356 355 358 362 361 362 364 359 363 361 364 364 366 365 358 352 349 348 344 347 344 345 344 348 350 354 356 357 359

GFSSE_sfc_thetae_105.txt.gz
Theta_e
347 355 362 362 361 362 361 361 361 361 364 364 365 366 366 366 367 367 366 365 366 366 366 366 366 364 364 363 363 364 364 363 364 362 359 359 358 360 362 359 357 350 358
351 356 364 363 363 363 362 361 361 362 363 364 366 364 365 365 366 366 366 364 366 366 364 363 363 363 362 362 361 362 362 364 364 363 360 358 359 359 360 359 358 352 358
352 357 359 364 362 362 360 359 359 358 359 361 363 364 363 363 365 366 365 364 364 366 364 363 363 361 362 362 360 359 359 361 362 361 359 353 347 358 360 359 359 356 356
352 352 357 363 363 360 362 361 360 359 359 358 361 362 361 363 365 364 364 363 366 366 364 364 363 362 360 361 360 359 358 359 359 359 350 348 349 359 360 359 359 359 358
348 351 356 364 363 362 361 361 361 361 359 360 359 360 362 361 363 363 364 363 363 362 363 362 360 359 359 360 360 362 359 362 360 349 345 344 347 355 359 358 354 357 359
352 356 362 364 361 362 361 361 361 360 358 359 359 360 360 361 362 362 363 363 363 362 362 362 361 360 359 359 361 363 361 360 356 350 350 350 344 355 359 359 355 355 358
353 357 358 365 363 362 361 361 361 359 358 361 360 360 361 361 362 363 362 362 362 362 362 362 362 359 359 358 359 360 364 359 349 351 351 350 348 356 355 358 357 354 355
351 355 356 363 364 362 362 360 360 360 359 361 362 361 363 362 362 364 361 361 363 362 362 362 361 360 358 356 358 362 362 360 348 344 347 349 356 355 355 355 356 357 354
352 353 355 356 358 361 362 361 361 360 361 361 361 361 363 361 361 363 362 362 363 362 361 361 361 359 358 355 356 360 364 359 344 343 346 349 359 357 355 354 355 355 356
350 351 353 354 354 354 355 362 361 361 361 361 360 360 362 360 361 362 364 364 362 361 361 361 360 358 357 357 358 358 364 355 347 350 352 354 358 356 358 355 350 355 354
349 351 352 352 351 352 353 357 360 361 361 360 360 359 360 350 351 355 361 363 361 361 360 360 359 357 356 357 360 361 360 346 348 350 352 358 357 354 356 356 350 350 353
343 348 350 351 351 352 355 353 352 356 353 352 351 350 350 349 348 354 358 361 360 360 360 359 359 359 359 351 350 359 352 349 350 351 355 360 359 356 353 350 350 350 349
345 347 350 349 351 350 353 353 352 351 351 351 351 349 349 347 350 350 351 351 350 357 352 357 357 356 355 353 353 350 345 348 347 347 355 358 359 357 355 351 352 352 350
344 345 348 352 344 342 345 349 350 351 349 349 347 352 345 348 345 345 348 348 348 351 344 348 343 345 347 351 348 337 341 341 344 350 356 361 359 360 356 353 353 352 350
345 348 348 344 343 340 335 344 347 347 348 348 350 351 349 348 344 346 346 348 346 347 345 344 350 345 344 344 344 339 341 340 342 347 348 359 360 359 355 353 354 353 354
345 348 351 342 342 340 335 344 342 347 348 349 348 353 352 347 347 347 348 347 349 351 351 343 345 346 346 343 341 344 342 344 342 343 347 351 360 359 358 355 355 354 354
347 349 349 346 344 339 341 348 344 346 349 350 350 354 351 349 349 345 347 350 351 349 345 344 345 352 349 345 342 342 344 344 345 342 345 348 354 361 359 359 359 359 356
343 343 346 352 349 349 347 345 341 344 344 343 354 351 354 354 354 349 351 349 347 347 344 348 343 340 345 346 340 342 343 346 344 345 347 346 348 348 358 362 362 362 359
343 342 342 348 348 350 347 346 340 341 346 346 354 354 352 352 354 351 351 353 349 350 348 343 345 342 343 341 341 341 342 343 344 348 343 347 347 349 349 357 361 362 361
343 341 345 345 349 347 351 349 347 347 348 349 350 353 353 355 355 348 353 349 352 346 344 343 343 351 346 339 344 340 340 344 344 343 344 347 346 350 350 351 353 356 362
344 340 348 347 351 347 349 349 349 348 349 347 346 355 354 355 353 347 347 350 348 347 346 342 347 346 346 345 341 341 338 337 338 343 342 345 344 349 351 352 352 354 355
342 343 348 351 350 346 350 351 351 346 351 351 353 353 355 354 354 351 349 349 352 347 347 347 349 346 346 341 337 340 330 333 338 339 338 342 341 345 347 349 351 352 352
342 345 349 350 350 352 350 347 345 345 349 349 350 352 354 354 354 355 354 352 348 351 347 348 347 345 340 341 340 340 331 329 331 335 335 339 339 344 346 350 351 353 353
342 347 351 350 349 352 353 347 338 342 342 345 349 353 353 355 355 352 354 352 352 348 348 350 353 350 348 343 344 342 341 341 334 328 338 341 344 343 344 348 350 352 353
343 345 352 351 349 350 353 350 347 339 336 342 346 350 352 354 355 354 353 353 351 347 347 347 351 350 351 349 345 346 340 345 344 337 335 340 343 345 346 346 352 352 357
342 346 350 351 350 353 351 350 346 333 332 340 344 348 349 350 351 354 354 352 351 351 348 351 351 351 350 351 353 348 346 339 338 331 338 338 337 339 344 346 344 348 356

GFSSE_sfc_thetae_108.txt.gz
Theta_e
347 354 361 361 361 360 361 361 361 361 363 364 362 363 362 364 364 363 363 363 363 363 364 363 364 363 362 361 361 361 361 361 360 359 358 356 359 359 357 355 357 354 359
352 356 363 364 362 362 362 361 361 362 362 362 364 362 365 363 364 363 363 363 362 363 363 363 361 361 361 362 360 359 361 363 364 360 360 360 360 359 356 354 358 356 359
352 357 360 364 363 362 361 360 361 362 361 361 363 364 365 363 363 364 363 363 363 364 362 362 362 361 360 360 359 358 360 363 359 358 354 346 353 359 359 355 355 356 358
355 355 357 363 362 360 359 358 358 358 360 362 361 363 364 363 364 363 363 363 363 364 363 362 361 360 359 358 357 357 363 364 360 356 346 348 353 359 359 359 357 355 357
351 354 356 363 362 361 361 362 360 358 358 360 361 362 362 363 363 363 363 363 363 365 361 361 360 360 359 358 358 359 358 359 355 350 345 345 347 357 356 354 356 356 354
350 354 361 361 361 361 362 361 361 359 361 359 361 361 362 363 363 363 363 362 362 362 361 359 359 360 360 361 360 362 362 357 354 346 345 348 346 358 357 353 356 357 353
352 355 356 364 362 361 361 361 360 357 359 360 360 360 362 362 363 362 362 362 362 362 361 360 360 360 360 360 361 361 360 357 350 347 345 345 349 357 357 353 355 353 352
353 355 357 362 362 362 361 361 360 359 361 360 360 361 361 362 363 362 361 362 362 362 361 360 359 359 358 361 364 363 360 358 352 349 347 346 355 355 355 356 355 353 352
354 353 354 355 358 361 361 361 360 360 360 360 360 361 362 362 362 362 363 363 362 361 360 359 357 357 358 359 362 366 358 354 342 344 348 349 358 354 353 354 355 356 353
352 354 353 352 352 353 354 361 361 361 360 360 360 361 361 362 361 361 364 365 361 360 359 358 357 356 356 358 361 365 356 352 343 346 349 351 358 358 355 350 355 354 354
349 350 352 351 351 351 353 357 360 361 360 359 360 360 357 350 353 355 361 363 360 360 359 359 357 355 355 357 358 362 355 345 347 350 351 357 357 356 357 351 350 352 353
345 348 350 350 349 351 356 353 351 355 351 350 350 350 349 347 350 354 358 362 361 360 359 358 357 357 357 352 348 356 347 347 348 350 352 357 358 353 352 350 350 349 350
347 348 350 349 350 349 351 350 351 350 349 349 348 347 346 347 350 349 351 351 350 357 351 355 353 353 352 353 352 348 347 347 348 351 355 360 358 356 352 351 351 351 350
344 347 349 348 345 342 347 348 348 347 349 348 348 346 343 344 344 346 346 347 346 348 344 348 344 347 345 346 347 345 343 343 343 346 351 359 360 358 354 353 353 354 352
342 346 346 345 339 335 341 344 345 346 347 347 345 349 346 345 341 344 346 346 345 343 344 343 345 342 342 339 337 339 339 341 343 349 350 358 359 360 357 354 355 354 353
344 344 343 344 342 334 335 342 340 344 346 347 348 348 347 345 342 344 343 344 344 347 346 342 343 345 344 339 339 338 338 339 341 344 346 350 359 359 356 355 355 355 355
346 345 342 341 342 335 337 343 342 347 346 347 349 350 347 344 345 344 345 345 345 344 339 340 346 344 344 344 339 340 340 341 340 341 344 346 351 358 356 357 358 358 356
346 345 344 346 340 336 340 344 340 343 344 343 348 348 348 346 344 348 346 344 345 345 343 346 340 338 343 343 338 339 341 342 341 339 342 343 346 349 355 361 361 362 359
346 346 344 344 343 344 346 342 338 341 341 343 349 351 350 352 353 348 350 346 347 347 343 341 342 340 340 338 338 339 340 341 341 345 344 344 343 346 345 352 361 362 361
344 340 347 345 345 345 345 343 343 343 344 347 349 349 352 352 350 348 352 348 347 343 341 340 341 345 342 338 342 338 340 340 342 342 343 344 345 346 347 347 348 355 361
339 341 342 343 344 346 344 342 341 341 345 345 345 352 350 353 348 346 347 347 346 343 341 344 348 343 342 342 337 338 335 336 337 340 342 342 343 346 349 348 348 350 352
337 343 343 345 343 344 348 347 348 347 347 346 345 351 352 353 349 346 346 346 347 344 344 344 346 344 341 338 336 335 327 330 334 336 338 340 341 342 348 350 350 351 352
340 344 346 346 342 344 347 347 344 345 346 346 347 347 351 352 352 352 349 347 347 347 343 344 346 345 341 341 340 336 328 325 329 332 333 337 336 340 345 348 349 351 349
342 345 347 347 346 348 346 342 340 342 340 344 345 347 350 351 351 352 351 349 348 346 345 347 352 347 344 343 342 343 338 338 329 327 335 340 341 343 341 343 346 347 350
343 346 346 346 345 349 349 343 341 340 340 342 345 348 348 349 351 351 351 351 347 344 345 347 348 346 348 347 344 342 340 338 336 334 331 337 340 341 344 344 345 348 352
343 347 346 344 344 347 348 347 342 335 337 339 343 345 346 347 349 350 350 350 349 347 345 349 348 347 347 349 348 345 339 336 329 333 334 334 334 338 341 344 343 347 353

GFSSE_sfc_thetae_111.txt.gz
Theta_e
345 351 359 361 360 360 361 361 360 360 359 359 361 361 363 362 363 363 362 361 362 362 362 360 362 359 361 361 361 360 359 359 359 357 357 360 359 356 356 359 358 354 358
350 354 360 362 360 360 360 360 360 360 360 360 360 362 363 363 363 363 362 362 363 363 362 362 361 360 358 358 360 361 361 362 361 360 359 359 357 354 356 359 358 355 357
352 355 357 362 361 361 361 361 361 360 360 360 360 362 362 363 363 363 363 362 363 363 362 361 361 360 359 359 359 361 359 361 358 356 359 352 353 355 354 355 358 358 357
353 355 356 362 362 360 359 359 361 361 361 360 361 362 362 363 363 363 363 363 363 363 362 361 360 359 359 358 357 359 359 359 354 355 347 350 353 359 358 356 355 358 358
352 354 356 360 360 358 357 357 357 359 361 360 361 361 362 362 363 363 362 363 363 363 361 360 358 357 357 357 358 360 360 356 355 350 345 346 350 353 356 357 354 354 353
351 353 358 362 361 360 360 359 357 357 358 361 360 360 363 363 362 362 361 362 361 360 360 360 360 358 357 359 358 358 357 356 353 345 345 351 350 353 354 357 355 354 353
350 353 355 362 360 361 359 359 359 359 359 359 361 360 361 363 362 363 361 361 361 360 359 360 360 359 358 359 359 359 357 355 346 343 343 345 350 357 353 356 352 351 355
352 352 355 360 361 361 359 360 357 360 359 360 360 360 362 362 362 361 361 362 361 360 360 359 359 359 360 361 363 359 356 353 349 345 344 345 355 357 356 353 352 351 352
353 352 352 354 358 360 359 359 359 361 360 360 359 361 361 361 361 361 362 362 360 359 359 358 358 358 360 361 360 360 358 356 344 343 347 347 357 353 354 355 355 352 351
351 352 351 351 352 352 354 359 360 361 360 359 360 361 361 360 360 361 364 363 360 358 357 357 357 358 358 359 363 356 355 355 340 344 347 349 357 354 350 350 358 353 350
350 349 348 349 350 350 352 356 359 360 359 360 358 360 356 350 352 354 360 361 359 358 358 357 356 357 357 357 361 357 353 344 345 348 348 355 358 359 352 349 350 354 352
345 347 348 348 348 350 355 351 351 353 349 350 350 348 347 347 349 354 356 359 359 358 358 357 356 356 357 348 346 356 343 345 347 348 349 357 355 354 354 348 348 348 350
346 348 348 347 348 348 350 348 349 348 347 347 347 346 346 347 348 349 348 348 349 355 349 352 351 351 351 351 351 347 344 345 346 349 352 358 355 352 350 350 350 350 349
345 346 347 347 347 347 348 347 347 347 346 345 345 344 343 343 345 346 346 346 345 346 344 346 343 345 344 348 349 345 344 345 346 346 349 357 357 357 353 351 352 353 353
343 346 346 346 342 344 344 345 344 346 347 345 345 345 343 343 341 343 344 344 344 342 342 342 342 345 339 336 342 345 342 341 343 346 347 356 356 359 356 354 354 355 354
344 345 345 342 338 338 339 342 341 343 344 346 343 346 344 344 340 341 343 343 343 344 344 340 342 345 338 337 336 339 339 339 340 344 346 349 359 357 357 356 355 355 356
344 345 344 341 335 334 338 342 340 345 345 345 349 346 344 344 343 341 342 342 343 343 338 342 345 338 341 340 337 337 337 337 338 339 341 343 346 358 356 356 357 359 358
344 342 341 344 339 333 336 342 342 342 343 344 347 348 346 345 344 344 343 343 345 342 342 342 338 338 341 341 337 338 339 340 340 338 339 340 343 346 351 360 362 362 360
344 342 341 339 335 335 342 341 337 341 341 342 347 346 347 347 348 345 345 344 345 344 341 340 341 341 338 336 338 338 338 340 341 344 339 341 341 344 343 348 356 360 361
344 343 342 341 341 343 342 338 339 340 340 344 347 347 347 351 348 349 346 346 344 341 340 339 340 343 341 339 339 339 338 339 342 340 341 344 344 345 344 344 345 347 356
341 340 342 341 342 343 341 337 337 337 340 344 345 348 349 350 347 348 347 345 345 343 340 345 344 341 340 339 335 335 334 336 335 338 340 340 341 344 346 348 347 348 349
339 341 340 342 342 343 344 345 343 343 344 344 344 348 349 350 346 346 344 343 343 343 342 343 344 340 338 337 336 332 326 328 331 335 335 338 338 341 343 348 348 349 349
337 340 340 342 342 343 347 345 343 345 345 344 343 346 348 350 348 347 346 345 346 345 341 343 345 343 340 341 339 334 327 323 327 329 333 336 337 336 341 344 347 348 348
338 342 343 343 340 344 346 343 341 340 338 341 342 345 347 349 350 351 350 347 348 346 344 345 350 345 343 341 341 341 337 335 326 325 332 338 340 341 340 341 343 344 347
341 342 344 343 343 344 344 342 340 340 340 343 344 345 345 347 349 350 349 348 344 343 344 346 345 345 346 345 342 340 338 332 333 331 328 334 340 338 340 343 343 346 348
342 343 344 342 343 346 346 342 340 339 339 339 341 343 344 345 347 347 349 349 346 343 343 347 347 345 346 346 346 343 337 335 327 333 330 332 334 338 339 344 344 347 352

GFSSE_sfc_thetae_114.txt.gz
Theta_e
343 351 360 360 360 361 359 359 359 358 359 361 360 360 360 362 361 361 362 361 362 363 361 360 360 361 361 361 361 360 358 358 356 360 360 357 357 359 359 359 358 354 358
347 353 362 361 360 360 361 360 360 359 359 360 362 361 361 362 362 361 362 361 361 361 361 360 359 359 360 361 360 360 360 361 360 360 358 355 356 359 359 359 358 356 358
350 354 356 362 360 359 359 359 359 359 359 360 362 362 362 362 362 362 362 363 363 362 361 361 360 360 360 361 361 360 360 358 358 359 359 354 352 355 357 360 359 358 357
352 353 355 361 361 360 360 360 360 359 359 361 361 362 360 362 361 362 362 362 362 361 361 360 360 359 358 359 358 358 357 354 357 357 353 354 355 359 356 357 359 358 357
352 354 356 360 359 359 358 359 359 359 360 361 361 361 361 363 363 363 362 363 361 362 360 359 359 358 359 358 360 359 356 354 355 352 352 353 352 356 358 354 354 354 357
351 353 358 359 358 358 357 357 358 360 359 360 360 361 361 362 362 362 362 362 361 360 360 359 359 358 357 357 357 355 356 354 353 349 351 355 351 354 358 354 354 354 352
349 352 356 362 360 360 360 357 357 357 360 359 360 360 361 360 361 361 362 360 360 360 360 359 359 359 358 358 358 360 355 354 346 347 349 353 354 354 356 353 351 355 353
350 351 355 359 360 360 359 358 358 359 358 360 359 360 362 360 361 360 362 361 359 359 359 359 359 359 359 358 358 357 353 351 348 347 348 351 357 356 352 352 350 352 353
352 351 353 354 357 360 359 357 358 358 359 360 360 361 362 360 361 362 361 360 360 359 358 358 358 360 360 360 359 358 356 353 346 347 348 351 356 353 354 356 352 351 350
350 350 351 352 352 352 353 359 358 358 359 359 360 360 360 360 361 360 362 361 359 358 357 357 358 358 359 359 358 356 357 353 345 347 350 351 357 350 350 354 355 351 349
350 348 349 349 350 352 353 356 358 359 359 360 360 360 355 353 355 357 361 360 359 358 357 357 357 357 357 358 359 352 352 345 346 349 350 353 357 355 348 348 349 354 351
346 347 347 348 349 351 356 352 352 354 351 352 351 349 350 351 353 356 359 360 359 359 358 357 356 355 355 350 350 356 348 348 349 351 352 355 353 355 353 347 348 348 350
346 348 347 348 349 350 350 349 349 348 348 348 348 348 349 349 351 351 351 352 352 355 350 352 351 350 352 353 355 352 347 348 350 352 353 355 354 352 350 349 350 351 351
344 346 347 347 347 348 349 348 347 347 346 346 347 347 346 346 348 348 347 348 349 348 347 350 346 348 347 349 352 350 347 348 349 351 352 356 356 357 356 352 352 353 354
343 345 346 346 345 346 346 346 346 347 347 347 347 346 347 346 345 346 347 347 348 347 347 347 347 349 343 341 347 351 347 348 348 349 350 354 356 357 359 356 355 356 356
344 345 346 345 343 344 344 345 344 347 348 347 347 348 347 346 344 347 347 346 348 348 348 346 348 348 344 343 343 348 346 345 345 347 349 351 357 358 356 357 358 357 357
344 345 344 342 339 341 342 343 343 348 348 347 347 348 346 348 347 346 347 346 349 348 347 350 346 346 348 345 344 343 343 343 342 343 345 346 348 351 357 358 358 359 359
344 343 344 344 335 337 339 344 344 346 346 348 350 349 348 348 349 348 348 348 350 349 347 345 347 346 346 346 344 344 345 344 345 345 344 344 346 346 349 353 356 361 360
344 342 342 341 336 334 339 343 342 345 346 346 350 349 349 349 350 350 348 349 351 349 348 345 347 348 345 343 344 344 345 345 346 346 346 346 346 348 348 349 353 356 358
343 342 342 340 336 337 342 339 340 343 344 346 350 350 351 352 352 351 350 351 349 348 345 346 349 348 347 344 342 343 344 345 348 347 346 347 349 351 352 351 352 352 355
343 341 340 338 339 342 340 336 338 339 342 346 349 351 351 352 352 351 349 350 349 349 348 351 350 347 346 343 344 342 342 341 343 343 347 346 347 349 351 356 355 353 354
341 341 340 341 341 343 343 342 342 342 345 347 348 351 351 352 350 350 349 349 349 350 349 349 350 347 346 344 344 338 334 338 340 340 341 343 344 346 348 351 353 356 356
339 340 341 342 342 344 346 345 345 347 347 346 346 349 352 353 350 351 350 349 352 351 348 350 351 349 346 348 345 342 336 333 334 339 344 345 347 346 349 350 352 354 357
339 341 342 342 342 344 346 345 344 343 341 344 344 348 350 353 352 351 352 351 353 351 351 352 354 351 350 346 348 345 343 342 337 334 345 348 350 348 348 351 352 354 356
340 340 342 342 341 345 347 345 343 343 344 345 346 348 349 352 352 353 353 351 351 351 351 354 352 352 353 350 347 345 344 337 339 339 339 343 351 349 349 350 352 357 361
339 341 343 341 341 344 345 344 342 342 342 344 345 346 347 350 350 350 352 352 351 350 350 353 353 352 353 351 353 348 345 343 341 343 337 340 341 346 349 353 356 357 360

GFSSE_sfc_thetae_117.txt.gz
Theta_e
348 354 358 359 360 359 359 359 358 360 361 362 361 361 362 362 361 361 361 362 361 363 362 362 362 360 361 360 360 360 357 359 359 358 357 359 359 360 359 358 359 356 359
350 354 359 358 361 361 359 359 359 360 360 361 362 362 363 361 361 361 361 361 360 363 361 361 361 361 361 360 361 360 360 359 360 357 355 359 361 360 360 359 360 358 359
350 355 356 360 360 360 359 359 359 359 361 363 362 362 363 362 362 361 361 362 361 363 361 361 360 361 361 360 360 359 358 360 360 360 355 351 353 359 360 359 358 358 357
351 356 357 359 361 360 360 359 359 359 362 362 361 362 362 362 362 360 362 362 362 362 361 360 359 360 359 359 361 356 356 358 359 357 356 354 355 357 357 359 358 358 356
353 356 359 360 361 360 360 360 360 360 361 361 362 361 361 362 362 361 363 362 362 361 360 360 360 360 360 361 359 357 355 357 357 356 355 352 356 358 354 353 354 358 358
354 356 361 359 358 358 358 360 360 359 361 360 361 361 361 362 362 361 362 362 361 360 359 360 360 359 358 359 357 357 355 355 354 357 356 351 353 358 355 354 358 353 354
354 355 357 359 359 358 357 356 358 359 359 360 361 360 361 361 362 361 361 361 360 360 360 360 360 359 360 360 360 358 355 353 352 355 357 355 353 355 354 352 356 356 352
349 355 358 359 360 359 357 358 357 358 360 360 360 361 361 361 361 363 361 360 360 360 360 360 361 359 359 359 359 355 351 349 346 349 354 355 358 357 355 353 352 353 352
352 357 358 358 359 358 358 359 358 357 358 359 361 361 361 360 360 361 362 361 359 358 359 360 361 361 360 359 359 357 356 350 346 348 346 349 356 354 357 356 354 353 353
353 355 356 358 359 359 357 358 359 359 358 360 361 361 362 361 361 361 363 362 360 359 358 359 359 359 359 358 358 357 356 348 346 349 352 355 356 352 351 358 355 354 351
351 354 355 355 357 358 358 358 359 359 359 360 361 361 361 362 360 357 362 360 359 358 358 357 356 356 358 360 356 352 351 349 349 349 351 354 356 358 351 350 350 353 352
348 351 355 354 356 357 357 360 360 360 360 362 362 362 360 362 361 358 361 360 359 358 357 356 357 356 354 355 357 357 358 353 352 353 352 354 354 354 354 351 350 350 350
348 351 354 356 357 358 359 359 357 358 357 359 361 360 360 358 360 360 359 358 358 356 356 356 355 355 355 357 361 359 358 355 351 352 352 354 354 355 354 352 351 352 353
348 350 354 355 358 360 358 355 355 354 354 353 356 358 357 355 357 356 355 358 358 356 357 357 356 357 354 356 358 358 356 354 350 350 352 354 357 357 358 357 355 355 355
347 350 353 356 358 358 358 355 355 355 354 353 355 356 357 354 355 354 357 355 356 358 356 356 357 355 352 351 357 359 355 356 350 352 351 351 355 356 356 358 358 358 358
347 349 352 354 357 357 355 357 356 358 356 355 355 356 357 355 355 355 357 355 357 358 357 357 357 357 354 352 353 358 357 355 352 352 352 354 353 358 358 356 357 359 359
348 350 351 352 354 354 356 355 356 358 356 355 355 357 356 357 358 357 356 357 358 359 359 358 356 358 355 352 352 354 355 354 352 354 354 354 354 352 353 356 359 360 360
349 351 351 351 350 353 355 355 355 357 357 358 358 354 354 358 360 359 358 358 361 360 357 356 356 357 355 356 355 355 355 355 356 357 356 355 355 354 359 355 355 356 358
351 352 352 352 348 351 353 354 355 357 357 359 361 359 358 358 359 362 359 359 362 360 357 356 358 358 354 353 351 355 356 355 354 353 355 356 357 356 357 361 356 356 358
352 353 353 352 348 347 352 353 354 355 355 359 362 359 360 359 360 361 358 361 360 358 356 359 361 357 354 351 349 351 355 356 356 355 354 354 355 356 357 361 360 359 359
351 352 353 352 350 346 348 347 349 350 353 356 361 359 361 361 361 362 359 360 360 358 359 362 360 357 354 356 354 351 351 352 354 354 354 353 355 355 357 359 360 359 360
350 352 352 352 351 349 348 349 351 353 354 356 358 360 360 360 360 362 361 360 361 359 361 362 362 356 356 357 351 351 342 345 349 348 352 351 353 353 356 359 361 364 363
349 351 352 352 349 350 353 351 353 354 357 353 355 356 359 361 359 360 360 360 362 362 357 361 361 361 353 356 358 349 342 338 345 350 352 354 358 356 357 360 363 365 368
349 351 352 352 350 353 356 352 353 348 349 356 358 359 360 361 361 359 360 360 364 361 361 363 362 362 361 354 359 354 355 354 346 341 351 355 357 356 360 359 363 366 368
349 349 351 353 354 354 356 356 353 356 359 354 357 359 361 362 362 359 361 361 363 361 362 365 363 364 360 355 354 356 355 348 354 348 343 348 356 357 358 362 363 362 364
348 349 350 352 353 355 356 356 357 357 357 359 356 353 358 357 358 361 362 361 362 361 361 364 364 362 361 360 357 358 354 351 348 347 346 350 350 354 359 361 361 362 361

GFSSE_sfc_thetae_120.txt.gz
Theta_e
349 354 358 359 359 360 359 359 360 359 362 362 363 363 362 362 362 364 364 362 363 362 361 361 362 361 362 360 358 361 361 360 358 360 360 361 360 360 359 358 361 355 359
351 354 358 360 360 360 360 360 361 362 361 363 364 364 362 362 362 361 361 361 361 362 361 362 362 362 361 361 361 361 361 362 359 357 361 361 360 360 360 360 361 358 358
351 355 356 362 361 360 360 360 361 363 364 363 364 364 362 362 361 362 362 362 363 363 362 362 362 361 361 360 359 361 361 360 359 355 353 350 359 359 360 359 359 356 359
352 353 356 360 361 359 359 360 361 363 363 362 363 363 362 363 361 362 363 362 363 364 361 361 361 360 362 359 357 358 360 360 358 361 354 351 349 356 359 360 359 356 358
353 355 359 361 361 360 361 361 361 363 362 362 362 363 363 362 364 363 362 363 362 361 361 360 361 361 361 360 356 356 358 358 355 356 349 356 356 354 356 356 359 359 356
352 355 359 360 361 361 361 361 361 362 362 362 361 361 362 362 362 363 362 361 360 360 360 361 359 360 360 358 359 355 355 353 359 355 349 355 361 355 355 359 356 353 353
350 354 356 357 357 357 357 360 361 361 362 362 361 360 361 362 362 363 362 362 361 361 361 360 361 361 362 361 358 355 352 351 351 353 354 354 354 355 353 355 356 353 352
347 355 354 359 360 358 357 357 359 361 361 361 361 360 361 361 363 363 362 361 361 361 362 361 360 360 360 359 357 354 351 350 348 348 351 353 359 359 357 355 353 353 352
353 356 358 358 360 360 360 359 358 360 361 362 361 361 361 361 361 363 361 360 360 360 361 361 361 361 360 361 359 358 351 347 347 350 347 348 356 353 357 357 354 352 352
352 353 356 355 359 356 357 359 358 359 360 361 362 362 362 362 362 362 363 362 360 360 359 360 360 360 359 360 358 356 353 349 346 348 350 355 358 355 350 352 352 355 353
349 352 353 354 357 356 357 359 359 360 361 362 362 361 361 363 356 359 361 360 359 358 357 357 357 357 358 360 355 354 355 346 346 346 345 355 355 358 354 350 350 350 350
348 351 352 353 352 354 354 361 361 359 357 362 360 361 361 359 360 356 360 360 359 356 357 356 356 356 357 353 355 357 347 347 346 348 347 353 353 354 353 351 351 352 353
347 348 350 356 358 359 360 359 356 355 357 361 361 360 356 354 355 354 356 356 356 356 356 356 358 355 355 355 355 351 350 347 346 347 349 353 354 355 356 356 354 354 355
347 349 351 355 359 357 354 353 352 352 353 353 357 358 356 354 357 356 355 356 360 358 358 358 354 357 353 356 355 353 352 350 348 348 349 353 355 354 355 358 359 359 359
347 349 351 355 358 358 358 353 351 350 351 353 354 356 356 355 357 357 360 356 358 358 356 357 356 355 352 352 355 356 353 354 352 352 350 351 352 355 355 355 357 359 360
347 349 351 353 356 358 357 358 354 353 354 353 351 357 361 357 358 357 357 355 357 357 359 357 359 355 351 351 352 355 355 354 356 358 356 356 353 354 357 358 358 360 362
347 350 350 353 355 358 359 356 353 353 352 351 353 361 360 359 361 361 357 356 357 360 362 360 362 360 351 350 353 354 354 357 357 358 359 358 357 355 354 355 357 358 360
348 350 351 350 354 357 359 357 353 354 353 352 355 355 359 361 362 362 357 356 360 361 357 357 356 353 352 352 353 354 355 359 358 360 360 359 359 358 359 357 356 357 359
350 351 351 352 352 356 359 357 358 361 354 354 356 355 360 360 362 363 357 358 366 360 357 356 355 356 353 352 349 352 355 358 358 355 358 361 360 361 361 359 359 360 360
351 354 356 355 356 358 357 359 358 355 354 356 356 356 361 360 362 363 357 361 363 359 355 359 361 358 357 354 348 349 355 356 358 358 356 357 358 360 360 364 364 361 363
352 354 354 355 357 354 353 350 350 350 353 354 356 361 363 361 363 367 358 360 362 357 361 363 360 358 353 358 350 347 349 353 356 355 355 355 356 358 361 363 362 362 362
352 354 356 357 359 353 353 354 353 354 353 354 357 360 360 361 363 361 363 360 362 358 362 364 364 354 354 358 349 349 341 343 349 351 355 354 358 359 359 362 365 367 366
352 353 355 358 359 359 356 355 356 362 362 358 355 356 358 360 360 362 364 362 364 361 355 362 363 365 351 358 361 350 339 338 344 350 355 357 361 358 358 361 364 368 368
351 354 356 358 359 357 358 356 357 349 352 358 364 357 357 361 360 360 361 363 364 360 363 363 361 364 365 353 359 357 359 358 344 340 351 356 360 359 362 361 362 363 365
352 352 353 358 358 357 360 360 354 354 351 352 354 359 360 363 362 359 362 363 363 358 364 366 366 367 361 357 355 359 358 356 360 347 342 349 357 359 362 362 362 361 361
352 352 352 356 359 360 360 359 360 358 354 352 354 353 354 355 357 362 361 364 365 365 362 363 367 366 365 364 360 359 355 352 349 350 349 353 352 357 362 362 360 360 360